[[{"header":{"parameterUnit":"m.s-1","parameterCategory":1,"la1":30.6,"la2":29.2853,"lo1":-89.7004,"lo2":-87.6739,"dy":0.0162,"dx":0.0183,"nx":112,"ny":82,"refTime":"2023-03-09T06:00:00:Z","depth":0,"parameterNumber":2,"parameterNumberName":"U-component_of_WINDS"},"data":[0.0,0.0,0.0,0.0,0.0,0.0,0.0,0.0,0.0,0.0,0.0,0.0,0.0,0.0,0.0,0.0,0.0,0.0,0.0,0.0,0.0,0.0,0.0,0.0,0.0,0.0,0.0,0.0,0.0,0.0,0.0,0.0,0.0,0.0,0.0,0.0,0.0,0.0,0.0,0.0,0.0,0.0,0.0,0.0,0.0,0.0,0.0,0.0,0.0,0.0,0.0,0.0,0.0,0.0,0.0,0.0,0.0,0.0,0.0,0.0,0.0,0.0,0.0,0.0,0.0,0.0,0.0,0.0,0.0,0.0,0.0,0.0,0.0,0.0,0.0,0.0,0.0,0.0,0.0,0.0,0.0,0.0,0.0,0.0,0.0,0.0,0.0,0.0,0.0,0.0,7.6015,7.6015,7.6015,7.6015,7.6015,7.6015,7.6015,7.6015,0.0,0.0,0.0,0.0,0.0,0.0,0.0,0.0,0.0,0.0,0.0,0.0,0.0,0.0,0.0,0.0,0.0,0.0,0.0,0.0,0.0,0.0,0.0,0.0,0.0,0.0,0.0,0.0,0.0,0.0,0.0,0.0,0.0,0.0,0.0,0.0,0.0,0.0,0.0,0.0,0.0,0.0,0.0,0.0,0.0,0.0,0.0,0.0,0.0,0.0,0.0,0.0,0.0,0.0,0.0,0.0,0.0,0.0,0.0,0.0,0.0,0.0,0.0,0.0,0.0,0.0,0.0,0.0,0.0,0.0,0.0,0.0,0.0,0.0,0.0,0.0,0.0,0.0,0.0,0.0,0.0,0.0,0.0,0.0,0.0,0.0,0.0,0.0,0.0,0.0,0.0,0.0,0.0,0.0,0.0,0.0,0.0,0.0,0.0,0.0,0.0,0.0,0.0,0.0,7.6015,7.6015,7.6015,7.6015,7.6015,7.6015,7.6015,7.6015,0.0,0.0,0.0,0.0,0.0,0.0,0.0,0.0,0.0,0.0,0.0,0.0,0.0,0.0,0.0,0.0,0.0,0.0,0.0,0.0,0.0,0.0,0.0,0.0,0.0,0.0,0.0,0.0,0.0,0.0,0.0,0.0,0.0,0.0,0.0,0.0,0.0,0.0,0.0,0.0,0.0,0.0,0.0,0.0,0.0,0.0,0.0,0.0,0.0,0.0,0.0,0.0,0.0,0.0,0.0,0.0,0.0,0.0,0.0,0.0,0.0,0.0,0.0,0.0,0.0,0.0,0.0,0.0,0.0,0.0,0.0,0.0,0.0,0.0,0.0,0.0,0.0,0.0,0.0,0.0,0.0,0.0,0.0,0.0,0.0,0.0,0.0,0.0,0.0,0.0,0.0,0.0,0.0,0.0,0.0,0.0,0.0,0.0,0.0,0.0,0.0,0.0,0.0,7.6015,7.6015,7.6015,7.6015,7.6015,7.6015,7.6015,7.6015,7.6015,7.5787,0.0,0.0,0.0,0.0,0.0,0.0,0.0,0.0,0.0,0.0,0.0,0.0,0.0,0.0,0.0,0.0,0.0,0.0,0.0,0.0,0.0,0.0,0.0,0.0,0.0,0.0,0.0,0.0,0.0,0.0,0.0,0.0,0.0,0.0,0.0,0.0,0.0,0.0,0.0,0.0,0.0,0.0,0.0,0.0,0.0,0.0,0.0,0.0,0.0,0.0,0.0,0.0,0.0,0.0,0.0,0.0,0.0,0.0,0.0,0.0,0.0,0.0,0.0,0.0,0.0,0.0,0.0,0.0,0.0,0.0,0.0,0.0,0.0,0.0,0.0,0.0,0.0,0.0,0.0,0.0,0.0,0.0,0.0,0.0,0.0,0.0,0.0,0.0,0.0,0.0,0.0,0.0,0.0,0.0,0.0,0.0,0.0,0.0,0.0,0.0,0.0,0.0,7.6015,7.6015,7.6015,7.6015,7.6015,7.6015,7.6015,7.6015,7.6015,7.6015,0.0,0.0,0.0,0.0,0.0,0.0,0.0,0.0,0.0,0.0,0.0,0.0,0.0,0.0,0.0,0.0,0.0,0.0,0.0,0.0,0.0,0.0,0.0,0.0,0.0,0.0,0.0,0.0,0.0,0.0,0.0,0.0,0.0,0.0,0.0,0.0,0.0,0.0,0.0,0.0,0.0,0.0,0.0,0.0,0.0,0.0,0.0,0.0,0.0,0.0,0.0,0.0,0.0,0.0,0.0,0.0,0.0,0.0,0.0,0.0,0.0,0.0,0.0,0.0,0.0,0.0,0.0,0.0,0.0,0.0,0.0,0.0,0.0,0.0,0.0,0.0,0.0,0.0,0.0,0.0,0.0,0.0,0.0,0.0,0.0,0.0,0.0,0.0,0.0,0.0,0.0,0.0,0.0,0.0,0.0,0.0,0.0,0.0,0.0,0.0,0.0,0.0,7.6015,7.6015,7.6015,7.6015,7.6015,7.6015,7.6015,7.6015,7.6015,7.6015,0.0,0.0,0.0,0.0,0.0,0.0,0.0,0.0,0.0,0.0,0.0,0.0,0.0,0.0,0.0,0.0,0.0,0.0,0.0,0.0,0.0,0.0,0.0,0.0,0.0,0.0,0.0,0.0,0.0,0.0,0.0,0.0,0.0,0.0,0.0,0.0,0.0,0.0,0.0,0.0,0.0,0.0,0.0,0.0,0.0,0.0,0.0,0.0,0.0,0.0,0.0,0.0,0.0,0.0,0.0,0.0,0.0,0.0,0.0,0.0,0.0,0.0,0.0,0.0,0.0,0.0,0.0,0.0,0.0,0.0,0.0,0.0,0.0,0.0,0.0,0.0,0.0,0.0,0.0,0.0,0.0,0.0,0.0,0.0,0.0,0.0,0.0,0.0,0.0,0.0,0.0,0.0,0.0,0.0,0.0,0.0,0.0,0.0,0.0,0.0,0.0,0.0,7.6015,7.6015,7.6015,7.6015,7.6015,7.6015,7.6015,7.6015,7.6015,0.0,0.0,0.0,0.0,0.0,0.0,0.0,0.0,0.0,0.0,0.0,0.0,0.0,0.0,0.0,0.0,0.0,0.0,0.0,0.0,0.0,0.0,0.0,0.0,0.0,0.0,0.0,0.0,0.0,0.0,0.0,0.0,0.0,0.0,0.0,0.0,0.0,0.0,0.0,0.0,0.0,0.0,0.0,0.0,0.0,0.0,0.0,0.0,0.0,0.0,0.0,0.0,0.0,0.0,0.0,0.0,0.0,0.0,0.0,0.0,0.0,0.0,0.0,0.0,0.0,0.0,0.0,0.0,0.0,0.0,0.0,0.0,0.0,0.0,0.0,0.0,0.0,0.0,0.0,0.0,0.0,0.0,0.0,0.0,0.0,0.0,0.0,0.0,0.0,0.0,0.0,0.0,0.0,0.0,0.0,0.0,0.0,0.0,0.0,0.0,0.0,0.0,7.6015,7.6015,7.6015,7.6015,7.6015,7.6015,7.6015,7.6015,7.6015,7.6015,0.0,0.0,0.0,0.0,0.0,0.0,0.0,0.0,0.0,0.0,0.0,0.0,0.0,0.0,0.0,0.0,0.0,0.0,0.0,0.0,0.0,0.0,0.0,0.0,0.0,0.0,0.0,0.0,0.0,0.0,0.0,0.0,0.0,0.0,0.0,0.0,0.0,0.0,0.0,0.0,0.0,0.0,0.0,0.0,0.0,0.0,0.0,0.0,0.0,0.0,0.0,0.0,0.0,0.0,0.0,0.0,0.0,0.0,0.0,0.0,0.0,0.0,0.0,0.0,0.0,0.0,0.0,0.0,0.0,0.0,0.0,0.0,0.0,0.0,0.0,0.0,0.0,0.0,0.0,0.0,0.0,0.0,0.0,0.0,0.0,0.0,0.0,0.0,0.0,0.0,0.0,0.0,0.0,0.0,0.0,0.0,0.0,0.0,0.0,0.0,0.0,0.0,7.6015,7.6015,7.6015,7.6015,7.6015,7.6015,7.6015,7.6015,7.6015,0.0,0.0,0.0,0.0,0.0,0.0,0.0,0.0,0.0,0.0,0.0,0.0,0.0,0.0,0.0,0.0,0.0,0.0,0.0,0.0,0.0,0.0,0.0,0.0,0.0,0.0,0.0,0.0,0.0,0.0,0.0,0.0,0.0,0.0,0.0,0.0,0.0,0.0,0.0,0.0,0.0,0.0,0.0,0.0,0.0,0.0,0.0,0.0,0.0,0.0,0.0,0.0,0.0,0.0,0.0,0.0,0.0,0.0,0.0,0.0,0.0,0.0,0.0,0.0,0.0,0.0,0.0,0.0,0.0,0.0,0.0,0.0,0.0,0.0,0.0,0.0,0.0,0.0,0.0,0.0,0.0,0.0,0.0,0.0,0.0,0.0,0.0,0.0,0.0,0.0,0.0,0.0,0.0,0.0,0.0,0.0,0.0,0.0,0.0,0.0,0.0,0.0,0.0,7.6015,7.6015,7.6015,7.6015,7.6015,7.6015,7.6015,7.6015,7.6015,7.6015,0.0,0.0,0.0,0.0,0.0,0.0,0.0,0.0,0.0,0.0,0.0,0.0,0.0,0.0,0.0,0.0,0.0,0.0,0.0,0.0,0.0,0.0,0.0,0.0,0.0,0.0,0.0,0.0,0.0,0.0,0.0,0.0,0.0,0.0,0.0,0.0,0.0,0.0,0.0,0.0,0.0,0.0,0.0,0.0,0.0,0.0,0.0,0.0,0.0,0.0,0.0,0.0,0.0,0.0,0.0,0.0,0.0,0.0,0.0,0.0,0.0,0.0,0.0,0.0,0.0,0.0,0.0,0.0,0.0,0.0,0.0,0.0,0.0,0.0,0.0,0.0,0.0,0.0,0.0,0.0,0.0,0.0,0.0,0.0,0.0,0.0,0.0,0.0,0.0,0.0,0.0,0.0,0.0,0.0,0.0,0.0,0.0,0.0,0.0,0.0,0.0,0.0,7.6015,7.6015,7.6015,7.6015,7.6015,7.6015,7.6015,7.6015,7.6015,7.6015,0.0,0.0,0.0,0.0,0.0,0.0,0.0,0.0,0.0,0.0,0.0,0.0,0.0,0.0,0.0,0.0,0.0,0.0,0.0,0.0,0.0,0.0,0.0,0.0,0.0,0.0,0.0,0.0,0.0,0.0,0.0,0.0,0.0,0.0,0.0,0.0,0.0,0.0,0.0,0.0,0.0,0.0,0.0,0.0,0.0,0.0,0.0,0.0,0.0,0.0,0.0,0.0,0.0,0.0,0.0,0.0,0.0,0.0,0.0,0.0,0.0,0.0,0.0,0.0,0.0,0.0,0.0,0.0,0.0,0.0,0.0,0.0,0.0,0.0,0.0,0.0,0.0,0.0,0.0,0.0,0.0,0.0,0.0,0.0,0.0,0.0,0.0,0.0,0.0,0.0,0.0,0.0,0.0,0.0,0.0,0.0,0.0,0.0,0.0,0.0,0.0,0.0,7.6015,7.6015,7.6015,7.6015,7.6015,7.6015,7.6015,7.6015,7.6015,7.6015,0.0,0.0,0.0,0.0,0.0,0.0,0.0,0.0,0.0,0.0,0.0,0.0,0.0,0.0,0.0,0.0,0.0,0.0,0.0,0.0,0.0,0.0,0.0,0.0,0.0,0.0,0.0,0.0,0.0,0.0,0.0,0.0,0.0,0.0,0.0,0.0,0.0,0.0,0.0,0.0,0.0,0.0,0.0,0.0,0.0,0.0,0.0,0.0,0.0,0.0,0.0,0.0,0.0,0.0,0.0,0.0,0.0,0.0,0.0,0.0,7.1609,7.1364,0.0,0.0,0.0,0.0,0.0,0.0,0.0,0.0,0.0,0.0,0.0,0.0,0.0,0.0,0.0,0.0,0.0,0.0,0.0,0.0,0.0,0.0,0.0,0.0,0.0,0.0,0.0,0.0,0.0,0.0,0.0,0.0,0.0,0.0,0.0,0.0,0.0,0.0,0.0,0.0,7.6015,7.6015,7.6015,7.6015,7.6015,7.6015,7.6015,7.6015,7.6015,7.6015,7.6015,0.0,0.0,0.0,0.0,0.0,0.0,0.0,0.0,0.0,0.0,0.0,0.0,0.0,0.0,0.0,0.0,0.0,0.0,0.0,0.0,0.0,0.0,0.0,0.0,0.0,0.0,0.0,0.0,0.0,0.0,0.0,0.0,0.0,0.0,0.0,0.0,0.0,0.0,0.0,0.0,0.0,0.0,0.0,0.0,0.0,0.0,0.0,0.0,0.0,0.0,0.0,0.0,0.0,0.0,0.0,0.0,0.0,0.0,0.0,7.2726,7.2328,0.0,0.0,0.0,0.0,0.0,0.0,0.0,0.0,0.0,0.0,0.0,0.0,0.0,0.0,0.0,0.0,0.0,0.0,0.0,0.0,0.0,0.0,0.0,0.0,0.0,0.0,0.0,0.0,0.0,0.0,0.0,0.0,0.0,0.0,0.0,0.0,0.0,0.0,0.0,0.0,7.6015,7.6015,7.6015,7.6015,7.6015,7.6015,7.6015,7.6015,7.6015,7.6015,7.6015,0.0,0.0,0.0,0.0,0.0,0.0,0.0,0.0,0.0,0.0,0.0,0.0,0.0,0.0,0.0,0.0,0.0,0.0,0.0,0.0,0.0,0.0,0.0,0.0,0.0,0.0,0.0,0.0,0.0,0.0,0.0,0.0,0.0,0.0,0.0,0.0,0.0,0.0,0.0,0.0,0.0,0.0,0.0,0.0,0.0,0.0,0.0,0.0,0.0,0.0,0.0,0.0,0.0,7.3895,7.3934,7.3973,7.4088,7.419,7.4239,7.4166,7.3639,7.2803,7.2611,0.0,0.0,0.0,0.0,0.0,0.0,0.0,0.0,0.0,0.0,0.0,0.0,0.0,0.0,0.0,0.0,0.0,0.0,0.0,0.0,0.0,0.0,7.3937,7.5592,7.6015,7.6015,7.6015,0.0,0.0,0.0,0.0,0.0,0.0,0.0,0.0,0.0,0.0,0.0,7.6015,7.6015,7.6015,7.6015,7.6015,7.6015,7.6015,7.6015,7.6015,7.6015,7.6015,7.6015,0.0,0.0,0.0,0.0,0.0,0.0,0.0,0.0,0.0,0.0,0.0,0.0,0.0,0.0,0.0,0.0,0.0,0.0,0.0,0.0,0.0,0.0,0.0,0.0,0.0,0.0,0.0,0.0,0.0,0.0,0.0,0.0,7.1897,7.1037,0.0,0.0,0.0,0.0,0.0,0.0,0.0,0.0,0.0,0.0,0.0,0.0,0.0,7.3536,7.3536,7.3727,7.379,7.379,7.4572,7.4943,7.4943,7.5716,7.6026,7.6049,7.5978,0.0,7.4501,7.3728,0.0,0.0,0.0,0.0,0.0,0.0,0.0,0.0,0.0,0.0,0.0,0.0,0.0,0.0,0.0,0.0,0.0,0.0,0.0,0.0,0.0,0.0,7.3937,7.5592,7.6015,7.6015,7.6015,7.6015,7.6015,7.6015,7.6015,7.6015,0.0,0.0,0.0,0.0,0.0,0.0,7.6015,7.6015,7.6015,7.6015,7.6015,7.6015,7.6015,7.6015,7.6015,7.6015,7.6015,7.6015,7.6015,7.6015,0.0,0.0,0.0,0.0,0.0,0.0,0.0,0.0,0.0,0.0,0.0,0.0,0.0,0.0,0.0,0.0,0.0,0.0,0.0,0.0,0.0,0.0,0.0,0.0,0.0,0.0,0.0,0.0,0.0,7.1468,7.1893,6.9988,7.1371,7.2119,0.0,0.0,0.0,0.0,0.0,0.0,0.0,0.0,0.0,7.3234,7.4045,7.4471,7.4471,7.4997,7.5267,7.5267,7.5662,7.5817,7.5856,7.6243,7.6397,7.6397,7.6287,7.5993,7.5567,7.4653,7.4186,7.4014,0.0,0.0,0.0,0.0,7.2937,7.2899,7.2476,7.236,7.236,7.236,0.0,0.0,0.0,0.0,0.0,0.0,0.0,7.1937,7.3168,7.386,7.4476,7.5707,7.6015,7.6015,7.6015,7.6015,7.6015,7.6015,7.6015,7.6015,7.6015,7.6015,0.0,0.0,0.0,7.6015,7.6015,7.6015,7.6015,7.6015,7.6015,7.6015,7.6015,7.6015,7.6015,7.6015,7.6015,7.6015,7.6015,7.6015,7.6015,0.0,0.0,0.0,0.0,0.0,0.0,0.0,0.0,0.0,0.0,0.0,0.0,0.0,0.0,0.0,0.0,0.0,0.0,0.0,0.0,0.0,0.0,0.0,0.0,0.0,0.0,0.0,0.0,7.112,7.1794,6.9633,7.1402,7.2474,0.0,0.0,0.0,0.0,0.0,0.0,7.2839,7.3659,7.4146,7.4215,7.5005,7.543,7.5453,7.6088,7.6397,7.6397,7.6397,7.6397,7.6397,7.6397,7.6397,7.6359,7.6248,7.6212,7.6106,7.5166,7.4417,7.3783,7.3591,7.3514,7.3514,7.3514,7.3514,7.3514,7.3514,7.3514,7.3514,7.3514,7.3514,7.3514,7.3514,0.0,0.0,0.0,0.0,7.2745,7.3591,7.4245,7.4938,7.5784,7.6015,7.6015,7.6015,7.6015,7.6015,7.6015,7.6015,7.6015,7.6015,7.6015,0.0,7.6015,7.6015,7.6015,7.6015,7.6015,7.6015,7.6015,7.6015,7.6015,7.6015,7.6015,7.6015,7.6015,7.6015,7.6015,7.6015,7.6015,7.6015,7.6015,0.0,0.0,0.0,0.0,0.0,0.0,0.0,0.0,0.0,0.0,0.0,0.0,0.0,0.0,0.0,0.0,0.0,0.0,0.0,0.0,0.0,0.0,0.0,0.0,0.0,0.0,0.0,0.0,0.0,7.1279,7.2761,0.0,0.0,0.0,0.0,7.3618,7.3773,7.3828,7.3837,7.4618,7.5028,7.5028,7.5856,7.632,7.632,7.6359,7.6397,7.6397,7.6397,7.6397,7.6397,7.6397,7.6359,7.6281,7.6243,7.6171,7.6018,7.5071,7.4668,7.4553,7.3822,7.3514,7.3514,7.3514,7.3514,7.3514,7.3514,7.3514,7.3514,7.3514,7.3514,7.3514,7.3514,7.3476,0.0,0.0,7.3399,7.363,7.4437,7.4668,7.4938,7.5784,7.6015,7.6015,7.6015,7.6015,7.6015,7.6015,7.6015,7.6015,7.6015,0.0,7.6015,7.6015,7.6015,7.6015,7.6015,7.6015,7.6015,7.6015,7.6015,7.6015,7.6015,7.6015,7.6015,7.6015,7.6015,7.6015,7.6015,7.6015,7.6015,7.6015,7.5551,0.0,0.0,0.0,0.0,0.0,0.0,0.0,0.0,0.0,0.0,0.0,0.0,0.0,0.0,0.0,0.0,0.0,0.0,0.0,0.0,0.0,0.0,0.0,0.0,0.0,0.0,0.0,0.0,7.2229,7.3612,0.0,7.3463,7.3419,7.3551,7.3844,7.4386,7.4657,7.4672,7.5469,7.5933,7.5933,7.6243,7.6397,7.6397,7.6397,7.6397,7.6397,7.6397,7.6397,7.6397,7.6397,7.6397,7.6359,7.6302,7.6272,7.6216,7.5813,7.5592,7.5515,7.5207,7.513,7.513,7.513,7.513,7.513,7.513,7.513,7.513,7.513,7.513,7.5014,7.4447,7.4255,7.4168,7.3668,7.386,7.4361,7.463,7.513,7.563,7.5938,7.6015,7.6015,7.6015,7.6015,7.6015,7.6015,7.6015,7.6015,7.6015,7.6015,7.6015,7.6015,7.6015,7.6015,7.6015,7.6015,7.6015,7.6015,7.6015,7.6015,7.6015,7.6015,7.6015,7.6015,7.6015,7.6015,7.6015,7.6015,7.6015,7.6015,7.5818,7.5485,0.0,0.0,0.0,0.0,0.0,0.0,0.0,0.0,0.0,0.0,0.0,0.0,0.0,0.0,0.0,0.0,0.0,0.0,0.0,0.0,0.0,0.0,0.0,0.0,0.0,7.2805,7.369,7.3103,7.427,7.4895,7.437,7.4309,7.444,7.4711,7.5252,7.5546,7.5546,7.6088,7.6397,7.6397,7.6397,7.6397,7.6397,7.6397,7.6397,7.6397,7.6397,7.6397,7.6397,7.6397,7.6397,7.6359,7.634,7.6299,7.6261,7.6184,7.6079,7.6041,7.6005,7.6015,7.6015,7.6015,7.6015,7.6015,7.6015,7.6015,7.6015,7.6015,7.6015,7.5899,7.5293,7.5139,7.5014,7.4476,7.4745,7.513,7.513,7.5553,7.6015,7.6015,7.6015,7.6015,7.6015,7.6015,7.6015,7.6015,7.6015,7.6015,7.6015,7.6015,7.6015,7.6015,7.6015,7.6015,7.6015,7.6245,7.6438,7.6438,7.6669,7.6823,7.6823,7.6823,7.6746,7.6476,7.6438,7.6322,7.6015,7.6015,7.613,7.6438,7.6438,7.5929,7.4866,0.0,0.0,0.0,0.0,0.0,0.0,0.0,0.0,0.0,0.0,0.0,0.0,0.0,0.0,0.0,0.0,0.0,0.0,0.0,0.0,0.0,0.0,0.0,7.1523,7.2855,7.3953,7.3953,7.4672,7.5136,7.5136,7.5136,7.5484,7.632,7.6397,7.6397,7.6397,7.6397,7.6397,7.6397,7.6397,7.6397,7.6397,7.6397,7.6397,7.6397,7.6397,7.6397,7.6397,7.6397,7.6359,7.6281,7.6281,7.6281,7.6204,7.6127,7.6127,7.6079,7.609,7.6053,7.6015,7.6015,7.6015,7.6015,7.6015,7.6015,7.6015,7.6015,7.6015,7.6015,7.6015,7.6015,7.6015,7.6015,7.6015,7.6015,7.6015,7.6015,7.6015,7.6015,7.6015,7.6015,7.6015,7.6015,7.6015,7.6015,7.6015,7.6015,7.6015,7.6015,7.6015,7.6015,7.6015,0.0,7.6053,7.6784,7.7323,7.7323,7.8015,7.8477,7.8477,7.8477,7.8169,7.74,7.7323,7.6938,7.6092,7.6053,7.6438,7.7246,7.7246,7.6593,7.531,0.0,0.0,0.0,0.0,0.0,0.0,0.0,0.0,0.0,0.0,0.0,0.0,0.0,0.0,0.0,0.0,0.0,0.0,0.0,0.0,0.0,7.3612,7.4347,7.4092,7.4479,7.4982,7.5662,7.5933,7.6049,7.6049,7.6049,7.6127,7.6359,7.6397,7.6397,7.6397,7.6397,7.6397,7.6397,7.6397,7.6397,7.6397,7.6397,7.6397,7.6397,7.6397,7.6397,7.6397,7.6397,7.6397,7.6359,7.6359,7.6359,7.632,7.6281,7.6224,7.6167,7.6082,7.6015,7.6015,7.6015,7.6015,7.6015,7.6015,7.6015,7.6015,7.6015,7.6015,7.6015,7.6015,7.6015,7.6015,7.6015,7.6015,7.6015,7.6015,7.6015,7.6015,7.6015,7.6015,7.6015,7.6015,7.6015,7.6015,7.6015,7.6015,7.6015,7.6015,7.6015,7.6015,7.6015,7.6553,7.6938,7.6938,7.7669,7.8169,7.8169,7.8361,7.8477,7.8477,7.8477,7.84,7.8169,7.8169,7.8054,7.7823,7.7246,7.6746,7.6361,7.5999,7.5681,0.0,0.0,0.0,0.0,0.0,0.0,0.0,0.0,0.0,0.0,0.0,0.0,0.0,0.0,0.0,0.0,0.0,0.0,0.0,0.0,0.0,0.0,7.4247,7.5214,7.5585,7.5662,7.5817,7.632,7.6397,7.6397,7.6397,7.6397,7.6397,7.6397,7.6397,7.6397,7.6397,7.6397,7.6397,7.6397,7.6397,7.6397,7.6397,7.6397,7.6397,7.6397,7.6397,7.6397,7.6397,7.6397,7.6397,7.6397,7.6397,7.6397,7.6397,7.6281,7.625,7.6169,0.0,0.0,0.0,0.0,7.6015,7.6015,7.6015,7.6015,7.6015,7.6015,7.6015,7.6015,7.6015,7.6015,7.6015,7.6015,7.6015,7.6015,7.6015,7.6015,7.6015,7.6015,7.6015,7.6015,7.6015,7.6015,7.6015,7.6015,7.6284,0.0,7.6553,7.6553,7.6553,7.6553,7.7246,7.7784,7.7784,7.8515,7.9054,7.9054,7.9361,7.9592,7.9592,7.9592,0.0,0.0,0.0,7.8861,7.8515,7.84,0.0,0.0,0.0,7.6207,7.531,7.4626,0.0,0.0,7.3591,7.3372,0.0,0.0,0.0,0.0,0.0,0.0,0.0,0.0,0.0,0.0,0.0,0.0,0.0,0.0,0.0,0.0,7.4672,7.5523,7.6281,7.6397,7.6397,7.6397,7.6397,7.6397,7.6397,7.6397,7.6397,7.6397,7.6397,7.6397,7.6397,7.6397,0.0,0.0,0.0,7.6397,7.6397,7.6397,7.6397,7.6397,7.6397,7.6397,7.6397,7.6397,7.6397,7.6397,7.6397,7.6397,7.6397,7.6243,7.6212,7.6169,7.6092,7.6053,7.6015,7.6015,7.6015,7.6015,7.6015,0.0,0.0,7.6015,7.6015,7.6015,7.6015,7.6015,7.6015,7.6015,7.6015,7.6015,7.6015,7.6015,7.6015,7.6015,7.6015,7.6015,7.6015,7.6092,7.613,7.613,7.6823,7.7438,7.7438,7.7438,7.7438,7.7438,7.813,7.8631,7.8631,7.94,7.9939,7.9939,8.0631,0.0,8.1093,8.1093,8.0785,8.0015,7.9939,7.9554,7.8669,7.94,7.9054,7.7476,7.813,7.7546,7.5532,7.5056,7.4573,7.4101,7.3604,7.3372,0.0,0.0,0.0,0.0,0.0,0.0,0.0,0.0,0.0,0.0,0.0,0.0,0.0,0.0,0.0,7.3899,7.5136,7.6204,7.6359,7.6397,7.6397,7.6397,7.6397,7.6397,7.6397,7.6397,7.6397,7.6397,7.6397,7.6397,7.6397,7.6397,7.6397,7.6397,7.6397,7.6397,7.6397,7.6397,7.6397,7.6397,7.6397,0.0,7.6397,7.6397,7.6397,7.6397,7.6397,7.6397,7.6397,7.6243,7.6135,7.6053,7.6015,7.6015,7.6015,7.6015,7.6015,7.6015,7.6015,7.6015,7.6015,7.6015,7.6015,7.6015,7.6015,7.6015,0.0,7.6015,7.6015,7.6015,7.6015,7.6015,7.6015,7.6015,7.6015,7.6015,7.6015,7.6553,7.7053,7.7053,7.7707,7.8246,7.8246,7.8246,7.8246,7.8246,7.9015,7.9554,7.9554,8.0323,8.0862,8.0862,8.1016,8.1093,8.1093,8.1093,8.1016,8.0862,8.0862,8.0477,7.9592,7.9708,7.9323,7.8284,7.84,7.7985,7.6924,7.6122,7.5308,7.4582,7.3752,7.3372,0.0,0.0,0.0,0.0,0.0,0.0,0.0,0.0,0.0,0.0,0.0,7.259,7.259,0.0,7.4502,7.4518,7.5585,7.6397,7.6397,7.6397,7.6397,7.6397,7.6397,7.6397,7.6397,7.6397,7.6397,7.6397,7.6397,7.6397,7.6397,7.6397,7.6397,7.6397,7.6397,7.6397,7.6397,7.6397,7.6397,7.6397,7.6397,7.6397,7.6397,7.6397,7.6397,7.6397,7.6397,7.6397,7.6397,7.625,7.6118,7.6015,7.6015,7.6015,7.6015,7.6015,7.6015,7.6015,7.6015,7.6015,7.6015,7.6015,7.6015,7.6015,7.6015,7.6015,7.6015,7.6015,7.6015,7.6015,7.6015,7.6015,7.6015,7.6015,7.6322,7.6669,7.6669,7.7323,7.79,7.79,7.8592,7.9131,7.9131,7.9515,7.9631,7.9208,7.99,8.0439,8.0439,8.0823,8.1093,8.1093,8.1093,8.1093,8.1093,8.1093,8.1093,8.1093,8.1093,8.09,8.0477,8.0439,8.0054,7.9169,7.9131,7.8615,7.761,7.7186,7.6387,7.5311,7.4648,7.4014,0.0,0.0,0.0,0.0,0.0,0.0,0.0,7.2861,7.3054,7.3751,7.3906,7.3906,7.3906,7.4541,7.5098,7.5098,7.5817,7.6397,7.6397,7.6397,7.6397,7.6397,7.6397,7.6397,7.6397,7.6397,7.6397,7.6397,7.6397,7.6397,7.6397,7.6397,7.6397,7.6397,7.6397,7.6397,7.6397,7.6397,7.6397,7.6397,7.6397,7.6397,7.6397,7.6397,7.6397,7.6397,7.6397,7.6397,7.6335,7.6233,7.613,7.6015,7.6015,7.6015,7.6015,7.6015,7.6015,7.6015,7.6015,7.6015,7.6015,7.6015,7.6015,7.6015,7.6015,7.6015,7.6015,7.6015,7.6015,7.6015,7.6015,7.613,7.6245,7.6245,7.6899,7.7515,7.7553,7.8169,7.8746,7.8746,7.9477,8.0054,8.0054,8.0631,8.0862,8.0169,8.0669,8.1093,8.1093,8.1246,8.1323,8.1323,8.1477,8.1593,8.1593,8.1593,8.1593,8.1593,8.1439,8.1323,8.1323,8.117,8.0785,8.0092,8.0054,7.9467,7.8244,7.8173,7.7531,7.6384,7.5796,7.4833,6.8833,7.0667,7.2577,7.2577,7.3187,7.3734,0.0,7.3728,7.376,7.3899,7.3899,7.3899,7.3899,7.4556,7.5098,7.5098,7.5817,7.6397,7.6397,7.6397,7.6397,7.6397,7.6397,7.6397,7.6397,7.6397,7.6397,7.6397,7.6397,7.6397,7.6397,7.6397,7.6397,7.6397,7.6397,7.6397,7.6397,7.6397,7.6397,7.6397,7.6397,7.6397,7.6397,7.6397,7.6397,7.6397,7.6397,7.632,7.6219,7.6233,7.613,7.6015,7.6015,7.6015,7.6015,7.6015,7.6015,7.6015,7.6015,7.6015,7.6015,7.6015,7.6015,7.6015,7.6015,7.6015,7.6015,7.6015,7.6015,7.6015,7.6015,7.6583,7.716,7.716,7.7766,7.8382,7.84,7.9054,7.9631,7.9669,8.0362,8.0939,8.0939,8.1054,8.1054,8.0977,8.1054,8.1093,8.1093,8.1708,8.217,8.217,8.2862,8.3324,8.3324,8.3324,8.3324,8.3324,8.2593,8.217,8.217,8.1477,8.1054,8.0977,8.0939,8.0484,7.9569,7.9156,7.8519,7.7682,7.6797,7.5511,7.0595,7.2142,7.3458,7.3938,7.4324,7.4579,7.4579,7.4618,7.475,7.5252,7.533,7.533,7.533,7.5624,7.5856,7.5856,7.6165,7.6397,7.6397,7.6397,7.6397,7.6397,7.6397,7.6397,7.6397,7.6397,7.6397,7.6397,7.6397,7.6397,7.6397,7.6397,7.6397,7.6397,7.6397,7.6397,7.6397,7.6397,7.6397,7.6397,7.6397,7.6397,7.6397,7.6397,7.6668,7.7195,7.7698,7.7814,7.7635,7.7649,7.7574,7.7429,7.7429,7.7429,7.7314,7.6361,7.6015,7.6015,7.6015,7.6015,7.6015,7.6015,7.6015,7.6015,7.6015,7.6322,7.6775,7.6775,7.7083,7.7429,7.7429,7.7728,7.7997,7.8015,7.8631,7.9246,7.9254,7.9939,8.0554,8.0554,8.0862,8.1093,8.1093,8.1477,8.1785,8.1785,8.1785,8.1785,8.1785,8.2093,8.2131,8.1631,8.1939,8.2131,8.2131,8.2554,8.2824,8.2824,8.2978,8.3054,8.3054,8.2247,8.1785,8.1785,8.109,8.0528,8.0183,7.9667,7.9013,7.8174,7.753,7.66,7.1274,7.2706,7.379,7.4827,7.5291,7.5446,7.5446,7.5446,7.5662,7.6281,7.6397,7.6397,7.6397,7.6397,7.6397,7.6397,7.6397,7.6397,7.6397,7.6397,7.6397,7.6397,7.6397,7.6397,7.6397,7.6397,7.6397,7.6397,7.6397,7.6397,7.6397,7.6397,7.6397,7.6397,7.6397,7.6397,7.6397,7.6397,7.6397,7.6397,7.663,7.6769,7.6769,7.7001,7.7465,7.8099,7.8742,7.8897,7.8757,7.8728,7.8622,7.8545,7.8507,7.8507,7.8353,7.713,7.6707,7.6698,7.6698,7.6698,7.6698,7.6698,7.6698,7.6698,7.6698,7.7121,7.7622,7.766,7.8045,7.8507,7.8507,7.8661,7.8853,7.8838,7.9492,8.0138,8.0138,8.0669,8.1093,8.1093,8.1285,8.1439,8.1439,8.19,8.2285,8.2285,8.2285,8.2285,8.2285,8.2516,8.2516,8.217,8.2362,8.2477,8.2477,8.2824,8.3093,8.3324,8.3516,8.3708,8.3939,8.3131,8.267,8.267,8.1521,8.0846,8.0735,8.0157,7.9495,7.8718,7.8342,7.7802,0.0,7.1324,7.3041,7.4711,7.574,7.6359,7.6359,7.6359,7.6359,7.6397,7.6397,7.6397,7.6397,7.6397,7.6397,7.6397,7.6397,7.6397,7.6397,7.6397,7.6397,7.6397,7.6397,7.6397,7.6397,7.6397,7.6397,7.6397,7.6397,7.6397,7.6397,7.6397,7.6397,7.6397,7.6397,7.6397,7.6397,7.6397,7.6397,7.6397,7.7272,7.7659,7.7698,7.8534,7.8936,7.8979,7.8979,7.8979,7.8876,7.8729,7.8685,7.8608,7.8531,7.8531,7.8492,7.8454,7.8438,7.8421,7.8421,7.8421,7.8421,7.8421,7.8421,7.8421,7.8421,7.8421,7.8459,7.8454,7.8492,7.8531,7.8531,7.9107,7.9754,7.9754,8.0407,8.1054,8.1054,8.1093,8.1093,8.1093,8.1747,8.2285,8.2247,8.2285,8.2285,8.2285,8.2285,8.2285,8.2285,8.3016,8.3862,8.4709,8.5478,8.594,8.594,8.5247,8.517,8.594,8.4478,8.3978,8.4824,8.4016,8.3555,8.3555,8.2708,8.2045,8.1538,8.0773,8.0123,7.967,7.9171,7.8928,7.0542,7.2513,7.4556,7.5701,7.6165,7.6397,7.6397,7.6397,7.6397,7.6397,7.5933,7.5546,7.5546,7.5546,7.5546,7.5546,7.6011,7.6397,7.6397,7.6397,7.6397,7.6397,7.6397,7.6397,7.6397,7.6397,7.6397,7.6397,7.6397,7.6397,7.6397,7.6397,7.6397,7.6397,7.6397,7.6397,7.6397,7.6978,7.7248,7.7272,7.8177,7.8578,7.8578,7.9415,7.9777,7.9829,8.0396,8.0589,8.0512,8.0447,8.0357,8.0254,8.0215,8.0215,8.0215,8.0215,8.0246,8.0085,7.89,7.8485,7.8485,7.8485,7.8485,7.8485,7.8485,7.89,7.9361,7.9369,7.9792,8.0215,8.0215,8.0446,8.0669,8.0669,8.09,8.1093,8.1093,8.1093,8.1246,8.1816,8.2093,8.2324,8.2324,8.2785,8.2978,8.2401,8.2285,8.2516,8.3093,8.3401,8.3708,8.4016,8.4286,8.4439,8.4439,8.4709,8.5016,8.5286,8.5286,8.5401,8.567,8.4901,8.4478,8.4478,8.3281,8.2604,8.2455,8.097,8.0188,7.9999,7.9014,7.8565,7.1352,7.3187,7.4943,7.6127,7.6397,7.6397,7.6397,7.6397,7.6397,7.6397,7.5701,7.5121,7.5121,7.4889,7.4657,7.4657,7.5121,7.5624,7.5895,7.5933,7.6049,7.6359,7.6397,7.6397,7.6397,7.6397,7.6397,7.6397,7.6397,7.6397,7.6397,7.6397,7.6397,7.6397,7.6707,7.6862,7.6862,7.7751,7.8293,7.8588,7.9158,7.9597,7.9906,8.0434,8.0666,8.0705,8.1271,8.1465,8.1362,8.1323,8.1234,8.117,8.1131,8.1093,8.1093,8.1093,8.1093,8.0939,7.9831,7.9415,7.9415,7.9415,7.9415,7.9415,7.9415,7.9831,8.0254,8.0254,8.0669,8.1093,8.1093,8.1093,8.1093,8.1093,8.1093,8.117,8.1477,8.1516,8.1701,8.2201,8.2554,8.2676,8.233,8.2747,8.2939,8.2362,8.2285,8.2516,8.3054,8.367,8.4055,8.4055,8.4324,8.4478,8.4478,8.4747,8.5016,8.5324,8.5247,8.5478,8.6094,8.5324,8.5055,8.5324,8.4199,8.3523,8.3372,8.171,8.0666,8.0168,7.9183,7.8573,7.1935,7.3296,7.4402,7.6011,7.6397,7.6397,7.6397,7.6397,7.6397,7.632,7.5624,7.5044,7.5005,7.4386,7.3883,7.3883,7.396,7.4309,7.5082,7.516,7.5469,7.6281,7.6397,7.6397,7.6397,7.6397,7.6397,7.6397,7.6397,7.6397,7.6397,7.6397,7.6397,7.6475,7.7248,7.7713,7.7751,7.8641,7.9453,8.029,8.0241,8.0705,8.1504,8.1504,8.1504,8.1504,8.1504,8.1504,8.1478,8.1359,8.1316,8.1285,8.1131,8.1093,8.1093,8.1093,8.1093,8.1093,8.1093,8.1093,8.1093,8.1093,8.1093,8.1093,8.1093,8.1093,8.1093,8.1093,8.1093,8.1093,8.1093,8.1093,8.1093,8.1093,8.1131,8.1362,8.2086,8.2278,8.2317,8.2317,8.2945,8.3259,8.2446,8.2324,8.2285,8.2285,8.2362,8.2439,8.2439,8.3862,8.4939,8.4978,8.5632,8.6094,8.6094,8.5401,8.5286,8.6055,8.4593,8.4401,8.5978,8.5363,8.5286,8.6017,8.5324,8.4733,8.4289,8.2927,8.1649,8.033,7.9834,7.9187,7.2422,7.4146,7.5856,7.6281,7.6397,7.6397,7.6397,7.6397,7.6204,7.5585,7.4773,7.3999,7.338,7.3612,7.3883,7.3883,7.4966,7.5817,7.6049,7.6049,7.6165,7.6359,7.6397,7.6397,7.6397,7.6397,7.6397,7.6397,7.6397,7.6397,7.6397,7.6397,7.6707,7.7365,7.7558,7.8022,7.8641,7.9492,8.0304,8.1155,8.1194,8.1271,8.1504,8.1504,8.1504,8.1504,8.1504,8.1465,8.1401,8.135,8.1263,8.1208,8.1131,8.1093,8.1093,8.1093,8.1093,8.1093,8.1093,8.1093,8.1093,8.1093,8.1093,8.1093,8.1093,8.1093,8.1093,8.1093,8.1093,8.1093,8.1093,8.1093,8.1093,8.1093,8.1554,8.1893,8.1477,8.1869,8.2298,8.2298,8.2484,8.2554,8.2362,8.2324,8.2285,8.2285,8.3401,8.4247,8.4247,8.4632,8.5132,8.5747,8.5978,8.6094,8.6094,8.5901,8.5901,8.6094,8.5709,8.5401,8.5209,8.5593,8.5632,8.5209,8.5593,8.5753,8.5612,8.4328,8.3312,8.2557,8.1457,8.0352,7.3064,7.475,7.6397,7.6397,7.6397,7.6281,7.5933,7.5817,7.5585,7.4734,7.3922,7.3187,7.2684,7.2993,7.3342,7.3342,7.4425,7.543,7.5779,7.5817,7.5972,7.6359,7.6397,7.6397,7.6397,7.6397,7.6397,7.6397,7.6397,7.6397,7.6397,7.6746,7.7171,7.7674,7.8409,7.9221,8.0111,8.0536,8.1039,8.1504,8.1504,8.1504,8.1504,8.1504,8.1504,8.1504,8.1504,8.1504,8.1465,8.1349,8.128,8.1208,8.1131,8.1093,8.1093,8.1093,8.1093,8.1093,8.1093,8.1093,8.1093,8.1093,8.1093,8.1093,8.1093,8.1093,8.1093,8.1093,8.1093,8.1093,8.1093,8.1093,8.1093,8.1093,8.1439,8.1747,8.1676,8.1952,8.2298,8.2298,8.2016,8.1893,8.2247,8.2285,8.2554,8.3324,8.4286,8.5016,8.5401,8.544,8.5593,8.6055,8.6094,8.6094,8.6094,8.6094,8.6094,8.6094,8.5786,8.5517,8.544,8.5517,8.5517,8.544,8.5863,8.6094,8.6094,8.5206,8.4279,8.3385,8.2447,8.1334,7.3667,7.5121,7.6397,7.6397,7.6397,7.6165,7.5314,7.5121,7.485,7.3922,7.3148,7.2568,7.2452,7.2529,7.2645,7.2761,7.3496,7.4347,7.516,7.5276,7.5546,7.632,7.6397,7.6397,7.6397,7.6397,7.6397,7.6397,7.6397,7.6397,7.6397,7.721,7.779,7.8022,7.9569,8.073,8.1504,8.1504,8.1504,8.1504,8.1504,8.1504,8.1504,8.1504,8.1504,8.1504,8.1504,8.1504,8.1504,8.1387,8.128,8.1285,8.117,8.1093,8.1093,8.1093,8.1093,8.1093,8.1093,8.1093,8.1093,8.1093,8.1093,8.1093,8.1093,8.1093,8.1093,8.1093,8.1093,8.1093,8.1093,8.1093,8.1093,8.1093,8.117,8.1439,8.1996,8.2138,8.2124,8.2124,8.1662,8.1477,8.2163,8.2477,8.317,8.467,8.4978,8.5324,8.6017,8.6094,8.6094,8.6094,8.6094,8.6094,8.6094,8.6094,8.6094,8.6094,8.544,8.5324,8.594,8.5363,8.5286,8.5747,8.5978,8.6055,8.594,8.5664,8.4856,8.3626,8.3149,8.2264,7.3883,7.5121,7.6397,7.6397,7.6397,7.6165,7.5314,7.5121,7.4657,7.3148,7.2723,7.2375,7.164,7.2104,7.2839,7.3574,7.4347,7.5198,7.6049,7.6165,7.6243,7.6359,7.6397,7.6397,7.6397,7.6397,7.6397,7.6397,7.6397,7.6397,7.6397,7.721,7.8332,7.9724,8.0769,8.1349,8.1504,8.1504,8.1504,8.1504,8.1504,8.1504,8.1504,8.1504,8.1504,8.1504,8.1504,8.1504,8.1504,8.1426,8.1385,8.1362,8.1246,8.117,8.117,8.1131,8.1093,8.1093,8.1093,8.1093,8.1093,8.1093,8.1093,8.1093,8.1093,8.1093,8.1093,8.1093,8.1093,8.1093,8.1093,8.1093,8.1093,8.1093,8.1593,8.197,8.1439,8.1323,8.1285,8.1285,8.1739,8.2124,8.2278,8.351,8.4555,8.4824,8.5478,8.594,8.6094,8.6094,8.6094,8.6094,8.6094,8.6094,8.6094,8.6094,8.6094,8.6094,8.5978,8.567,8.5132,8.5632,8.5324,8.4055,8.5401,8.5786,8.5132,8.5681,8.5662,8.5009,8.4537,8.365,7.3883,7.5121,7.6397,7.6397,7.6397,7.6049,7.4773,7.4502,7.3999,7.2297,7.191,7.1794,7.1369,7.2026,7.2723,7.3148,7.427,7.5237,7.5662,7.6127,7.6397,7.6397,7.6397,7.6397,7.6397,7.6397,7.6397,7.6397,7.6823,7.7094,7.7094,7.8293,7.9569,8.0846,8.1271,8.1504,8.1504,8.1504,8.1504,8.1504,8.1504,8.1504,8.1504,8.1504,8.1504,8.1504,8.1504,8.1504,8.1504,8.1426,8.1388,8.1368,8.1291,8.1263,8.1253,8.1162,8.1131,8.1131,8.1093,8.1093,8.1093,8.1093,8.1093,8.1093,8.1093,8.1093,8.1093,8.1093,8.1093,8.1093,8.1093,8.1093,8.1093,8.1093,8.1362,8.1554,8.117,8.1093,8.1208,8.1662,8.2047,8.2586,8.3516,8.4362,8.5055,8.544,8.5863,8.6094,8.6094,8.6094,8.6094,8.6094,8.6094,8.6094,8.6094,8.6094,8.6094,8.6094,8.6094,8.594,8.5555,8.5901,8.5709,8.4901,8.5286,8.5286,8.4901,8.4824,8.4771,8.4709,8.4252,8.3747,7.3844,7.5121,7.6397,7.6397,7.6397,7.5972,7.427,7.3883,7.3419,7.164,7.1291,7.1291,7.1291,7.1872,7.2375,7.2568,7.3728,7.4695,7.5044,7.5701,7.6204,7.6359,7.6397,7.6397,7.6397,7.6397,7.6475,7.6668,7.7635,7.8254,7.8254,7.9492,8.0614,8.1465,8.1504,8.1504,8.1504,8.1504,8.1504,8.1504,8.1504,8.1504,8.1504,8.1504,8.1504,8.1504,8.1504,8.1504,8.1504,8.1465,8.1426,8.1426,8.1349,8.1311,8.1319,8.1244,8.1223,8.1231,8.1131,8.1131,8.1131,8.1131,8.1093,8.1093,8.1093,8.1093,8.1093,8.1093,8.1093,8.1093,8.1093,8.1093,8.1093,8.1093,8.1093,8.1093,8.1093,8.1246,8.1516,8.2163,8.2586,8.3285,8.4676,8.506,8.5368,8.6017,8.6094,8.6094,8.6094,8.6094,8.617,8.6363,8.6401,8.644,8.6632,8.6671,8.6594,8.6401,8.6363,8.6286,8.6094,8.6094,8.6017,8.5863,8.5209,8.4824,8.4632,8.3939,8.373,8.3983,8.3506,8.336,7.369,7.5121,7.6397,7.6397,7.6397,7.5972,7.427,7.3883,7.3419,7.164,7.1291,7.1291,7.1291,7.1369,7.1678,7.2452,7.2723,7.338,7.4889,7.516,7.5508,7.632,7.6397,7.6397,7.6397,7.6397,7.6707,7.7519,7.9067,7.9956,7.9956,8.0111,8.0614,8.1465,8.1504,8.1504,8.1504,8.1504,8.1504,8.1504,8.1504,8.1504,8.1504,8.1504,8.1504,8.1504,8.1504,8.1504,8.1504,8.1504,8.1504,8.1504,8.1426,8.1362,8.1401,8.1298,8.1296,8.1273,8.1231,8.117,8.117,8.117,8.1131,8.1093,8.1093,8.1093,8.1093,8.1093,8.1093,8.1093,8.1093,8.1093,8.1093,8.1093,8.1093,8.1093,8.1093,8.1701,8.2201,8.2278,8.3593,8.4714,8.4868,8.5483,8.6017,8.6094,8.6094,8.6094,8.6094,8.6094,8.6401,8.7209,8.7286,8.7594,8.8402,8.844,8.8132,8.7325,8.7286,8.694,8.6132,8.6094,8.5747,8.5016,8.4939,8.4516,8.3708,8.3632,8.3632,8.3605,8.3141,8.2707,7.3651,7.5121,7.6397,7.6397,7.6011,7.5314,7.4154,7.3496,7.2761,7.1562,7.1291,7.1291,7.1291,7.1291,7.1407,7.1756,0.0,7.2839,7.3496,7.4038,7.4695,7.5508,7.5624,7.5817,7.6359,7.6397,7.6978,7.837,7.9569,8.042,8.0962,8.1001,8.1155,8.1504,8.1504,8.1504,8.1504,8.1504,8.1504,8.1504,8.1504,8.1504,8.1504,8.1504,8.1504,8.1504,8.1504,8.1504,8.1504,8.1504,8.1504,8.1504,8.1465,8.1465,8.1465,8.1375,8.1362,8.1347,8.1263,8.1244,8.1253,8.1253,8.1263,8.1214,8.1231,8.1208,8.1208,8.117,8.117,8.117,8.117,8.117,8.1131,8.1093,8.1093,8.1208,8.1739,8.2086,8.2624,8.367,8.4407,8.506,8.5522,8.5901,8.6094,8.6094,8.6094,8.6094,8.6094,8.6555,8.7242,8.8089,8.7709,8.7748,8.8632,8.8709,8.8556,8.8209,8.7671,8.7248,8.6901,8.6363,8.594,8.5632,8.517,8.4478,8.3593,8.3054,8.2824,8.2824,8.2373,8.23,7.3264,7.4928,7.6397,7.6397,7.574,7.4889,7.4077,7.3226,7.2336,7.1485,7.1291,7.1291,7.1291,7.1291,7.1291,0.0,0.0,7.2297,7.2568,7.3148,7.3806,7.4657,7.4773,7.5082,7.5933,7.6707,7.779,7.9221,8.0111,8.0846,8.1465,8.1504,8.1504,8.1504,8.1504,8.1504,8.1504,8.1504,8.1504,8.1504,8.1504,8.1504,8.1504,8.1504,8.1504,8.1504,8.1504,8.1504,8.1504,8.1504,8.1504,8.1504,8.1504,8.1504,8.1504,8.1453,8.1427,8.1427,8.1323,8.1335,8.1319,8.1347,8.135,8.1337,8.134,8.1321,8.1282,8.1244,8.1231,8.1239,8.1214,8.1193,8.1246,8.14,8.1439,8.1701,8.2509,8.2894,8.3439,8.4676,8.5099,8.5406,8.6017,8.6094,8.6094,8.6094,8.6094,8.6094,8.6094,8.6858,8.7743,8.8628,8.8359,8.8479,8.9363,8.921,8.9056,8.9056,8.8017,8.7401,8.7401,8.6555,8.6094,8.6094,8.5324,8.4478,8.3593,8.2708,8.217,8.1939,8.1598,8.1652,7.2375,7.4463,7.6397,7.6397,7.574,7.4889,7.4077,7.3226,7.2336,7.1485,7.1291,7.1291,7.1291,7.1291,7.1291,0.0,0.0,7.1601,7.2491,7.2607,7.2955,7.3806,7.3922,7.4231,7.5044,7.7442,7.9299,8.015,8.1001,8.1504,8.1504,8.1504,8.1504,8.1504,8.1504,8.1504,8.1504,8.1504,8.1504,8.1504,8.1504,8.1504,8.1504,8.1504,8.1504,8.1504,8.1504,8.1504,8.1504,8.1504,8.1504,8.1504,8.1504,8.1504,8.1504,8.1504,8.1504,8.1504,8.1426,8.1426,8.1426,8.1426,8.1426,8.1426,8.1504,8.1426,8.1285,8.1285,8.1291,8.13,8.1234,8.1214,8.1362,8.2124,8.2278,8.2509,8.3387,8.4247,8.4868,8.4907,8.5522,8.6094,8.6094,8.6094,8.6094,8.6094,8.6094,8.6094,8.6094,8.6858,8.7709,8.8602,8.9402,9.0244,9.1095,9.0402,8.9902,8.9902,8.8325,8.7401,8.7401,8.6555,8.6094,8.6094,8.5324,8.4478,8.3593,8.2708,8.19,8.1093,8.1131,8.0576,7.133,7.2723,7.396,7.4541,7.4038,7.3303,7.3071,7.2336,7.164,7.1369,7.1291,7.1291,7.1291,7.1291,7.1291,7.1291,7.1291,7.1407,7.1678,7.222,7.2916,7.3806,7.4928,7.5933,7.6784,7.8177,7.9337,8.015,8.1001,8.1504,8.1504,8.1504,8.1504,8.1504,8.1504,8.1504,8.1504,8.1504,8.1504,8.1504,8.1504,8.1504,8.1504,8.1504,8.1504,8.1504,8.1504,8.1504,8.1504,8.1504,8.1504,8.1504,8.1504,8.1504,8.1504,8.1504,8.1504,8.1504,8.1504,8.1465,8.1465,8.1465,8.1465,8.1465,8.1504,8.1465,8.1426,8.1387,8.135,8.1335,8.1285,8.1716,8.2278,8.2432,8.2939,8.3561,8.4401,8.4753,8.5137,8.5599,8.594,8.6094,8.6094,8.6094,8.6094,8.6094,8.6094,8.6094,8.6094,8.7396,8.8397,8.8679,8.9944,9.0902,9.1171,9.0941,9.0517,8.994,8.9402,8.8594,8.744,8.7132,8.6709,8.6094,8.5863,8.5324,8.4478,8.3593,8.2477,8.1093,8.1093,8.0576,0.0,7.191,7.3226,7.3767,7.3226,7.2607,7.2607,7.191,7.1291,7.1291,7.1291,7.1291,7.1291,7.1291,7.1291,7.1291,7.1291,7.1407,7.1756,7.2258,7.2916,7.3806,7.5082,7.6359,7.7558,7.8486,7.9453,8.0614,8.1194,8.1504,8.1504,8.1504,8.1504,8.1504,8.1504,8.1504,8.1504,8.1504,8.1504,8.1504,8.1504,8.1504,8.1504,8.1504,8.1504,8.1504,8.1504,8.1504,0.0,8.1504,8.1504,8.1504,8.1504,8.1504,8.1504,8.1504,8.1504,8.1504,8.1504,8.1504,8.1504,8.1504,8.1504,8.1581,8.189,8.1774,8.1581,8.1852,8.1929,8.1968,8.22,8.2714,8.3191,8.35,8.3903,8.4489,8.5329,8.5504,8.5637,8.6055,8.6132,8.6132,8.6094,8.6094,8.6094,8.6094,8.6094,8.6094,8.6094,8.7627,8.8705,8.8717,9.0213,9.121,9.121,9.0902,9.0479,8.994,8.9325,8.8479,8.744,8.7094,8.6671,8.6094,8.6094,8.5709,8.4901,8.367,8.2554,8.1554,8.1246,8.072,0.0,0.0,7.3651,7.369,7.3109,7.2491,7.2491,0.0,0.0,7.1291,7.1291,7.1291,7.1291,7.1291,7.1291,7.1291,7.1291,7.1601,7.2491,7.2684,7.3109,7.396,7.4811,7.5972,7.7635,7.8564,7.9763,8.1387,8.1504,8.1504,8.1504,8.1504,8.1504,8.1504,8.1504,8.1504,8.1504,8.1504,8.1504,8.1504,8.1504,8.1504,8.1504,8.1504,8.1504,8.1504,8.1504,8.1504,8.1504,8.1504,8.1504,8.1504,8.1504,8.1504,8.1504,8.1504,8.1504,8.1504,8.1504,8.1542,8.162,8.1658,8.1697,8.1852,8.2664,8.2277,8.1774,8.265,8.2883,8.3076,8.3734,8.3966,8.4198,8.492,8.5152,8.5423,8.6223,8.6423,8.6357,8.6242,8.6242,8.617,8.6132,8.6094,8.6094,8.6094,8.6094,8.6132,8.617,8.7666,8.8705,8.8794,9.0213,9.121,9.121,9.0444,8.9944,8.9902,8.844,8.7517,8.7401,8.6632,8.617,8.6094,8.6094,8.5709,8.4901,8.3208,8.2362,8.2285,8.1477,8.086,0.0,0.0,7.1059,7.1756,7.1756,7.1601,0.0,0.0,0.0,0.0,0.0,7.1291,7.1291,7.1291,7.1291,7.1291,7.1291,7.1601,7.2491,7.369,7.485,7.5701,7.6552,7.7519,7.8602,7.9453,8.0382,8.1426,8.1504,8.1504,8.1504,8.1504,8.1504,8.1504,8.1504,8.1504,8.1504,8.1504,8.1504,8.1504,8.1504,8.1504,8.1504,8.1504,8.1504,8.1504,8.1504,8.1504,8.1504,8.1504,8.1504,8.1504,8.1504,8.1504,8.1504,8.1504,8.1504,8.1504,8.1504,8.1929,8.2587,8.3283,8.3476,8.3515,8.3708,8.3167,8.2689,8.354,8.3786,8.3837,8.4031,8.4495,8.4997,8.5229,8.5771,8.63,8.6455,8.6478,8.6461,8.6384,8.6254,8.6209,8.617,8.6132,8.6094,8.6094,8.6094,8.6324,8.7012,8.8045,8.8936,8.956,9.0559,9.121,9.121,9.1018,9.0598,8.9944,8.9552,8.8743,8.744,8.7209,8.6786,8.6094,8.6094,8.5709,8.4901,8.3824,8.2939,8.2285,8.1477,8.086,6.9667,7.0286,7.0711,7.1175,7.1291,7.1291,7.1291,0.0,0.0,0.0,0.0,7.133,7.1369,7.1369,7.1407,7.1446,7.1816,7.2358,7.3148,7.4038,7.485,7.5701,7.6552,7.7597,7.8873,7.9724,8.0575,8.1426,8.1504,8.1504,8.1504,8.1504,8.1504,8.1504,8.1504,8.1504,8.1504,8.1504,8.1504,8.1504,8.1504,8.1504,8.1504,8.1504,8.1736,8.2084,8.2084,8.2316,8.2703,8.2703,8.2703,8.2703,8.2703,8.2703,8.2703,8.2703,8.2703,8.2703,8.2703,8.3012,8.3476,8.394,8.4095,8.4173,8.4521,8.4327,8.4043,8.4521,8.4649,8.4739,8.5152,8.5577,8.5887,8.5887,8.6261,8.661,8.6571,8.6571,8.6532,8.6455,8.6394,8.6323,8.6242,8.617,8.6132,8.6094,8.6094,8.6401,8.7281,8.8166,8.9017,8.9829,9.0675,9.121,9.121,9.121,9.0825,8.9983,8.9521,8.8748,8.7473,8.7017,8.6594,8.6094,8.6094,8.5901,8.544,8.4593,8.3747,8.2862,8.2054,8.1305,6.9821,7.0866,7.1485,7.133,7.1291,7.1291,7.1291,0.0,0.0,0.0,0.0,0.0,7.1485,7.1549,7.1551,7.1668,7.254,7.345,7.4199,7.4331,7.4618,7.543,7.6281,7.7442,7.9028,7.9918,8.0691,8.1465,8.1504,8.1504,8.1504,8.1504,8.1504,8.1504,8.1504,8.1504,8.1504,8.1504,8.1504,8.1504,8.162,8.1697,8.1697,8.1852,8.2316,8.3012,8.3012,8.3399,8.4095,8.4095,8.4095,8.4095,8.4095,8.4095,8.4095,8.4095,8.4095,8.4134,8.425,8.4289,8.4289,8.4443,8.4482,8.4598,8.5294,8.5488,8.5488,8.55,8.55,8.5655,8.6416,8.661,8.661,8.661,8.661,8.661,8.661,8.661,8.6571,8.6532,8.6532,8.6451,8.63,8.6203,8.617,8.6132,8.6094,8.644,8.7473,8.8252,8.9063,9.0021,9.0787,9.121,9.121,9.121,9.0902,9.0136,8.9332,8.8444,8.7435,8.6555,8.6094,8.6094,8.6094,8.6094,8.6094,8.5286,8.4516,8.3747,8.2785,8.1939,7.1141,7.1992,7.2358,7.1485,7.1291,7.1291,7.1291,0.0,0.0,0.0,0.0,0.0,0.0,7.1659,7.168,7.168,7.3016,7.4296,7.5175,7.5786,7.6498,7.7349,7.8162,7.8989,7.9918,8.0807,8.1349,8.1504,8.1504,8.1504,8.1504,8.1504,8.1504,8.1504,8.1504,8.1504,8.1504,8.1504,8.1504,8.1504,8.2238,8.2587,8.2625,8.336,8.3786,8.3902,8.3902,8.3979,8.4095,8.4095,8.4095,8.4095,8.4095,8.4095,8.4095,8.4095,8.4095,8.4211,8.4869,8.514,8.5256,8.5991,8.6223,8.6261,8.6377,8.6416,8.6416,8.6416,8.6416,8.6455,8.6571,8.661,8.661,8.661,8.661,8.661,8.661,8.661,8.661,8.661,8.6532,8.6467,8.6478,8.6323,8.6209,8.6209,8.6132,8.6671,8.8276,8.8598,8.9294,9.0864,9.1133,9.121,9.121,9.121,9.1133,9.1018,9.0175,8.9021,8.7473,8.6555,8.6094,8.6094,8.6094,8.6094,8.6094,8.5286,8.4824,8.467,8.3054,8.2247,7.0039,7.0893,7.1513,7.1513,7.2211,7.2861,7.2861,0.0,0.0,0.0,0.0,0.0,7.182,7.2134,7.2794,7.381,7.4145,7.4597,7.5494,7.5443,7.5797,7.7163,7.7968,7.8912,8.0188,8.1039,8.1504,8.1504,8.1504,8.1504,8.1504,8.1504,8.1504,8.1504,8.1504,8.1504,8.1504,8.1504,8.1736,8.22,8.2625,8.3051,8.3515,8.3902,8.4327,8.4753,8.4753,8.5024,8.5449,8.5449,8.5449,8.5449,8.5449,8.5449,8.5449,8.5449,8.5449,8.5488,8.5875,8.5991,8.6068,8.6455,8.661,8.661,8.661,8.661,8.661,8.661,8.661,8.661,8.661,8.661,8.661,8.661,8.661,8.661,8.661,8.661,8.661,8.661,8.6571,8.6532,8.6532,8.6423,8.6354,8.6242,8.617,8.6781,8.8469,8.8709,8.9332,9.1018,9.121,9.121,9.121,9.121,9.1018,9.0521,8.9713,8.8675,8.7435,8.6555,8.6094,8.6094,8.6094,8.6094,8.6094,8.5747,8.5324,8.4901,8.4093,8.3208,6.9246,7.0093,7.094,7.1844,0.0,7.3724,7.4131,0.0,0.0,0.0,0.0,0.0,7.2313,7.2685,7.3665,7.5347,7.5117,7.5078,7.5937,7.5555,7.5746,7.7243,7.8069,7.9089,8.0561,8.1233,8.1542,8.1504,8.1504,8.1504,8.1504,8.1504,8.1504,8.1504,8.1504,8.1504,8.1504,8.1697,8.2122,8.278,8.3012,8.3554,8.4405,8.4598,8.5024,8.5604,8.5604,8.5991,8.661,8.661,8.661,8.661,8.661,8.661,8.661,8.661,8.661,8.661,8.661,8.661,8.661,8.661,8.661,8.661,8.661,8.661,8.661,8.661,8.661,8.661,8.661,8.661,8.661,8.661,8.661,8.661,8.661,8.661,8.661,8.661,8.661,8.6571,8.6532,8.6532,8.6451,8.6293,8.6236,8.6819,8.8507,8.8709,8.9332,9.1018,9.121,9.121,9.121,9.121,9.0941,9.0252,8.9409,8.8598,8.7743,8.6896,8.6324,8.6094,8.6094,8.6094,8.6094,8.6094,8.5786,8.517,8.4978,8.417,7.0347,7.112,7.1959,7.2938,7.2507,0.0,7.387,7.3637,0.0,7.4129,0.0,0.0,7.3338,7.3238,7.3592,7.4531,7.5312,7.6094,7.6953,7.7617,7.8318,7.9216,7.9955,8.073,8.1514,8.1658,8.162,8.1504,8.1504,8.1504,8.1504,8.1504,8.1504,8.1504,8.1504,8.1504,8.1504,8.2316,8.2741,8.2819,8.3631,8.4443,8.5256,8.6068,8.6455,8.6532,8.6532,8.6532,8.661,8.661,8.661,8.661,8.661,8.661,8.661,8.661,8.661,8.661,8.661,8.661,8.661,8.661,8.661,8.661,8.661,8.661,8.661,8.661,8.661,8.661,8.661,8.661,8.661,8.661,8.661,8.661,8.661,8.661,8.661,8.661,8.661,8.661,8.661,8.6532,8.6494,8.6467,8.6323,8.6858,8.8584,8.8748,8.9332,9.1018,9.121,9.121,9.121,9.121,9.1171,9.1133,9.029,8.9479,8.8623,8.7743,8.6935,8.6132,8.6094,8.6094,8.6094,8.6094,8.6055,8.6017,8.5247,8.4824,6.9192,7.0883,7.2677,7.2541,0.0,0.0,0.0,0.0,7.4887,7.5272,7.5335,0.0,7.4256,7.4531,7.5039,7.5351,7.6133,7.6992,7.789,7.8242,7.8906,8.0273,8.0615,8.105,8.1889,8.1815,8.1697,8.162,8.1542,8.1504,8.1504,8.1504,8.1504,8.1504,8.1504,8.1504,8.1504,8.2355,8.3051,8.3631,8.4443,8.5294,8.6107,8.6455,8.661,8.661,8.661,8.661,8.661,8.661,8.661,8.661,8.661,8.661,8.661,8.661,8.661,8.661,8.661,8.661,8.661,8.661,8.661,8.661,8.661,8.661,8.661,8.661,8.661,8.661,8.661,8.661,8.661,8.661,8.661,8.661,8.661,8.661,8.661,8.661,8.661,8.661,8.661,8.6571,8.6571,8.6532,8.6423,8.6963,8.8579,8.8786,8.9371,9.1056,9.121,9.121,9.121,9.121,9.121,9.121,9.0367,8.956,8.8714,8.7863,8.7012,8.6132,8.6094,8.6094,8.6094,8.6094,8.6094,8.6094,8.5786,8.5401,6.9023,7.07,7.2471,0.0,0.0,0.0,0.0,7.5703,7.5664,7.6211,7.6094,7.5703,7.5117,7.5508,7.5898,7.5898,7.664,7.75,7.8398,7.8711,7.9414,8.082,8.1172,8.1484,8.2031,8.1928,8.1776,8.1722,8.162,8.1542,8.1504,8.1504,8.1504,8.1504,8.1504,8.162,8.1929,8.278,8.3631,8.4482,8.5333,8.6029,8.661,8.661,8.661,8.661,8.661,8.661,8.661,8.661,8.661,8.661,8.661,8.661,8.661,8.661,8.661,8.661,8.661,8.661,8.661,8.661,8.661,8.661,8.661,8.661,8.661,8.661,8.661,8.661,8.661,8.661,8.661,8.661,8.661,8.661,8.661,8.661,8.661,8.661,8.661,8.661,8.661,8.661,8.6571,8.6532,8.6532,8.7058,8.8622,8.8815,8.9409,9.1056,9.121,9.121,9.121,9.121,9.121,9.121,9.0636,8.9829,8.8756,8.8132,8.7281,8.6132,8.6094,8.6094,8.6094,8.6094,8.6094,8.6094,8.6094,8.5824,7.0234,7.0703,7.1133,0.0,0.0,0.0,7.5508,7.5234,7.5117,7.6836,7.6523,7.5898,7.5898,7.5898,7.5898,7.5898,7.664,7.7539,7.8398,7.9219,8.0039,8.0898,8.1758,8.2265,8.2109,8.2109,8.2007,8.1717,8.1697,8.1658,8.1504,8.1504,8.1504,8.1504,8.1504,8.1929,8.278,8.367,8.4482,8.5294,8.6184,8.661,8.661,8.661,8.661,8.661,8.661,8.661,8.661,8.661,8.661,8.661,8.661,8.661,8.661,8.661,8.661,8.661,8.661,8.661,8.661,8.661,8.661,8.661,8.661,8.661,8.661,8.661,8.661,8.661,8.661,8.661,8.661,8.661,8.661,8.661,8.661,8.661,8.661,8.661,8.661,8.661,8.661,8.661,8.661,8.661,8.6571,8.7074,8.8687,8.8868,8.9409,9.1056,9.121,9.121,9.121,9.121,9.121,9.121,9.121,9.0444,8.8794,8.8705,8.7858,8.6132,8.6094,8.6094,8.6094,8.6094,8.6094,8.6094,8.6094,8.6094,7.039,7.2031,0.0,7.332,0.0,0.0,0.0,7.5703,0.0,0.0,7.6992,7.664,7.6015,7.6406,7.6601,7.6015,7.7148,7.8398,7.9219,8.0078,8.0937,8.1797,8.2148,8.2265,8.2226,8.2148,8.2065,8.2007,8.1794,8.1697,8.1658,8.1542,8.1504,8.1504,8.1504,8.1929,8.278,8.367,8.4482,8.5294,8.6184,8.661,8.661,8.661,8.661,8.661,8.661,8.661,8.661,8.661,8.661,8.661,8.661,8.661,8.661,8.661,8.661,8.661,8.661,8.661,8.661,8.661,8.661,8.661,8.661,8.661,8.661,8.661,8.661,8.661,8.661,8.661,8.661,8.661,8.661,8.661,8.661,8.661,8.661,8.661,8.661,8.661,8.661,8.661,8.661,8.661,8.7112,8.8063,8.9607,9.0244,9.0713,9.1171,9.121,9.121,9.121,9.121,9.121,9.121,9.121,9.0444,8.8794,8.8705,8.7858,8.6132,8.6094,8.6094,8.6094,8.6094,8.6094,8.6094,8.6094,8.6094,7.1406,7.289,0.0,7.4297,7.5117,7.5976,7.6328,0.0,7.6562,7.7109,7.7187,7.7031,7.6523,7.6836,7.7031,7.6484,7.7578,7.8789,7.9609,8.0469,8.1328,8.2187,8.2304,8.2304,8.2304,8.2226,8.2148,8.2109,8.1958,8.1852,8.1799,8.1697,8.162,8.1581,8.1929,8.2509,8.3322,8.4134,8.4985,8.5836,8.6339,8.661,8.661,8.661,8.661,8.661,8.661,8.661,8.661,8.661,8.661,8.661,8.661,8.661,8.661,8.661,8.661,8.661,8.661,8.661,8.661,8.661,8.661,8.661,8.661,8.661,8.661,8.661,8.661,8.661,8.661,8.661,8.661,8.661,8.661,8.661,8.661,8.661,8.661,8.661,8.661,8.661,8.661,8.661,8.661,8.661,8.7615,8.8808,9.0063,9.0856,9.1287,9.1248,9.121,9.121,9.121,9.121,9.121,9.121,9.121,9.0559,8.9217,8.8897,8.8012,8.6632,8.6286,8.6094,8.6094,8.6094,8.6094,8.6094,8.6094,8.6094,7.2812,7.3437,7.3905,7.5507,7.5976,7.6211,7.6992,7.7187,7.7187,7.7187,7.7187,7.7187,7.7187,7.7187,7.7226,7.7305,7.8047,7.8906,7.9687,8.0586,8.1406,8.2226,8.2304,8.2304,8.2304,8.2304,8.2265,8.2148,8.2109,8.2053,8.1924,8.191,8.1848,8.1732,8.2573,8.336,8.4095,8.4908,8.5759,8.661,8.661,8.661,8.661,8.661,8.661,8.661,8.661,8.661,8.661,8.661,8.661,8.661,8.661,8.661,8.661,8.661,8.661,8.661,8.661,8.661,8.661,8.661,8.661,8.661,8.661,8.661,8.661,8.661,8.661,8.661,8.661,8.661,8.661,8.661,8.661,8.661,8.661,8.661,8.661,8.661,8.661,8.661,8.661,8.661,8.6648,8.6803,8.8091,8.9339,9.0295,9.0943,9.1322,9.1287,9.1248,9.121,9.121,9.121,9.121,9.121,9.121,9.0864,9.0059,8.9167,8.8282,8.744,8.6555,8.6094,8.6094,8.6094,8.6094,8.6094,8.6094,8.6094,7.2812,7.429,7.5438,7.579,7.6352,7.6907,7.7064,7.7103,7.7144,7.7187,7.7187,7.7186,7.7204,7.7195,7.7403,7.8047,7.8867,7.9726,8.0586,8.1484,8.2109,8.2265,8.2304,8.2304,8.2304,8.2304,8.2304,8.2265,8.2148,8.2106,8.2076,8.1972,8.189,8.1851,8.2605,8.3399,8.425,8.4946,8.5759,8.661,8.661,8.661,8.661,8.661,8.661,8.661,8.661,8.661,8.661,8.661,8.661,8.661,8.661,8.661,8.661,8.661,8.661,8.661,8.661,8.661,8.661,8.661,8.661,8.661,8.661,8.661,8.661,8.661,8.661,8.661,8.661,8.661,8.661,8.661,8.661,8.661,8.661,8.661,8.661,8.661,8.661,8.661,8.661,8.661,8.7074,8.8416,8.8942,8.9676,9.1135,9.1349,9.1354,9.1322,9.1248,9.121,9.121,9.121,9.121,9.121,9.121,9.1133,9.0941,8.9479,8.8286,8.744,8.6555,8.6094,8.6094,8.6094,8.6094,8.6094,8.6094,8.6094,7.3356,7.4591,7.5462,7.6281,7.68,7.7083,7.7083,7.7083,7.7126,7.7137,7.7142,7.7144,7.7165,7.7503,7.7893,7.8344,7.949,8.0469,8.0937,8.1758,8.2304,8.2304,8.2304,8.2304,8.2304,8.2304,8.2304,8.2304,8.2226,8.2187,8.2187,8.2125,8.2248,8.2606,8.341,8.4198,8.5011,8.5759,8.63,8.6687,8.6687,8.6648,8.661,8.661,8.661,8.661,8.661,8.661,8.661,8.661,8.661,8.661,8.661,8.661,8.661,8.661,8.661,8.661,8.661,8.661,8.661,8.661,8.661,8.661,8.661,8.661,8.661,8.661,8.661,8.661,8.661,8.661,8.661,8.661,8.661,8.661,8.661,8.661,8.661,8.661,8.661,8.661,8.661,8.6958,8.7681,8.9023,8.9549,9.0218,9.1484,9.1561,9.1484,9.136,9.1287,9.1248,9.121,9.121,9.121,9.121,9.121,9.121,9.121,8.9594,8.8479,8.8017,8.6748,8.6094,8.6094,8.6094,8.6094,8.6094,8.6094,8.6094,7.3736,7.4579,7.5188,7.6711,7.7101,7.7101,7.7101,7.7101,7.7101,7.7101,7.7083,7.7094,7.7094,7.782,7.8468,7.8585,7.9945,8.1054,8.1211,8.1836,8.2304,8.2304,8.2304,8.2304,8.2304,8.2304,8.2304,8.2304,8.2304,8.2304,8.2304,8.2304,8.2656,8.3398,8.4258,8.5083,8.5816,8.6606,8.6955,8.6815,8.6817,8.6726,8.661,8.661,8.661,8.661,8.661,8.661,8.661,8.661,8.661,8.661,8.661,8.661,8.661,8.661,8.661,8.661,8.661,8.661,8.661,8.661,8.661,8.661,8.661,8.661,8.661,8.661,8.661,8.661,8.661,8.661,8.661,8.661,8.661,8.661,8.661,8.661,8.661,8.661,8.661,8.661,8.661,8.7306,8.8222,8.9074,8.9898,9.0721,9.16,9.1638,9.1561,9.1399,9.1325,9.1287,9.121,9.121,9.121,9.121,9.121,9.121,9.121,8.9594,8.8748,8.8902,8.7055,8.617,8.6324,8.6324,8.6324,8.6324,8.6324,8.6247,7.3164,7.453,7.5852,7.6867,7.7101,7.7101,7.7101,7.7101,7.7101,7.7101,7.7107,7.7107,7.7107,7.7804,7.8663,7.9405,8.0347,8.127,8.2031,8.2226,8.2304,8.2304,8.2304,8.2304,8.2304,8.2304,8.2304,8.2304,8.2304,8.2304,8.2304,8.2304,8.2695,8.3554,8.4297,8.5127,8.5945,8.6685,8.6996,8.6981,8.6871,8.6726,8.661,8.661,8.661,8.661,8.661,8.661,8.661,8.661,8.661,8.661,8.661,8.661,8.661,8.661,8.661,8.661,8.661,8.661,8.661,8.661,8.661,8.661,8.661,8.661,8.661,8.661,8.661,8.661,8.661,8.661,8.661,8.661,8.661,8.661,8.661,8.661,8.661,8.661,8.661,8.661,8.661,8.7306,8.8196,8.9058,8.987,9.0721,9.16,9.1638,9.1561,9.1399,9.1325,9.1287,9.121,9.121,9.121,9.121,9.121,9.121,9.121,8.9594,8.9017,8.9748,8.7363,8.6478,8.7209,8.7209,8.7209,8.7209,8.7209,8.6824,7.3515,7.4915,7.6008,7.6867,7.7101,7.7101,7.7101,7.7101,7.7101,7.7101,7.7101,7.7101,7.7101,7.8194,7.9248,7.9639,8.0827,8.1855,8.2261,8.2304,8.2304,8.2304,8.2304,8.2304,8.2304,8.2304,8.2304,8.2304,8.2304,8.2304,8.2304,8.2304,8.2929,8.4297,8.4648,8.5463,8.6834,8.7147,8.7225,8.7102,8.6904,8.6764,8.6726,8.6648,8.661,8.661,8.661,8.661,8.661,8.661,8.661,8.661,8.661,8.661,8.661,8.661,8.661,8.661,8.661,8.661,8.661,8.661,8.661,8.661,8.661,8.661,8.661,8.661,8.661,8.661,8.661,8.661,8.661,8.661,8.661,8.661,8.661,8.661,8.661,8.661,8.661,8.661,8.661,8.7758,8.8764,8.9107,9.0295,9.129,9.1638,9.1677,9.162,9.1508,9.1418,9.1352,9.1241,9.1245,9.121,9.121,9.121,9.121,9.121,9.0017,8.9556,8.9902,8.7863,8.7248,8.8132,8.8132,8.8132,8.8132,8.7632,8.7171,7.3671,7.472,7.5423,7.6516,7.6789,7.6828,7.7062,7.7101,7.7101,7.7101,7.7101,7.7179,7.7375,7.8663,7.9756,7.999,8.1295,8.2289,8.2297,8.2304,8.2304,8.2304,8.2304,8.2304,8.2304,8.2304,8.2304,8.2304,8.2304,8.2304,8.2304,8.25,8.332,8.4844,8.5117,8.5976,8.75,8.75,8.7383,8.7187,8.6966,8.6815,8.6803,8.6648,8.661,8.661,8.661,8.661,8.661,8.661,8.661,8.661,8.661,8.661,8.661,8.661,8.661,8.661,8.661,8.661,8.661,8.661,8.661,8.661,8.661,8.661,8.661,8.661,8.661,8.661,8.661,8.661,8.661,8.661,8.661,8.661,8.661,8.661,8.661,8.661,8.661,8.6687,8.688,8.8184,8.9267,8.9483,9.0759,9.1716,9.1716,9.1716,9.1677,9.16,9.15,9.1413,9.1308,9.1241,9.1245,9.121,9.121,9.121,9.121,9.0364,9.0017,9.0248,8.8786,8.8363,8.8979,8.8979,8.8979,8.8979,8.8132,8.7594,7.3119,7.3393,7.3822,7.5462,7.5852,7.6086,7.6906,7.7101,7.7101,7.7101,7.7101,7.7335,7.8194,7.9092,7.9951,8.081,8.1708,8.2315,8.2304,8.2304,8.2304,8.2304,8.2304,8.2304,8.2304,8.2304,8.2304,8.2304,8.2304,8.2304,8.2304,8.3086,8.3945,8.4883,8.5703,8.6562,8.75,8.75,8.7383,8.7187,8.7078,8.6941,8.6803,8.6648,8.661,8.661,8.661,8.661,8.661,8.661,8.661,8.661,8.661,8.661,8.661,8.661,8.661,8.661,8.661,8.661,8.661,8.661,8.661,8.661,8.661,8.661,8.661,8.661,8.661,8.661,8.661,8.661,8.661,8.661,8.661,8.661,8.661,8.661,8.661,8.661,8.661,8.6842,8.7681,8.8571,8.9461,9.0218,9.1135,9.1716,9.1716,9.1716,9.1677,9.16,9.1561,9.1508,9.1308,9.1308,9.1275,9.121,9.121,9.121,9.121,9.0364,9.0287,9.1133,9.0248,8.9787,8.9863,8.9863,8.9863,8.9825,8.9017,8.8171,7.308,7.3315,7.3588,7.4681,7.5384,7.5891,7.6203,7.6711,7.7101,7.7101,7.7101,7.7531,7.8975,7.9483,7.999,8.0849,8.1747,8.2305,8.2297,8.2304,8.2304,8.2304,8.2304,8.2304,8.2304,8.2304,8.2304,8.2304,8.2304,8.2304,8.2304,8.3125,8.3984,8.4883,8.5742,8.6601,8.75,8.75,8.7461,8.7383,8.7213,8.7118,8.7035,8.6842,8.6726,8.6726,8.6648,8.661,8.661,8.661,8.661,8.661,8.661,8.661,8.661,8.661,8.661,8.661,8.661,8.661,8.661,8.661,8.661,8.661,8.661,8.661,8.661,8.661,8.661,8.661,8.661,8.661,8.661,8.661,8.661,8.661,8.661,8.661,8.661,8.661,8.661,8.688,8.7758,8.8621,8.9444,9.0295,9.1135,9.1716,9.1716,9.1716,9.1677,9.1677,9.1629,9.157,9.1508,9.1374,9.1275,9.1275,9.1206,9.121,9.121,9.0902,9.0902,9.121,9.0902,9.0748,9.0748,9.0748,9.0748,9.071,8.9863,8.9017,7.2729,7.2846,7.3041,7.39,7.4525,7.511,7.5657,7.6242,7.675,7.7023,7.7101,7.7648,7.9366,7.9717,8.0068,8.1239,8.1903,8.2299,8.232,8.2297,8.2304,8.2304,8.2304,8.2304,8.2304,8.2304,8.2304,8.2304,8.2304,8.2304,8.2304,8.3398,8.457,8.5742,8.6328,8.6914,8.75,8.75,8.75,8.75,8.7304,8.7219,8.7193,8.698,8.6863,8.6803,8.6726,8.6648,8.661,8.661,8.661,8.661,8.661,8.661,8.661,8.661,8.661,8.661,8.661,8.661,8.661,8.661,8.661,8.661,8.661,8.661,8.661,8.661,8.661,8.661,8.661,8.661,8.661,8.661,8.661,8.661,8.661,8.661,8.661,8.661,8.6842,8.7306,8.8184,8.9047,8.9908,9.0721,9.1329,9.1716,9.1716,9.1716,9.1716,9.1716,9.1659,9.1629,9.16,9.1438,9.1341,9.1308,9.1245,9.121,9.121,9.121,9.121,9.121,9.121,9.121,9.121,9.121,9.121,9.1171,9.0325,8.9325,0.0,0.0,0.0,7.3041,7.3275,7.3744,7.5345,7.5735,7.6008,7.6867,7.7062,7.7609,7.9366,7.9717,8.0263,8.202,8.2293,8.2293,8.2293,8.232,8.2297,8.2304,8.2304,8.2304,8.2304,8.2304,8.2304,8.2304,8.2304,8.2304,8.2344,8.3984,8.5742,8.7461,8.75,8.75,8.75,8.75,8.75,8.75,8.7304,8.7226,8.7187,8.7048,8.6921,8.6803,8.6803,8.6726,8.661,8.661,8.661,8.661,8.661,8.661,8.661,8.661,8.661,8.661,8.661,8.661,8.661,8.661,8.661,8.661,8.661,8.661,8.661,8.661,8.661,8.661,8.661,8.661,8.661,8.661,8.661,8.661,8.661,8.661,8.661,8.661,8.7306,8.8184,8.9035,8.9859,9.0682,9.1561,9.1716,9.1716,9.1716,9.1716,9.1716,9.1716,9.1716,9.1687,9.16,9.15,9.1368,9.1308,9.1241,9.121,9.121,9.121,9.121,9.121,9.121,9.121,9.121,9.121,9.121,9.1171,9.0325,8.9017,7.1987,0.0,0.0,0.0,0.0,0.0,7.39,7.4447,7.511,7.5969,7.6164,7.6867,7.9248,7.9717,8.0263,8.202,8.2293,8.2293,8.2293,8.2299,8.231,8.2315,8.23,8.2304,8.2304,8.2304,8.2304,8.2304,8.2304,8.2578,8.3203,8.4883,8.6367,8.7461,8.75,8.75,8.75,8.75,8.75,8.75,8.7422,8.7422,8.7422,8.7219,8.713,8.7074,8.688,8.6764,8.6726,8.6648,8.661,8.661,8.661,8.661,8.661,8.661,8.661,8.661,8.661,8.661,8.661,8.661,8.661,8.661,8.661,8.661,8.661,8.661,8.661,8.661,8.661,8.661,8.661,8.661,8.661,8.661,8.661,8.661,8.661,8.661,8.7306,8.8157,8.9058,8.987,9.0682,9.1561,9.1716,9.1716,9.1716,9.1716,9.1716,9.1716,9.1716,9.1716,9.1687,9.1561,9.15,9.1368,9.1308,9.1241,9.121,9.121,9.121,9.121,9.121,9.121,9.121,9.121,9.121,9.1171,9.0325,8.9325,0.0,0.0,7.1987,7.1987,0.0,0.0,7.3627,7.4173,7.4837,7.6086,7.632,7.7023,7.9287,7.9717,8.0263,8.202,8.2293,8.2293,8.2293,8.2293,8.2293,8.2293,8.2289,8.2304,8.2304,8.2304,8.2304,8.2304,8.2304,8.2851,8.4062,8.5469,8.6601,8.7461,8.75,8.75,8.75,8.75,8.75,8.75,8.75,8.75,8.75,8.7383,8.7264,8.7199,8.7041,8.688,8.6803,8.6764,8.6687,8.661,8.661,8.661,8.661,8.661,8.661,8.661,8.661,8.661,8.661,8.661,8.661,8.661,8.661,8.661,8.661,8.661,8.661,8.661,8.661,8.661,8.661,8.661,8.661,8.661,8.661,8.688,8.7151,8.7151,8.7874,8.8725,8.956,9.0373,9.1135,9.1638,9.1716,9.1716,9.1716,9.1716,9.1716,9.1716,9.1716,9.1716,9.1716,9.1629,9.157,9.15,9.1406,9.1308,9.1241,9.1241,9.1245,9.121,9.121,9.121,9.121,9.121,9.121,9.1171,9.0325,8.9671,0.0,0.0,0.0,7.1987,7.1987,0.0,7.3861,7.4212,7.4681,7.636,7.6672,7.7257,7.9053,7.9405,7.999,8.1747,8.2098,8.2176,8.2293,8.2293,8.2293,8.2293,8.2315,8.2297,8.2304,8.2304,8.2304,8.2304,8.2461,8.3281,8.4804,8.582,8.6719,8.7461,8.75,8.75,8.75,8.75,8.75,8.75,8.75,8.75,8.75,8.75,8.7383,8.7226,8.7206,8.7086,8.6842,8.6958,8.6842,8.661,8.661,8.661,8.661,8.661,8.661,8.661,8.661,8.661,8.661,8.661,8.661,8.661,8.661,8.661,8.661,8.661,8.661,8.661,8.661,8.661,8.661,8.661,8.661,8.6648,8.6726,8.7345,8.7952,8.8145,8.8803,8.9577,9.0256,9.1135,9.1716,9.1716,9.1716,9.1716,9.1716,9.1716,9.1716,9.1716,9.1716,9.1716,9.1716,9.1659,9.16,9.16,9.15,9.1406,9.1308,9.1308,9.1275,9.121,9.121,9.121,9.121,9.121,9.121,9.1171,9.0402,8.9979,7.2182,7.1987,7.1987,7.1987,7.1987,0.0,7.2417,7.2495,7.2768,7.3822,7.4056,7.4759,7.7179,7.7609,7.8194,7.9912,8.081,8.1513,8.2215,8.2293,8.2293,8.2293,8.2299,8.2281,8.2304,8.2304,8.2304,8.2304,8.3594,8.4531,8.4883,8.6406,8.7304,8.75,8.75,8.75,8.75,8.75,8.75,8.75,8.75,8.75,8.75,8.75,8.7461,8.7422,8.7288,8.717,8.7112,8.7035,8.6842,8.661,8.6726,8.6687,8.661,8.6726,8.6687,8.661,8.6726,8.6687,8.661,8.661,8.661,8.661,8.661,8.661,8.661,8.661,8.661,8.661,8.661,8.661,8.661,8.661,8.661,8.6803,8.7461,8.7797,8.83,8.9665,9.0024,9.0218,9.0373,9.1135,9.1716,9.1716,9.1716,9.1716,9.1716,9.1716,9.1716,9.1716,9.1716,9.1716,9.1716,9.1687,9.1659,9.16,9.157,9.147,9.1308,9.1308,9.1275,9.121,9.121,9.121,9.121,9.121,9.121,9.121,9.1018,9.0556,7.2221,7.1987,7.1987,7.1987,7.1987,0.0,0.0,7.2651,7.2885,7.3744,7.4251,7.5071,7.6789,7.7453,7.8194,7.9483,8.042,8.1005,8.1005,8.1747,8.2293,8.2293,8.2293,8.231,8.23,8.2304,8.2304,8.2304,8.3515,8.4453,8.4883,8.6133,8.7031,8.75,8.75,8.75,8.75,8.75,8.75,8.75,8.75,8.75,8.75,8.75,8.75,8.75,8.7383,8.7275,8.7181,8.7258,8.7071,8.6806,8.6867,8.6842,8.6803,8.688,8.6815,8.6738,8.6778,8.6726,8.661,8.661,8.661,8.661,8.661,8.661,8.661,8.661,8.661,8.661,8.661,8.661,8.661,8.661,8.661,8.6842,8.7719,8.8234,8.8903,9.014,9.0759,9.103,9.103,9.1406,9.1716,9.1716,9.1716,9.1716,9.1716,9.1716,9.1716,9.1716,9.1716,9.1716,9.1716,9.1716,9.1687,9.1659,9.1659,9.16,9.1438,9.1438,9.1374,9.1241,9.1245,9.121,9.121,9.121,9.121,9.121,9.121,9.0979,7.226,7.1987,7.1987,7.1987,7.1987,7.2182,0.0,0.0,0.0,7.4095,7.4837,7.5618,7.6672,7.7414,7.8116,7.8819,7.9834,8.0185,7.9326,8.0693,8.1786,8.1786,8.2098,8.2227,8.2058,8.2068,8.2109,8.2304,8.2969,8.3789,8.4844,8.5742,8.6601,8.7461,8.75,8.75,8.75,8.75,8.75,8.75,8.75,8.75,8.75,8.75,8.75,8.75,8.75,8.7422,8.7264,8.7448,8.733,8.7078,8.704,8.701,8.6994,8.7049,8.6948,8.6806,8.6815,8.6726,8.661,8.661,8.661,8.661,8.661,8.661,8.661,8.661,8.661,8.661,8.661,8.661,8.661,8.661,8.6726,8.7074,8.7952,8.8814,8.9676,9.0489,9.1213,9.1716,9.1716,9.1716,9.1716,9.1716,9.1716,9.1716,9.1716,9.1716,9.1716,9.1716,9.1716,9.1716,9.1716,9.1716,9.1716,9.1716,9.1716,9.1687,9.16,9.157,9.147,9.1308,9.1241,9.121,9.121,9.121,9.121,9.121,9.121,9.121,7.2417,7.1987,7.1987,7.1987,7.1987,7.2026,7.2143,0.0,7.2378,7.3275,0.0,7.4056,7.5657,0.0,0.0,7.6242,7.7609,7.839,7.7531,7.8897,7.999,7.999,8.1356,8.1993,8.1237,8.1131,8.1484,8.2226,8.2383,8.3164,8.4804,8.5742,8.6601,8.7461,8.75,8.75,8.75,8.75,8.75,8.75,8.75,8.75,8.75,8.75,8.75,8.75,8.75,8.75,8.7461,8.7495,8.7479,8.7429,8.7264,8.7112,8.7005,8.7134,8.7026,8.6806,8.6931,8.6803,8.661,8.661,8.661,8.661,8.661,8.661,8.661,8.661,8.661,8.661,8.661,8.661,8.661,8.661,8.719,8.799,8.8841,8.9704,9.0527,9.1406,9.1638,9.1716,9.1716,9.1716,9.1716,9.1716,9.1716,9.1716,9.1716,9.1716,9.1716,9.1716,9.1716,9.1716,9.1716,9.1716,9.1716,9.1716,9.1716,9.1687,9.16,9.15,9.1368,9.1308,9.1308,9.1241,9.121,9.121,9.121,9.121,9.121,9.121,7.2101,7.2197,7.2478,7.2099,7.2378,7.2768,7.2768,7.2768,7.3002,7.3822,0.0,0.0,0.0,0.0,0.0,0.0,7.757,7.8116,7.7218,7.8585,7.9717,7.9717,8.0341,8.0866,8.0973,8.1015,8.1367,8.2226,8.1836,8.2539,8.4765,8.5234,8.6094,8.7461,8.75,8.75,8.75,8.75,8.75,8.75,8.75,8.75,8.75,8.75,8.75,8.75,8.75,8.75,8.75,8.75,8.7495,8.7504,8.7418,8.7336,8.7297,8.7341,8.7222,8.7041,8.7088,8.6996,8.6803,8.6726,8.6648,8.661,8.661,8.661,8.661,8.661,8.661,8.661,8.661,8.661,8.6726,8.7228,8.7642,8.8261,8.9588,9.0168,9.0643,9.1522,9.1716,9.1716,9.1716,9.1716,9.1716,9.1716,9.1716,9.1716,9.1716,9.1716,9.1716,9.1716,9.1716,9.1716,9.1716,9.1716,9.1716,9.1716,9.1716,9.1687,9.1659,9.1561,9.15,9.147,9.1374,9.1275,9.1241,9.1245,9.121,9.121,9.121,9.121,7.2238,7.2432,7.2756,7.2023,7.2565,7.3204,7.3204,7.342,7.3861,7.4681,7.5345,0.0,0.0,0.0,7.7023,7.6789,0.0,7.7726,7.6867,7.8038,7.8975,7.8975,7.9209,7.9699,8.0545,8.0429,8.0781,8.1875,8.1133,8.1875,8.4765,8.4883,8.5703,8.7422,8.75,8.75,8.75,8.75,8.75,8.75,8.75,8.75,8.75,8.75,8.75,8.75,8.75,8.75,8.75,8.75,8.75,8.75,8.75,8.75,8.75,8.75,8.7377,8.7196,8.7187,8.7103,8.7003,8.6894,8.6764,8.6648,8.6648,8.6648,8.661,8.661,8.661,8.661,8.661,8.6764,8.7112,8.7758,8.8261,8.8931,9.014,9.0566,9.0914,9.16,9.1716,9.1716,9.1716,9.1716,9.1716,9.1716,9.1716,9.1716,9.1716,9.1716,9.1716,9.1716,9.1716,9.1716,9.1716,9.1716,9.1716,9.1716,9.1716,9.1716,9.1716,9.1659,9.1629,9.16,9.1438,9.1341,9.1308,9.1241,9.1245,9.121,9.121,9.121,7.3113,7.2685,7.253,7.173,7.2276,7.2997,7.2997,7.3774,7.472,7.5579,7.5774,7.6047,7.6906,7.7062,7.6828,0.0,7.6555,0.0,0.0,7.6633,7.7179,7.7179,7.7921,7.8791,7.9675,7.9022,7.9258,8.0937,8.0234,8.125,8.4726,8.4883,8.5703,8.7422,8.75,8.75,8.75,8.75,8.75,8.75,8.75,8.75,8.75,8.75,8.75,8.75,8.75,8.75,8.75,8.75,8.75,8.75,8.75,8.75,8.75,8.75,8.7382,8.7182,8.7203,8.7117,8.6981,8.6979,8.688,8.6803,8.6803,8.6687,8.661,8.661,8.661,8.661,8.661,8.7228,8.7874,8.7913,8.9124,9.0334,9.0373,9.103,9.1677,9.1677,9.1716,9.1716,9.1716,9.1716,9.1716,9.1716,9.1716,9.1716,9.1716,9.1716,9.1716,9.1716,9.1716,9.1716,9.1716,9.1716,9.1716,9.1716,9.1716,9.1716,9.1716,9.1716,9.1687,9.16,9.16,9.147,9.1308,9.1308,9.1241,9.121,9.121,9.121,7.3485,7.3798,7.4033,7.3333,7.3845,7.4514,7.4514,7.4898,7.5455,7.6274,7.656,7.675,7.7062,7.7101,7.6984,7.6711,7.6906,7.6984,0.0,7.6906,7.7101,7.7101,7.7882,7.8518,7.8816,7.9139,7.9765,8.0898,8.0742,8.1836,8.4726,8.4883,8.5703,8.7422,8.75,8.75,8.75,8.75,8.75,8.75,8.75,8.75,8.75,8.75,8.75,8.75,8.75,8.75,8.75,8.75,8.75,8.75,8.75,8.75,8.75,8.75,8.7461,8.7382,8.7408,8.7279,8.7118,8.7151,8.6987,8.6782,8.6804,8.6726,8.661,8.661,8.6996,8.7461,8.7461,8.8106,8.888,8.9433,8.9986,9.0566,9.1135,9.1484,9.1716,9.1716,9.1716,9.1716,9.1716,9.1716,9.1716,9.1716,9.1716,9.1716,9.1716,9.1716,9.1716,9.1716,9.1716,9.1716,9.1716,9.1716,9.1716,9.1716,9.1716,9.1716,9.1716,9.1716,9.1687,9.1687,9.1629,9.157,9.1508,9.1374,9.1275,9.1275,9.1245,9.121,7.4115,7.4706,7.518,7.4431,7.5157,7.6032,7.5721,7.6022,7.6469,7.6754,7.6897,7.7028,7.7095,7.7101,7.7101,7.7101,7.7101,7.7101,0.0,7.7101,7.7101,7.7101,7.7609,7.8049,7.8386,7.8631,7.9297,8.0469,8.0547,8.1523,8.3867,8.457,8.5547,8.6992,8.7344,8.75,8.75,8.75,8.75,8.75,8.75,8.75,8.75,8.75,8.75,8.75,8.75,8.75,8.75,8.75,8.75,8.75,8.75,8.75,8.75,8.75,8.75,8.75,8.75,8.7422,8.7304,8.7304,8.7157,8.6936,8.694,8.6842,8.6803,8.7074,8.7565,8.8029,8.8273,8.8969,8.9743,9.0256,9.0643,9.0991,9.16,9.1716,9.1716,9.1716,9.1716,9.1716,9.1716,9.1716,9.1716,9.1716,9.1716,9.1716,9.1716,9.1716,9.1716,9.1716,9.1716,9.1716,9.1716,9.1716,9.1716,9.1716,9.1716,9.1716,9.1716,9.1716,9.1561,9.1251,9.1504,9.1475,9.1136,9.1322,9.1374,9.1308,9.1241,9.1245]},{"header":{"parameterUnit":"m.s-1","parameterCategory":1,"la1":30.6,"la2":29.2853,"lo1":-89.7004,"lo2":-87.6739,"dy":0.0162,"dx":0.0183,"nx":112,"ny":82,"refTime":"2023-03-09T06:00:00:Z","depth":0,"parameterNumber":3,"parameterNumberName":"V-component_of_WINDS"},"data":[0.0,0.0,0.0,0.0,0.0,0.0,0.0,0.0,0.0,0.0,0.0,0.0,0.0,0.0,0.0,0.0,0.0,0.0,0.0,0.0,0.0,0.0,0.0,0.0,0.0,0.0,0.0,0.0,0.0,0.0,0.0,0.0,0.0,0.0,0.0,0.0,0.0,0.0,0.0,0.0,0.0,0.0,0.0,0.0,0.0,0.0,0.0,0.0,0.0,0.0,0.0,0.0,0.0,0.0,0.0,0.0,0.0,0.0,0.0,0.0,0.0,0.0,0.0,0.0,0.0,0.0,0.0,0.0,0.0,0.0,0.0,0.0,0.0,0.0,0.0,0.0,0.0,0.0,0.0,0.0,0.0,0.0,0.0,0.0,0.0,0.0,0.0,0.0,0.0,0.0,-1.3403,-1.3403,-1.3403,-1.3403,-1.3403,-1.3403,-1.3403,-1.3403,0.0,0.0,0.0,0.0,0.0,0.0,0.0,0.0,0.0,0.0,0.0,0.0,0.0,0.0,0.0,0.0,0.0,0.0,0.0,0.0,0.0,0.0,0.0,0.0,0.0,0.0,0.0,0.0,0.0,0.0,0.0,0.0,0.0,0.0,0.0,0.0,0.0,0.0,0.0,0.0,0.0,0.0,0.0,0.0,0.0,0.0,0.0,0.0,0.0,0.0,0.0,0.0,0.0,0.0,0.0,0.0,0.0,0.0,0.0,0.0,0.0,0.0,0.0,0.0,0.0,0.0,0.0,0.0,0.0,0.0,0.0,0.0,0.0,0.0,0.0,0.0,0.0,0.0,0.0,0.0,0.0,0.0,0.0,0.0,0.0,0.0,0.0,0.0,0.0,0.0,0.0,0.0,0.0,0.0,0.0,0.0,0.0,0.0,0.0,0.0,0.0,0.0,0.0,0.0,-1.3403,-1.3403,-1.3403,-1.3403,-1.3403,-1.3403,-1.3403,-1.3403,0.0,0.0,0.0,0.0,0.0,0.0,0.0,0.0,0.0,0.0,0.0,0.0,0.0,0.0,0.0,0.0,0.0,0.0,0.0,0.0,0.0,0.0,0.0,0.0,0.0,0.0,0.0,0.0,0.0,0.0,0.0,0.0,0.0,0.0,0.0,0.0,0.0,0.0,0.0,0.0,0.0,0.0,0.0,0.0,0.0,0.0,0.0,0.0,0.0,0.0,0.0,0.0,0.0,0.0,0.0,0.0,0.0,0.0,0.0,0.0,0.0,0.0,0.0,0.0,0.0,0.0,0.0,0.0,0.0,0.0,0.0,0.0,0.0,0.0,0.0,0.0,0.0,0.0,0.0,0.0,0.0,0.0,0.0,0.0,0.0,0.0,0.0,0.0,0.0,0.0,0.0,0.0,0.0,0.0,0.0,0.0,0.0,0.0,0.0,0.0,0.0,0.0,0.0,-1.3403,-1.3403,-1.3403,-1.3403,-1.3403,-1.3403,-1.3403,-1.3403,-1.3403,-1.4217,0.0,0.0,0.0,0.0,0.0,0.0,0.0,0.0,0.0,0.0,0.0,0.0,0.0,0.0,0.0,0.0,0.0,0.0,0.0,0.0,0.0,0.0,0.0,0.0,0.0,0.0,0.0,0.0,0.0,0.0,0.0,0.0,0.0,0.0,0.0,0.0,0.0,0.0,0.0,0.0,0.0,0.0,0.0,0.0,0.0,0.0,0.0,0.0,0.0,0.0,0.0,0.0,0.0,0.0,0.0,0.0,0.0,0.0,0.0,0.0,0.0,0.0,0.0,0.0,0.0,0.0,0.0,0.0,0.0,0.0,0.0,0.0,0.0,0.0,0.0,0.0,0.0,0.0,0.0,0.0,0.0,0.0,0.0,0.0,0.0,0.0,0.0,0.0,0.0,0.0,0.0,0.0,0.0,0.0,0.0,0.0,0.0,0.0,0.0,0.0,0.0,0.0,-1.3403,-1.3403,-1.3403,-1.3403,-1.3403,-1.3403,-1.3403,-1.3403,-1.3403,-1.3403,0.0,0.0,0.0,0.0,0.0,0.0,0.0,0.0,0.0,0.0,0.0,0.0,0.0,0.0,0.0,0.0,0.0,0.0,0.0,0.0,0.0,0.0,0.0,0.0,0.0,0.0,0.0,0.0,0.0,0.0,0.0,0.0,0.0,0.0,0.0,0.0,0.0,0.0,0.0,0.0,0.0,0.0,0.0,0.0,0.0,0.0,0.0,0.0,0.0,0.0,0.0,0.0,0.0,0.0,0.0,0.0,0.0,0.0,0.0,0.0,0.0,0.0,0.0,0.0,0.0,0.0,0.0,0.0,0.0,0.0,0.0,0.0,0.0,0.0,0.0,0.0,0.0,0.0,0.0,0.0,0.0,0.0,0.0,0.0,0.0,0.0,0.0,0.0,0.0,0.0,0.0,0.0,0.0,0.0,0.0,0.0,0.0,0.0,0.0,0.0,0.0,0.0,-1.3403,-1.3403,-1.3403,-1.3403,-1.3403,-1.3403,-1.3403,-1.3403,-1.3403,-1.3403,0.0,0.0,0.0,0.0,0.0,0.0,0.0,0.0,0.0,0.0,0.0,0.0,0.0,0.0,0.0,0.0,0.0,0.0,0.0,0.0,0.0,0.0,0.0,0.0,0.0,0.0,0.0,0.0,0.0,0.0,0.0,0.0,0.0,0.0,0.0,0.0,0.0,0.0,0.0,0.0,0.0,0.0,0.0,0.0,0.0,0.0,0.0,0.0,0.0,0.0,0.0,0.0,0.0,0.0,0.0,0.0,0.0,0.0,0.0,0.0,0.0,0.0,0.0,0.0,0.0,0.0,0.0,0.0,0.0,0.0,0.0,0.0,0.0,0.0,0.0,0.0,0.0,0.0,0.0,0.0,0.0,0.0,0.0,0.0,0.0,0.0,0.0,0.0,0.0,0.0,0.0,0.0,0.0,0.0,0.0,0.0,0.0,0.0,0.0,0.0,0.0,0.0,-1.3403,-1.3403,-1.3403,-1.3403,-1.3403,-1.3403,-1.3403,-1.3403,-1.3403,0.0,0.0,0.0,0.0,0.0,0.0,0.0,0.0,0.0,0.0,0.0,0.0,0.0,0.0,0.0,0.0,0.0,0.0,0.0,0.0,0.0,0.0,0.0,0.0,0.0,0.0,0.0,0.0,0.0,0.0,0.0,0.0,0.0,0.0,0.0,0.0,0.0,0.0,0.0,0.0,0.0,0.0,0.0,0.0,0.0,0.0,0.0,0.0,0.0,0.0,0.0,0.0,0.0,0.0,0.0,0.0,0.0,0.0,0.0,0.0,0.0,0.0,0.0,0.0,0.0,0.0,0.0,0.0,0.0,0.0,0.0,0.0,0.0,0.0,0.0,0.0,0.0,0.0,0.0,0.0,0.0,0.0,0.0,0.0,0.0,0.0,0.0,0.0,0.0,0.0,0.0,0.0,0.0,0.0,0.0,0.0,0.0,0.0,0.0,0.0,0.0,0.0,-1.3403,-1.3403,-1.3403,-1.3403,-1.3403,-1.3403,-1.3403,-1.3403,-1.3403,-1.3403,0.0,0.0,0.0,0.0,0.0,0.0,0.0,0.0,0.0,0.0,0.0,0.0,0.0,0.0,0.0,0.0,0.0,0.0,0.0,0.0,0.0,0.0,0.0,0.0,0.0,0.0,0.0,0.0,0.0,0.0,0.0,0.0,0.0,0.0,0.0,0.0,0.0,0.0,0.0,0.0,0.0,0.0,0.0,0.0,0.0,0.0,0.0,0.0,0.0,0.0,0.0,0.0,0.0,0.0,0.0,0.0,0.0,0.0,0.0,0.0,0.0,0.0,0.0,0.0,0.0,0.0,0.0,0.0,0.0,0.0,0.0,0.0,0.0,0.0,0.0,0.0,0.0,0.0,0.0,0.0,0.0,0.0,0.0,0.0,0.0,0.0,0.0,0.0,0.0,0.0,0.0,0.0,0.0,0.0,0.0,0.0,0.0,0.0,0.0,0.0,0.0,0.0,-1.3403,-1.3403,-1.3403,-1.3403,-1.3403,-1.3403,-1.3403,-1.3403,-1.3403,0.0,0.0,0.0,0.0,0.0,0.0,0.0,0.0,0.0,0.0,0.0,0.0,0.0,0.0,0.0,0.0,0.0,0.0,0.0,0.0,0.0,0.0,0.0,0.0,0.0,0.0,0.0,0.0,0.0,0.0,0.0,0.0,0.0,0.0,0.0,0.0,0.0,0.0,0.0,0.0,0.0,0.0,0.0,0.0,0.0,0.0,0.0,0.0,0.0,0.0,0.0,0.0,0.0,0.0,0.0,0.0,0.0,0.0,0.0,0.0,0.0,0.0,0.0,0.0,0.0,0.0,0.0,0.0,0.0,0.0,0.0,0.0,0.0,0.0,0.0,0.0,0.0,0.0,0.0,0.0,0.0,0.0,0.0,0.0,0.0,0.0,0.0,0.0,0.0,0.0,0.0,0.0,0.0,0.0,0.0,0.0,0.0,0.0,0.0,0.0,0.0,0.0,0.0,-1.3403,-1.3403,-1.3403,-1.3403,-1.3403,-1.3403,-1.3403,-1.3403,-1.3403,-1.3403,0.0,0.0,0.0,0.0,0.0,0.0,0.0,0.0,0.0,0.0,0.0,0.0,0.0,0.0,0.0,0.0,0.0,0.0,0.0,0.0,0.0,0.0,0.0,0.0,0.0,0.0,0.0,0.0,0.0,0.0,0.0,0.0,0.0,0.0,0.0,0.0,0.0,0.0,0.0,0.0,0.0,0.0,0.0,0.0,0.0,0.0,0.0,0.0,0.0,0.0,0.0,0.0,0.0,0.0,0.0,0.0,0.0,0.0,0.0,0.0,0.0,0.0,0.0,0.0,0.0,0.0,0.0,0.0,0.0,0.0,0.0,0.0,0.0,0.0,0.0,0.0,0.0,0.0,0.0,0.0,0.0,0.0,0.0,0.0,0.0,0.0,0.0,0.0,0.0,0.0,0.0,0.0,0.0,0.0,0.0,0.0,0.0,0.0,0.0,0.0,0.0,0.0,-1.3403,-1.3403,-1.3403,-1.3403,-1.3403,-1.3403,-1.3403,-1.3403,-1.3403,-1.3403,0.0,0.0,0.0,0.0,0.0,0.0,0.0,0.0,0.0,0.0,0.0,0.0,0.0,0.0,0.0,0.0,0.0,0.0,0.0,0.0,0.0,0.0,0.0,0.0,0.0,0.0,0.0,0.0,0.0,0.0,0.0,0.0,0.0,0.0,0.0,0.0,0.0,0.0,0.0,0.0,0.0,0.0,0.0,0.0,0.0,0.0,0.0,0.0,0.0,0.0,0.0,0.0,0.0,0.0,0.0,0.0,0.0,0.0,0.0,0.0,0.0,0.0,0.0,0.0,0.0,0.0,0.0,0.0,0.0,0.0,0.0,0.0,0.0,0.0,0.0,0.0,0.0,0.0,0.0,0.0,0.0,0.0,0.0,0.0,0.0,0.0,0.0,0.0,0.0,0.0,0.0,0.0,0.0,0.0,0.0,0.0,0.0,0.0,0.0,0.0,0.0,0.0,-1.3403,-1.3403,-1.3403,-1.3403,-1.3403,-1.3403,-1.3403,-1.3403,-1.3403,-1.3403,0.0,0.0,0.0,0.0,0.0,0.0,0.0,0.0,0.0,0.0,0.0,0.0,0.0,0.0,0.0,0.0,0.0,0.0,0.0,0.0,0.0,0.0,0.0,0.0,0.0,0.0,0.0,0.0,0.0,0.0,0.0,0.0,0.0,0.0,0.0,0.0,0.0,0.0,0.0,0.0,0.0,0.0,0.0,0.0,0.0,0.0,0.0,0.0,0.0,0.0,0.0,0.0,0.0,0.0,0.0,0.0,0.0,0.0,0.0,0.0,-1.1823,-1.2102,0.0,0.0,0.0,0.0,0.0,0.0,0.0,0.0,0.0,0.0,0.0,0.0,0.0,0.0,0.0,0.0,0.0,0.0,0.0,0.0,0.0,0.0,0.0,0.0,0.0,0.0,0.0,0.0,0.0,0.0,0.0,0.0,0.0,0.0,0.0,0.0,0.0,0.0,0.0,0.0,-1.3403,-1.3403,-1.3403,-1.3403,-1.3403,-1.3403,-1.3403,-1.3403,-1.3403,-1.3403,-1.3403,0.0,0.0,0.0,0.0,0.0,0.0,0.0,0.0,0.0,0.0,0.0,0.0,0.0,0.0,0.0,0.0,0.0,0.0,0.0,0.0,0.0,0.0,0.0,0.0,0.0,0.0,0.0,0.0,0.0,0.0,0.0,0.0,0.0,0.0,0.0,0.0,0.0,0.0,0.0,0.0,0.0,0.0,0.0,0.0,0.0,0.0,0.0,0.0,0.0,0.0,0.0,0.0,0.0,0.0,0.0,0.0,0.0,0.0,0.0,-1.1519,-1.1779,0.0,0.0,0.0,0.0,0.0,0.0,0.0,0.0,0.0,0.0,0.0,0.0,0.0,0.0,0.0,0.0,0.0,0.0,0.0,0.0,0.0,0.0,0.0,0.0,0.0,0.0,0.0,0.0,0.0,0.0,0.0,0.0,0.0,0.0,0.0,0.0,0.0,0.0,0.0,0.0,-1.3403,-1.3403,-1.3403,-1.3403,-1.3403,-1.3403,-1.3403,-1.3403,-1.3403,-1.3403,-1.3403,0.0,0.0,0.0,0.0,0.0,0.0,0.0,0.0,0.0,0.0,0.0,0.0,0.0,0.0,0.0,0.0,0.0,0.0,0.0,0.0,0.0,0.0,0.0,0.0,0.0,0.0,0.0,0.0,0.0,0.0,0.0,0.0,0.0,0.0,0.0,0.0,0.0,0.0,0.0,0.0,0.0,0.0,0.0,0.0,0.0,0.0,0.0,0.0,0.0,0.0,0.0,0.0,0.0,-1.1374,-1.138,-1.1385,-1.1403,-1.1253,-1.093,-1.1415,-1.1499,-1.1531,-1.1988,0.0,0.0,0.0,0.0,0.0,0.0,0.0,0.0,0.0,0.0,0.0,0.0,0.0,0.0,0.0,0.0,0.0,0.0,0.0,0.0,0.0,0.0,-1.3037,-1.3329,-1.3403,-1.3403,-1.3403,0.0,0.0,0.0,0.0,0.0,0.0,0.0,0.0,0.0,0.0,0.0,-1.3403,-1.3403,-1.3403,-1.3403,-1.3403,-1.3403,-1.3403,-1.3403,-1.3403,-1.3403,-1.3403,-1.3403,0.0,0.0,0.0,0.0,0.0,0.0,0.0,0.0,0.0,0.0,0.0,0.0,0.0,0.0,0.0,0.0,0.0,0.0,0.0,0.0,0.0,0.0,0.0,0.0,0.0,0.0,0.0,0.0,0.0,0.0,0.0,0.0,-0.9625,-1.0142,0.0,0.0,0.0,0.0,0.0,0.0,0.0,0.0,0.0,0.0,0.0,0.0,0.0,-1.1647,-1.1647,-1.1183,-1.1028,-1.1028,-1.0812,-1.0699,-1.0699,-1.081,-1.0854,-1.0688,-1.1186,0.0,-1.18,-1.2173,0.0,0.0,0.0,0.0,0.0,0.0,0.0,0.0,0.0,0.0,0.0,0.0,0.0,0.0,0.0,0.0,0.0,0.0,0.0,0.0,0.0,0.0,-1.3037,-1.3329,-1.3403,-1.3403,-1.3403,-1.3403,-1.3403,-1.3403,-1.3403,-1.3403,0.0,0.0,0.0,0.0,0.0,0.0,-1.3403,-1.3403,-1.3403,-1.3403,-1.3403,-1.3403,-1.3403,-1.3403,-1.3403,-1.3403,-1.3403,-1.3403,-1.3403,-1.3403,0.0,0.0,0.0,0.0,0.0,0.0,0.0,0.0,0.0,0.0,0.0,0.0,0.0,0.0,0.0,0.0,0.0,0.0,0.0,0.0,0.0,0.0,0.0,0.0,0.0,0.0,0.0,0.0,0.0,-0.9885,-0.9944,-1.0304,-1.0826,-1.11,0.0,0.0,0.0,0.0,0.0,0.0,0.0,0.0,0.0,-1.0782,-1.0901,-1.0964,-1.0964,-1.0874,-1.0913,-1.0913,-1.0634,-1.0655,-1.0661,-1.0715,-1.0737,-1.0737,-1.1231,-1.1866,-1.2307,-1.2325,-1.2747,-1.3051,0.0,0.0,0.0,0.0,-1.2861,-1.2854,-1.2779,-1.2759,-1.2759,-1.2759,0.0,0.0,0.0,0.0,0.0,0.0,0.0,-1.2684,-1.2901,-1.3024,-1.3132,-1.3349,-1.3403,-1.3403,-1.3403,-1.3403,-1.3403,-1.3403,-1.3403,-1.3403,-1.3403,-1.3403,0.0,0.0,0.0,-1.3403,-1.3403,-1.3403,-1.3403,-1.3403,-1.3403,-1.3403,-1.3403,-1.3403,-1.3403,-1.3403,-1.3403,-1.3403,-1.3403,-1.3403,-1.3403,0.0,0.0,0.0,0.0,0.0,0.0,0.0,0.0,0.0,0.0,0.0,0.0,0.0,0.0,0.0,0.0,0.0,0.0,0.0,0.0,0.0,0.0,0.0,0.0,0.0,0.0,0.0,0.0,-0.9837,-1.009,-1.0562,-1.0353,-1.0024,0.0,0.0,0.0,0.0,0.0,0.0,-1.1048,-1.0844,-1.0751,-1.0265,-1.0541,-1.0601,-1.0436,-1.0693,-1.0737,-1.0737,-1.0737,-1.0737,-1.0737,-1.0737,-1.0737,-1.0732,-1.1225,-1.173,-1.2395,-1.2578,-1.2787,-1.301,-1.2976,-1.2963,-1.2963,-1.2963,-1.2963,-1.2963,-1.2963,-1.2963,-1.2963,-1.2963,-1.2963,-1.2963,-1.2963,0.0,0.0,0.0,0.0,-1.2827,-1.2976,-1.3091,-1.3214,-1.3363,-1.3403,-1.3403,-1.3403,-1.3403,-1.3403,-1.3403,-1.3403,-1.3403,-1.3403,-1.3403,0.0,-1.3403,-1.3403,-1.3403,-1.3403,-1.3403,-1.3403,-1.3403,-1.3403,-1.3403,-1.3403,-1.3403,-1.3403,-1.3403,-1.3403,-1.3403,-1.3403,-1.3403,-1.3403,-1.3403,0.0,0.0,0.0,0.0,0.0,0.0,0.0,0.0,0.0,0.0,0.0,0.0,0.0,0.0,0.0,0.0,0.0,0.0,0.0,0.0,0.0,0.0,0.0,0.0,0.0,0.0,0.0,0.0,0.0,-1.0653,-1.0226,0.0,0.0,0.0,0.0,-1.0019,-1.004,-1.0212,-1.0706,-1.0487,-1.0378,-1.0378,-1.0661,-1.0726,-1.0726,-1.0732,-1.0737,-1.0737,-1.0737,-1.0737,-1.0737,-1.0737,-1.0732,-1.0721,-1.0715,-1.1214,-1.221,-1.29,-1.3166,-1.3146,-1.3017,-1.2963,-1.2963,-1.2963,-1.2963,-1.2963,-1.2963,-1.2963,-1.2963,-1.2963,-1.2963,-1.2963,-1.2963,-1.2956,0.0,0.0,-1.2942,-1.2983,-1.3125,-1.3166,-1.3214,-1.3363,-1.3403,-1.3403,-1.3403,-1.3403,-1.3403,-1.3403,-1.3403,-1.3403,-1.3403,0.0,-1.3403,-1.3403,-1.3403,-1.3403,-1.3403,-1.3403,-1.3403,-1.3403,-1.3403,-1.3403,-1.3403,-1.3403,-1.3403,-1.3403,-1.3403,-1.3403,-1.3403,-1.3403,-1.3403,-1.3403,-1.5028,0.0,0.0,0.0,0.0,0.0,0.0,0.0,0.0,0.0,0.0,0.0,0.0,0.0,0.0,0.0,0.0,0.0,0.0,0.0,0.0,0.0,0.0,0.0,0.0,0.0,0.0,0.0,0.0,-1.0634,-1.0346,0.0,-0.9998,-1.0318,-1.0501,-1.0378,-1.0454,-1.0492,-1.0661,-1.0606,-1.0672,-1.0672,-1.0715,-1.0737,-1.0737,-1.0737,-1.0737,-1.0737,-1.0737,-1.0737,-1.0737,-1.0737,-1.0737,-1.0732,-1.1914,-1.2593,-1.2925,-1.3197,-1.3329,-1.3315,-1.3261,-1.3247,-1.3247,-1.3247,-1.3247,-1.3247,-1.3247,-1.3247,-1.3247,-1.3247,-1.3247,-1.3227,-1.3295,-1.326,-1.3078,-1.299,-1.3024,-1.3112,-1.3159,-1.3247,-1.3336,-1.339,-1.3403,-1.3403,-1.3403,-1.3403,-1.3403,-1.3403,-1.3403,-1.3403,-1.3403,-1.3403,-1.3403,-1.3403,-1.3403,-1.3403,-1.3403,-1.3403,-1.3403,-1.3403,-1.3403,-1.3403,-1.3403,-1.3403,-1.3403,-1.3403,-1.3403,-1.3403,-1.3403,-1.3403,-1.3403,-1.3403,-1.4052,-1.5358,0.0,0.0,0.0,0.0,0.0,0.0,0.0,0.0,0.0,0.0,0.0,0.0,0.0,0.0,0.0,0.0,0.0,0.0,0.0,0.0,0.0,0.0,0.0,0.0,0.0,-0.9908,-1.0356,-1.0599,-1.0438,-1.0193,-1.0287,-1.0443,-1.0628,-1.0666,-1.0744,-1.0617,-1.0617,-1.0693,-1.0737,-1.0737,-1.0737,-1.0737,-1.0737,-1.0737,-1.0737,-1.0737,-1.0737,-1.0737,-1.0737,-1.0737,-1.0737,-1.0732,-1.192,-1.2426,-1.242,-1.2407,-1.2561,-1.2554,-1.3231,-1.3403,-1.3403,-1.3403,-1.3403,-1.3403,-1.3403,-1.3403,-1.3403,-1.3403,-1.3403,-1.3383,-1.3446,-1.3418,-1.3227,-1.3132,-1.318,-1.3247,-1.3247,-1.3322,-1.3403,-1.3403,-1.3403,-1.3403,-1.3403,-1.3403,-1.3403,-1.3403,-1.3403,-1.3403,-1.3403,-1.3403,-1.3403,-1.3403,-1.3403,-1.3403,-1.3403,-1.3444,-1.3478,-1.3478,-1.3519,-1.3546,-1.3546,-1.3546,-1.3532,-1.3485,-1.3478,-1.3458,-1.3403,-1.3403,-1.3424,-1.3478,-1.3478,-1.4931,-1.7801,0.0,0.0,0.0,0.0,0.0,0.0,0.0,0.0,0.0,0.0,0.0,0.0,0.0,0.0,0.0,0.0,0.0,0.0,0.0,0.0,0.0,0.0,0.0,-1.0052,-1.0401,-1.0723,-1.0723,-1.0661,-1.0727,-1.0727,-1.0727,-1.0777,-1.0726,-1.0737,-1.0737,-1.0737,-1.0737,-1.0737,-1.0737,-1.0737,-1.0737,-1.0737,-1.0737,-1.0737,-1.0737,-1.0737,-1.0737,-1.0737,-1.0737,-1.0732,-1.0721,-1.0721,-1.0721,-1.071,-1.0699,-1.0699,-1.1031,-1.2733,-1.341,-1.3403,-1.3403,-1.3403,-1.3403,-1.3403,-1.3403,-1.3403,-1.3403,-1.3403,-1.3403,-1.3403,-1.3403,-1.3403,-1.3403,-1.3403,-1.3403,-1.3403,-1.3403,-1.3403,-1.3403,-1.3403,-1.3403,-1.3403,-1.3403,-1.3403,-1.3403,-1.3403,-1.3403,-1.3403,-1.3403,-1.3403,-1.3403,-1.3403,0.0,-1.341,-1.3539,-1.3634,-1.3634,-1.3756,-1.3838,-1.3838,-1.3838,-1.3783,-1.3648,-1.3634,-1.3566,-1.3417,-1.341,-1.3478,-1.362,-1.362,-1.4369,-1.6008,0.0,0.0,0.0,0.0,0.0,0.0,0.0,0.0,0.0,0.0,0.0,0.0,0.0,0.0,0.0,0.0,0.0,0.0,0.0,0.0,0.0,-1.0346,-1.0449,-1.0578,-1.0633,-1.0705,-1.0634,-1.0672,-1.0688,-1.0688,-1.0688,-1.0699,-1.0732,-1.0737,-1.0737,-1.0737,-1.0737,-1.0737,-1.0737,-1.0737,-1.0737,-1.0737,-1.0737,-1.0737,-1.0737,-1.0737,-1.0737,-1.0737,-1.0737,-1.0737,-1.0732,-1.0732,-1.0732,-1.0726,-1.0721,-1.1392,-1.2746,-1.3244,-1.3403,-1.3403,-1.3403,-1.3403,-1.3403,-1.3403,-1.3403,-1.3403,-1.3403,-1.3403,-1.3403,-1.3403,-1.3403,-1.3403,-1.3403,-1.3403,-1.3403,-1.3403,-1.3403,-1.3403,-1.3403,-1.3403,-1.3403,-1.3403,-1.3403,-1.3403,-1.3403,-1.3403,-1.3403,-1.3403,-1.3403,-1.3403,-1.3403,-1.3498,-1.3566,-1.3566,-1.3695,-1.3783,-1.3783,-1.3817,-1.3838,-1.3838,-1.3838,-1.3824,-1.3783,-1.3783,-1.3763,-1.3722,-1.362,-1.3532,-1.3464,-1.4773,-1.5569,0.0,0.0,0.0,0.0,0.0,0.0,0.0,0.0,0.0,0.0,0.0,0.0,0.0,0.0,0.0,0.0,0.0,0.0,0.0,0.0,0.0,0.0,-1.06,-1.0738,-1.0623,-1.0634,-1.0655,-1.0726,-1.0737,-1.0737,-1.0737,-1.0737,-1.0737,-1.0737,-1.0737,-1.0737,-1.0737,-1.0737,-1.0737,-1.0737,-1.0737,-1.0737,-1.0737,-1.0737,-1.0737,-1.0737,-1.0737,-1.0737,-1.0737,-1.0737,-1.0737,-1.0737,-1.0737,-1.0737,-1.0737,-1.0721,-1.1736,-1.3431,0.0,0.0,0.0,0.0,-1.3403,-1.3403,-1.3403,-1.3403,-1.3403,-1.3403,-1.3403,-1.3403,-1.3403,-1.3403,-1.3403,-1.3403,-1.3403,-1.3403,-1.3403,-1.3403,-1.3403,-1.3403,-1.3403,-1.3403,-1.3403,-1.3403,-1.3403,-1.3403,-1.3451,0.0,-1.3498,-1.3498,-1.3498,-1.3498,-1.362,-1.3715,-1.3715,-1.3844,-1.3939,-1.3939,-1.3994,-1.4034,-1.4034,-1.4034,0.0,0.0,0.0,-1.3905,-1.3844,-1.3824,0.0,0.0,0.0,-1.5331,-1.6008,-1.8779,0.0,0.0,-2.3027,-2.384,0.0,0.0,0.0,0.0,0.0,0.0,0.0,0.0,0.0,0.0,0.0,0.0,0.0,0.0,0.0,0.0,-1.0661,-1.0782,-1.0721,-1.0737,-1.0737,-1.0737,-1.0737,-1.0737,-1.0737,-1.0737,-1.0737,-1.0737,-1.0737,-1.0737,-1.0737,-1.0737,0.0,0.0,0.0,-1.0737,-1.0737,-1.0737,-1.0737,-1.0737,-1.0737,-1.0737,-1.0737,-1.0737,-1.0737,-1.0737,-1.0737,-1.0737,-1.0737,-1.0715,-1.173,-1.3431,-1.3417,-1.341,-1.3403,-1.3403,-1.3403,-1.3403,-1.3403,0.0,0.0,-1.3403,-1.3403,-1.3403,-1.3403,-1.3403,-1.3403,-1.3403,-1.3403,-1.3403,-1.3403,-1.3403,-1.3403,-1.3403,-1.3403,-1.3403,-1.3403,-1.3417,-1.3424,-1.3424,-1.3546,-1.3654,-1.3654,-1.3654,-1.3654,-1.3654,-1.3777,-1.3865,-1.3865,-1.4,-1.4095,-1.4095,-1.4217,0.0,-1.4299,-1.4299,-1.4245,-1.4109,-1.4095,-1.4027,-1.3871,-1.4,-1.3939,-1.3661,-1.3777,-1.4372,-1.5711,-1.7673,-1.946,-2.0899,-2.2854,-2.384,0.0,0.0,0.0,0.0,0.0,0.0,0.0,0.0,0.0,0.0,0.0,0.0,0.0,0.0,0.0,-1.055,-1.0727,-1.071,-1.0732,-1.0737,-1.0737,-1.0737,-1.0737,-1.0737,-1.0737,-1.0737,-1.0737,-1.0737,-1.0737,-1.0737,-1.0737,-1.0737,-1.0737,-1.0737,-1.0737,-1.0737,-1.0737,-1.0737,-1.0737,-1.0737,-1.0737,0.0,-1.0737,-1.0737,-1.0737,-1.0737,-1.0737,-1.0737,-1.0737,-1.0715,-1.1718,-1.341,-1.3403,-1.3403,-1.3403,-1.3403,-1.3403,-1.3403,-1.3403,-1.3403,-1.3403,-1.3403,-1.3403,-1.3403,-1.3403,-1.3403,0.0,-1.3403,-1.3403,-1.3403,-1.3403,-1.3403,-1.3403,-1.3403,-1.3403,-1.3403,-1.3403,-1.3498,-1.3587,-1.3587,-1.3702,-1.3797,-1.3797,-1.3797,-1.3797,-1.3797,-1.3933,-1.4027,-1.4027,-1.4163,-1.4258,-1.4258,-1.4285,-1.4299,-1.4299,-1.4299,-1.4285,-1.4258,-1.4258,-1.419,-1.4034,-1.4055,-1.3987,-1.3804,-1.3824,-1.3926,-1.4084,-1.7225,-1.8951,-1.9115,-2.2372,-2.384,0.0,0.0,0.0,0.0,0.0,0.0,0.0,0.0,0.0,0.0,0.0,-1.004,-1.004,0.0,-1.0471,-1.0639,-1.0623,-1.0737,-1.0737,-1.0737,-1.0737,-1.0737,-1.0737,-1.0737,-1.0737,-1.0737,-1.0737,-1.0737,-1.0737,-1.0737,-1.0737,-1.0737,-1.0737,-1.0737,-1.0737,-1.0737,-1.0737,-1.0737,-1.0737,-1.0737,-1.0737,-1.0737,-1.0737,-1.0737,-1.0737,-1.0737,-1.0737,-1.0737,-1.0737,-1.1736,-1.2567,-1.3403,-1.3403,-1.3403,-1.3403,-1.3403,-1.3403,-1.3403,-1.3403,-1.3403,-1.3403,-1.3403,-1.3403,-1.3403,-1.3403,-1.3403,-1.3403,-1.3403,-1.3403,-1.3403,-1.3403,-1.3403,-1.3403,-1.3403,-1.3458,-1.3519,-1.3519,-1.3634,-1.3736,-1.3736,-1.3858,-1.3953,-1.3953,-1.4021,-1.4041,-1.3966,-1.4089,-1.4183,-1.4183,-1.4251,-1.4299,-1.4299,-1.4299,-1.4299,-1.4299,-1.4299,-1.4299,-1.4299,-1.4299,-1.4265,-1.419,-1.4183,-1.4116,-1.396,-1.3953,-1.4393,-1.5086,-1.6759,-1.7987,-1.8777,-2.1405,-2.2982,0.0,0.0,0.0,0.0,0.0,0.0,0.0,-1.0078,-1.0105,-1.0201,-1.0222,-1.0222,-1.0222,-1.0476,-1.0721,-1.0721,-1.0655,-1.0737,-1.0737,-1.0737,-1.0737,-1.0737,-1.0737,-1.0737,-1.0737,-1.0737,-1.0737,-1.0737,-1.0737,-1.0737,-1.0737,-1.0737,-1.0737,-1.0737,-1.0737,-1.0737,-1.0737,-1.0737,-1.0737,-1.0737,-1.0737,-1.0737,-1.0737,-1.0737,-1.0737,-1.0737,-1.0737,-1.0737,-1.0898,-1.2586,-1.3424,-1.3403,-1.3403,-1.3403,-1.3403,-1.3403,-1.3403,-1.3403,-1.3403,-1.3403,-1.3403,-1.3403,-1.3403,-1.3403,-1.3403,-1.3403,-1.3403,-1.3403,-1.3403,-1.3403,-1.3403,-1.3424,-1.3444,-1.3444,-1.3559,-1.3668,-1.3675,-1.3783,-1.3885,-1.3885,-1.4014,-1.4116,-1.4116,-1.4217,-1.4258,-1.4136,-1.4224,-1.4299,-1.4299,-1.4326,-1.434,-1.434,-1.4367,-1.4387,-1.4387,-1.4387,-1.4387,-1.4387,-1.436,-1.434,-1.434,-1.4312,-1.4245,-1.4122,-1.4116,-1.4728,-1.6097,-1.6438,-1.7188,-1.8338,-2.0487,-2.2166,-0.9827,-1.0246,-1.0685,-1.0685,-1.0286,-1.0035,0.0,-1.0362,-1.0695,-1.055,-1.055,-1.055,-1.055,-1.0644,-1.0721,-1.0721,-1.0655,-1.0737,-1.0737,-1.0737,-1.0737,-1.0737,-1.0737,-1.0737,-1.0737,-1.0737,-1.0737,-1.0737,-1.0737,-1.0737,-1.0737,-1.0737,-1.0737,-1.0737,-1.0737,-1.0737,-1.0737,-1.0737,-1.0737,-1.0737,-1.0737,-1.0737,-1.0737,-1.0737,-1.0737,-1.0737,-1.0737,-1.0726,-1.0882,-1.2586,-1.3424,-1.3403,-1.3403,-1.3403,-1.3403,-1.3403,-1.3403,-1.3403,-1.3403,-1.3403,-1.3403,-1.3403,-1.3403,-1.3403,-1.3403,-1.3403,-1.3403,-1.3403,-1.3403,-1.3403,-1.3403,-1.3331,-1.3432,-1.3432,-1.3363,-1.3469,-1.3824,-1.3939,-1.4041,-1.4048,-1.417,-1.4272,-1.4272,-1.4292,-1.4292,-1.4278,-1.4292,-1.4299,-1.4299,-1.4407,-1.4489,-1.4489,-1.4611,-1.4692,-1.4692,-1.4692,-1.4692,-1.4692,-1.4563,-1.4489,-1.4489,-1.4367,-1.4292,-1.4278,-1.4272,-1.4373,-1.4388,-1.5925,-1.669,-1.6866,-2.0219,-2.1653,-0.9921,-1.0139,-1.0324,-1.0556,-1.0611,-1.0481,-1.0481,-1.0487,-1.0672,-1.0744,-1.0755,-1.0755,-1.0755,-1.0628,-1.0661,-1.0661,-1.0704,-1.0737,-1.0737,-1.0737,-1.0737,-1.0737,-1.0737,-1.0737,-1.0737,-1.0737,-1.0737,-1.0737,-1.0737,-1.0737,-1.0737,-1.0737,-1.0737,-1.0737,-1.0737,-1.0737,-1.0737,-1.0737,-1.0737,-1.0737,-1.0737,-1.0737,-1.0737,-1.0737,-1.0775,-1.0677,-1.0747,-1.0763,-1.0911,-1.2646,-1.333,-1.3479,-1.3479,-1.3479,-1.3459,-1.3464,-1.3403,-1.3403,-1.3403,-1.3403,-1.3403,-1.3403,-1.3403,-1.3403,-1.3403,-1.3458,-1.3365,-1.3365,-1.3418,-1.3479,-1.3479,-1.3356,-1.3402,-1.3756,-1.3865,-1.3973,-1.4153,-1.4095,-1.4204,-1.4204,-1.4258,-1.4299,-1.4299,-1.4367,-1.4421,-1.4421,-1.4421,-1.4421,-1.4421,-1.4475,-1.4482,-1.4394,-1.4448,-1.4482,-1.4482,-1.4557,-1.4604,-1.4604,-1.4631,-1.4645,-1.4645,-1.4502,-1.4421,-1.4421,-1.5395,-1.5835,-1.5768,-1.7662,-1.8423,-1.8408,-2.0956,-2.1965,-0.9858,-1.0056,-1.0206,-1.0683,-1.0749,-1.0771,-1.0771,-1.0771,-1.0634,-1.0721,-1.0737,-1.0737,-1.0737,-1.0737,-1.0737,-1.0737,-1.0737,-1.0737,-1.0737,-1.0737,-1.0737,-1.0737,-1.0737,-1.0737,-1.0737,-1.0737,-1.0737,-1.0737,-1.0737,-1.0737,-1.0737,-1.0737,-1.0737,-1.0737,-1.0737,-1.0737,-1.0737,-1.0737,-1.0737,-1.0737,-1.077,-1.0618,-1.0618,-1.0651,-1.0715,-1.0976,-1.0891,-1.0913,-1.1069,-1.2822,-1.3686,-1.3673,-1.3666,-1.3666,-1.364,-1.36,-1.3526,-1.3351,-1.3351,-1.3351,-1.3351,-1.3351,-1.3351,-1.3351,-1.3351,-1.3425,-1.3512,-1.3519,-1.3586,-1.3666,-1.3666,-1.3693,-1.3727,-1.4256,-1.4374,-1.4311,-1.4311,-1.4224,-1.4299,-1.4299,-1.4333,-1.436,-1.436,-1.4441,-1.4509,-1.4509,-1.4509,-1.4509,-1.4509,-1.455,-1.455,-1.4489,-1.4523,-1.4543,-1.4543,-1.4604,-1.4652,-1.4692,-1.4726,-1.476,-1.4801,-1.4658,-1.4577,-1.4577,-1.5846,-1.6632,-1.7161,-1.8506,-1.9269,-1.9809,-2.1542,-2.2309,0.0,-1.0342,-1.0753,-1.0666,-1.0645,-1.0732,-1.0732,-1.0732,-1.0732,-1.0737,-1.0737,-1.0737,-1.0737,-1.0737,-1.0737,-1.0737,-1.0737,-1.0737,-1.0737,-1.0737,-1.0737,-1.0737,-1.0737,-1.0737,-1.0737,-1.0737,-1.0737,-1.0737,-1.0737,-1.0737,-1.0737,-1.0737,-1.0737,-1.0737,-1.0737,-1.0737,-1.0737,-1.0737,-1.0737,-1.0737,-1.0688,-1.0742,-1.0747,-1.0688,-1.0918,-1.1451,-1.1451,-1.1451,-1.1612,-1.3528,-1.4228,-1.4215,-1.4201,-1.4201,-1.4194,-1.4187,-1.3831,-1.3475,-1.3475,-1.3475,-1.3475,-1.3475,-1.3475,-1.3475,-1.3475,-1.3475,-1.3482,-1.4187,-1.4194,-1.4201,-1.4201,-1.4305,-1.4242,-1.4242,-1.4359,-1.4292,-1.4292,-1.4299,-1.4299,-1.4299,-1.4414,-1.4509,-1.4502,-1.4509,-1.4509,-1.4509,-1.4509,-1.4509,-1.4509,-1.4638,-1.4787,-1.4936,-1.5072,-1.5153,-1.5153,-1.5031,-1.5018,-1.5153,-1.4896,-1.4808,-1.4957,-1.4814,-1.4733,-1.4733,-1.4584,-1.5391,-1.7331,-1.7169,-1.813,-1.9864,-2.177,-2.2632,-0.9444,-1.003,-1.0644,-1.0639,-1.0704,-1.0737,-1.0737,-1.0737,-1.0737,-1.0737,-1.0672,-1.0617,-1.0617,-1.0617,-1.0617,-1.0617,-1.0683,-1.0737,-1.0737,-1.0737,-1.0737,-1.0737,-1.0737,-1.0737,-1.0737,-1.0737,-1.0737,-1.0737,-1.0737,-1.0737,-1.0737,-1.0737,-1.0737,-1.0737,-1.0737,-1.0737,-1.0737,-1.0819,-1.0857,-1.0688,-1.0987,-1.1218,-1.1218,-1.1161,-1.1389,-1.1575,-1.1478,-1.1505,-1.1494,-1.2202,-1.3267,-1.4331,-1.4325,-1.4325,-1.4325,-1.4325,-1.415,-1.3941,-1.3912,-1.4016,-1.4016,-1.4016,-1.4016,-1.4016,-1.4016,-1.3912,-1.3994,-1.4174,-1.4249,-1.4325,-1.4325,-1.4366,-1.4224,-1.4224,-1.4265,-1.4299,-1.4299,-1.4299,-1.4326,-1.4242,-1.4475,-1.4516,-1.4516,-1.4597,-1.4631,-1.4529,-1.4509,-1.455,-1.4652,-1.4706,-1.476,-1.4814,-1.4862,-1.4889,-1.4889,-1.4936,-1.4991,-1.5038,-1.5038,-1.5059,-1.5106,-1.497,-1.4896,-1.4896,-1.6,-1.6806,-1.7526,-1.9813,-2.1299,-2.1998,-2.3593,-2.4395,-0.9869,-1.0286,-1.0699,-1.0699,-1.0737,-1.0737,-1.0737,-1.0737,-1.0737,-1.0737,-1.0639,-1.0558,-1.0558,-1.0525,-1.0492,-1.0492,-1.0558,-1.0628,-1.0666,-1.0672,-1.0688,-1.0732,-1.0737,-1.0737,-1.0737,-1.0737,-1.0737,-1.0737,-1.0737,-1.0737,-1.0737,-1.0737,-1.0737,-1.0737,-1.078,-1.0802,-1.0802,-1.0927,-1.1003,-1.087,-1.1301,-1.1541,-1.1586,-1.1483,-1.1516,-1.1522,-1.1422,-1.1449,-1.1616,-1.2154,-1.323,-1.4312,-1.4306,-1.4299,-1.4299,-1.4299,-1.4299,-1.4272,-1.4256,-1.4361,-1.4361,-1.4361,-1.4361,-1.4361,-1.4361,-1.4256,-1.4331,-1.4331,-1.4224,-1.4299,-1.4299,-1.4299,-1.4299,-1.4299,-1.4299,-1.4312,-1.4367,-1.4373,-1.4222,-1.4309,-1.4557,-1.4764,-1.4702,-1.459,-1.4624,-1.4523,-1.4509,-1.455,-1.4645,-1.4753,-1.4821,-1.4821,-1.4869,-1.4896,-1.4896,-1.4943,-1.4991,-1.5045,-1.5031,-1.5072,-1.5181,-1.5045,-1.4997,-1.5045,-1.5986,-1.6993,-1.7531,-2.0562,-2.2371,-2.2988,-2.4776,-2.553,-1.0751,-1.0627,-1.0622,-1.0683,-1.0737,-1.0737,-1.0737,-1.0737,-1.0737,-1.0726,-1.0628,-1.0547,-1.0541,-1.0454,-1.0384,-1.0384,-1.0394,-1.0443,-1.0552,-1.0563,-1.0606,-1.0721,-1.0737,-1.0737,-1.0737,-1.0737,-1.0737,-1.0737,-1.0737,-1.0737,-1.0737,-1.0737,-1.0737,-1.0748,-1.0857,-1.0922,-1.0927,-1.1052,-1.1166,-1.1105,-1.1456,-1.1522,-1.1455,-1.1455,-1.1455,-1.1455,-1.1455,-1.1455,-1.1632,-1.3432,-1.4155,-1.4333,-1.4306,-1.4299,-1.4299,-1.4299,-1.4299,-1.4299,-1.4299,-1.4299,-1.4299,-1.4299,-1.4299,-1.4299,-1.4299,-1.4299,-1.4299,-1.4299,-1.4299,-1.4299,-1.4299,-1.4299,-1.4299,-1.4299,-1.4306,-1.4346,-1.4289,-1.4323,-1.433,-1.433,-1.4812,-1.5056,-1.4723,-1.4516,-1.4509,-1.4509,-1.4523,-1.4536,-1.4536,-1.4787,-1.4977,-1.4984,-1.5099,-1.5181,-1.5181,-1.5059,-1.5038,-1.5174,-1.4916,-1.4882,-1.516,-1.5052,-1.5038,-1.5167,-1.5045,-1.5896,-1.7532,-1.9527,-2.1116,-2.2845,-2.4789,-2.5538,-1.0662,-1.0751,-1.0661,-1.0721,-1.0737,-1.0737,-1.0737,-1.0737,-1.071,-1.0623,-1.0509,-1.04,-1.0313,-1.0346,-1.0384,-1.0384,-1.0536,-1.0655,-1.0688,-1.0688,-1.0704,-1.0732,-1.0737,-1.0737,-1.0737,-1.0737,-1.0737,-1.0737,-1.0737,-1.0737,-1.0737,-1.0737,-1.078,-1.0873,-1.09,-1.0965,-1.1052,-1.1172,-1.1286,-1.1406,-1.1411,-1.1422,-1.1455,-1.1455,-1.1455,-1.1455,-1.1455,-1.1449,-1.1621,-1.1976,-1.3053,-1.4319,-1.4306,-1.4299,-1.4299,-1.4299,-1.4299,-1.4299,-1.4299,-1.4299,-1.4299,-1.4299,-1.4299,-1.4299,-1.4299,-1.4299,-1.4299,-1.4299,-1.4299,-1.4299,-1.4299,-1.4299,-1.4299,-1.4299,-1.438,-1.4256,-1.4367,-1.462,-1.4882,-1.4882,-1.473,-1.4557,-1.4523,-1.4516,-1.4509,-1.4509,-1.4706,-1.4855,-1.4855,-1.4923,-1.5011,-1.512,-1.516,-1.5181,-1.5181,-1.5147,-1.5147,-1.5181,-1.5113,-1.5059,-1.5025,-1.5092,-1.5099,-1.5025,-1.5092,-1.5313,-1.5867,-1.754,-1.9426,-2.1351,-2.3165,-2.4566,-1.0594,-1.0672,-1.0737,-1.0737,-1.0737,-1.0721,-1.0672,-1.0655,-1.0623,-1.0503,-1.0389,-1.0286,-1.0215,-1.0259,-1.0307,-1.0307,-1.046,-1.0601,-1.065,-1.0655,-1.0677,-1.0732,-1.0737,-1.0737,-1.0737,-1.0737,-1.0737,-1.0737,-1.0737,-1.0737,-1.0737,-1.0786,-1.0846,-1.0916,-1.102,-1.1134,-1.1259,-1.1319,-1.1389,-1.1455,-1.1455,-1.1455,-1.1455,-1.1455,-1.1455,-1.1455,-1.1455,-1.1455,-1.1449,-1.1433,-1.2692,-1.4319,-1.4306,-1.4299,-1.4299,-1.4299,-1.4299,-1.4299,-1.4299,-1.4299,-1.4299,-1.4299,-1.4299,-1.4299,-1.4299,-1.4299,-1.4299,-1.4299,-1.4299,-1.4299,-1.4299,-1.4299,-1.4299,-1.4299,-1.436,-1.4414,-1.4586,-1.4819,-1.4882,-1.4882,-1.4462,-1.4256,-1.4502,-1.4509,-1.4557,-1.4692,-1.4862,-1.4991,-1.5059,-1.5065,-1.5092,-1.5174,-1.5181,-1.5181,-1.5181,-1.5181,-1.5181,-1.5181,-1.5126,-1.5079,-1.5065,-1.5079,-1.5079,-1.5065,-1.514,-1.5181,-1.5181,-1.6948,-1.8877,-2.079,-2.2671,-2.4285,-1.0517,-1.0558,-1.0737,-1.0737,-1.0737,-1.0704,-1.0585,-1.0558,-1.052,-1.0389,-1.028,-1.0199,-1.0182,-1.0193,-1.021,-1.0226,-1.0329,-1.0449,-1.0563,-1.0579,-1.0617,-1.0726,-1.0737,-1.0737,-1.0737,-1.0737,-1.0737,-1.0737,-1.0737,-1.0737,-1.0737,-1.0851,-1.0933,-1.0965,-1.1183,-1.1346,-1.1455,-1.1455,-1.1455,-1.1455,-1.1455,-1.1455,-1.1455,-1.1455,-1.1455,-1.1455,-1.1455,-1.1455,-1.1455,-1.1438,-1.2692,-1.4333,-1.4312,-1.4299,-1.4299,-1.4299,-1.4299,-1.4299,-1.4299,-1.4299,-1.4299,-1.4299,-1.4299,-1.4299,-1.4299,-1.4299,-1.4299,-1.4299,-1.4299,-1.4299,-1.4299,-1.4299,-1.4299,-1.4299,-1.4312,-1.436,-1.5012,-1.4668,-1.4296,-1.4296,-1.4216,-1.4367,-1.4303,-1.4543,-1.4665,-1.493,-1.4984,-1.5045,-1.5167,-1.5181,-1.5181,-1.5181,-1.5181,-1.5181,-1.5181,-1.5181,-1.5181,-1.5181,-1.5065,-1.5045,-1.5153,-1.5052,-1.5038,-1.512,-1.516,-1.5174,-1.5153,-1.6845,-1.8618,-2.0463,-2.2474,-2.4173,-1.0384,-1.0558,-1.0737,-1.0737,-1.0737,-1.0704,-1.0585,-1.0558,-1.0492,-1.028,-1.0221,-1.0172,-1.0068,-1.0134,-1.0237,-1.034,-1.0449,-1.0568,-1.0688,-1.0704,-1.0715,-1.0732,-1.0737,-1.0737,-1.0737,-1.0737,-1.0737,-1.0737,-1.0737,-1.0737,-1.0737,-1.0851,-1.1009,-1.1204,-1.1351,-1.1433,-1.1455,-1.1455,-1.1455,-1.1455,-1.1455,-1.1455,-1.1455,-1.1455,-1.1455,-1.1455,-1.1455,-1.1455,-1.1455,-1.1444,-1.2526,-1.4346,-1.4326,-1.4312,-1.4312,-1.4306,-1.4299,-1.4299,-1.4299,-1.4299,-1.4299,-1.4299,-1.4299,-1.4299,-1.4299,-1.4299,-1.4299,-1.4299,-1.4299,-1.4299,-1.4299,-1.4299,-1.4299,-1.4299,-1.4387,-1.4269,-1.436,-1.434,-1.4333,-1.4333,-1.4229,-1.4296,-1.4323,-1.4537,-1.4909,-1.4957,-1.5072,-1.5153,-1.5181,-1.5181,-1.5181,-1.5181,-1.5181,-1.5181,-1.5181,-1.5181,-1.5181,-1.5181,-1.516,-1.5106,-1.5011,-1.5099,-1.5045,-1.4821,-1.5059,-1.5126,-1.5011,-1.5494,-1.6651,-1.8652,-2.0686,-2.2414,-1.0384,-1.0558,-1.0737,-1.0737,-1.0737,-1.0688,-1.0509,-1.0471,-1.04,-1.0161,-1.0106,-1.009,-1.003,-1.0123,-1.0221,-1.028,-1.0438,-1.0574,-1.0634,-1.0699,-1.0737,-1.0737,-1.0737,-1.0737,-1.0737,-1.0737,-1.0737,-1.0737,-1.0797,-1.0835,-1.0835,-1.1003,-1.1183,-1.1362,-1.1422,-1.1455,-1.1455,-1.1455,-1.1455,-1.1455,-1.1455,-1.1455,-1.1455,-1.1455,-1.1455,-1.1455,-1.1455,-1.1455,-1.1455,-1.1444,-1.1982,-1.2887,-1.2875,-1.3053,-1.3597,-1.4129,-1.4306,-1.4306,-1.4299,-1.4299,-1.4299,-1.4299,-1.4299,-1.4299,-1.4299,-1.4299,-1.4299,-1.4299,-1.4299,-1.4299,-1.4299,-1.4299,-1.4299,-1.4299,-1.4346,-1.438,-1.4312,-1.4299,-1.4319,-1.4216,-1.4283,-1.4376,-1.4726,-1.4875,-1.4997,-1.5065,-1.514,-1.5181,-1.5181,-1.5181,-1.5181,-1.5181,-1.5181,-1.5181,-1.5181,-1.5181,-1.5181,-1.5181,-1.5181,-1.5153,-1.5086,-1.5147,-1.5113,-1.497,-1.5038,-1.5038,-1.497,-1.4957,-1.5903,-1.8005,-2.0033,-2.2049,-1.0378,-1.0558,-1.0737,-1.0737,-1.0737,-1.0677,-1.0438,-1.0384,-1.0318,-1.0068,-1.0019,-1.0019,-1.0019,-1.0101,-1.0172,-1.0199,-1.0362,-1.0498,-1.0547,-1.0639,-1.071,-1.0732,-1.0737,-1.0737,-1.0737,-1.0737,-1.0748,-1.0775,-1.0911,-1.0998,-1.0998,-1.1172,-1.133,-1.1449,-1.1455,-1.1455,-1.1455,-1.1455,-1.1455,-1.1455,-1.1455,-1.1455,-1.1455,-1.1455,-1.1455,-1.1455,-1.1455,-1.1455,-1.1455,-1.1449,-1.1444,-1.1444,-1.1433,-1.1971,-1.2698,-1.3413,-1.3774,-1.3958,-1.4306,-1.4306,-1.4306,-1.4306,-1.4299,-1.4299,-1.4299,-1.4299,-1.4299,-1.4299,-1.4299,-1.4299,-1.4299,-1.4299,-1.4299,-1.4299,-1.4299,-1.4299,-1.4299,-1.4326,-1.4373,-1.4303,-1.4376,-1.4685,-1.5121,-1.519,-1.5245,-1.5167,-1.5181,-1.5181,-1.5181,-1.5181,-1.5194,-1.5228,-1.5235,-1.5242,-1.5276,-1.5282,-1.5269,-1.5235,-1.5228,-1.5215,-1.5181,-1.5181,-1.5167,-1.514,-1.5025,-1.4957,-1.4923,-1.4801,-1.5518,-1.7277,-1.9279,-2.1365,-1.0356,-1.0558,-1.0737,-1.0737,-1.0737,-1.0677,-1.0438,-1.0384,-1.0318,-1.0068,-1.0019,-1.0019,-1.0019,-1.003,-1.0074,-1.0182,-1.0221,-1.0313,-1.0525,-1.0563,-1.0612,-1.0726,-1.0737,-1.0737,-1.0737,-1.0737,-1.078,-1.0895,-1.1112,-1.1237,-1.1237,-1.1259,-1.133,-1.1449,-1.1455,-1.1455,-1.1455,-1.1455,-1.1455,-1.1455,-1.1455,-1.1455,-1.1455,-1.1455,-1.1455,-1.1455,-1.1455,-1.1455,-1.1455,-1.1455,-1.1455,-1.1455,-1.1444,-1.1616,-1.1621,-1.1788,-1.2331,-1.3236,-1.3958,-1.4312,-1.4312,-1.4312,-1.4306,-1.4299,-1.4299,-1.4299,-1.4299,-1.4299,-1.4299,-1.4299,-1.4299,-1.4299,-1.4299,-1.4299,-1.4299,-1.4299,-1.4299,-1.4222,-1.4309,-1.4323,-1.474,-1.5128,-1.5156,-1.5265,-1.5167,-1.5181,-1.5181,-1.5181,-1.5181,-1.5181,-1.5235,-1.5377,-1.5391,-1.5445,-1.5588,-1.5594,-1.554,-1.5398,-1.5391,-1.533,-1.5187,-1.5181,-1.512,-1.4991,-1.4977,-1.4903,-1.476,-1.4746,-1.4746,-1.5118,-1.7104,-1.9094,-1.0351,-1.0558,-1.0737,-1.0737,-1.0683,-1.0585,-1.0422,-1.0329,-1.0226,-1.0057,-1.0019,-1.0019,-1.0019,-1.0019,-1.0036,-1.0085,0.0,-1.0237,-1.0329,-1.0405,-1.0498,-1.0612,-1.0628,-1.0655,-1.0732,-1.0737,-1.0819,-1.1014,-1.1183,-1.1302,-1.1378,-1.1384,-1.1406,-1.1455,-1.1455,-1.1455,-1.1455,-1.1455,-1.1455,-1.1455,-1.1455,-1.1455,-1.1455,-1.1455,-1.1455,-1.1455,-1.1455,-1.1455,-1.1455,-1.1455,-1.1455,-1.1455,-1.1449,-1.1449,-1.1449,-1.1799,-1.216,-1.252,-1.3053,-1.3413,-1.3597,-1.3597,-1.3053,-1.2863,-1.3958,-1.4319,-1.4319,-1.4312,-1.4312,-1.4312,-1.4312,-1.4312,-1.4306,-1.4299,-1.4299,-1.4319,-1.4229,-1.4289,-1.4383,-1.4753,-1.5073,-1.519,-1.5272,-1.5147,-1.5181,-1.5181,-1.5181,-1.5181,-1.5181,-1.5262,-1.5187,-1.5334,-1.5466,-1.5472,-1.5628,-1.5642,-1.5615,-1.5554,-1.5459,-1.5384,-1.5323,-1.5228,-1.5153,-1.5099,-1.5018,-1.4896,-1.474,-1.4645,-1.4604,-1.4604,-1.6572,-1.8057,-1.0297,-1.053,-1.0737,-1.0737,-1.0645,-1.0525,-1.0411,-1.0291,-1.0166,-1.0047,-1.0019,-1.0019,-1.0019,-1.0019,-1.0019,0.0,0.0,-1.0161,-1.0199,-1.028,-1.0373,-1.0492,-1.0509,-1.0552,-1.0672,-1.078,-1.0933,-1.1134,-1.1259,-1.1362,-1.1449,-1.1455,-1.1455,-1.1455,-1.1455,-1.1455,-1.1455,-1.1455,-1.1455,-1.1455,-1.1455,-1.1455,-1.1455,-1.1455,-1.1455,-1.1455,-1.1455,-1.1455,-1.1455,-1.1455,-1.1455,-1.1455,-1.1455,-1.1455,-1.1455,-1.181,-1.1988,-1.1988,-1.2154,-1.2337,-1.2698,-1.252,-1.1976,-1.1793,-1.3065,-1.3426,-1.342,-1.3413,-1.3958,-1.4142,-1.3591,-1.3951,-1.4326,-1.4353,-1.436,-1.4222,-1.4363,-1.443,-1.4713,-1.5121,-1.5197,-1.5252,-1.5167,-1.5181,-1.5181,-1.5181,-1.5181,-1.5181,-1.5181,-1.512,-1.5274,-1.5428,-1.5381,-1.5601,-1.5757,-1.573,-1.5703,-1.5703,-1.552,-1.5411,-1.5411,-1.5262,-1.5181,-1.5181,-1.5045,-1.4896,-1.474,-1.4584,-1.4489,-1.4448,-1.5861,-1.7169,-1.0172,-1.0465,-1.0737,-1.0737,-1.0645,-1.0525,-1.0411,-1.0291,-1.0166,-1.0047,-1.0019,-1.0019,-1.0019,-1.0019,-1.0019,0.0,0.0,-1.0063,-1.0188,-1.0204,-1.0253,-1.0373,-1.0389,-1.0433,-1.0547,-1.0884,-1.1145,-1.1264,-1.1384,-1.1455,-1.1455,-1.1455,-1.1455,-1.1455,-1.1455,-1.1455,-1.1455,-1.1455,-1.1455,-1.1455,-1.1455,-1.1455,-1.1455,-1.1455,-1.1455,-1.1455,-1.1455,-1.1455,-1.1455,-1.1455,-1.1455,-1.1455,-1.1455,-1.1455,-1.1455,-1.1455,-1.1455,-1.1455,-1.1444,-1.1444,-1.1444,-1.1444,-1.1444,-1.1444,-1.1455,-1.1444,-1.1605,-1.1605,-1.2875,-1.3787,-1.1959,-1.2863,-1.4346,-1.4296,-1.4323,-1.4363,-1.4329,-1.4855,-1.5156,-1.5162,-1.5272,-1.5181,-1.5181,-1.5181,-1.5181,-1.5181,-1.5181,-1.5181,-1.5181,-1.512,-1.5466,-1.6022,-1.5764,-1.571,-1.6062,-1.594,-1.5852,-1.5852,-1.5574,-1.5411,-1.5411,-1.5262,-1.5181,-1.5181,-1.5045,-1.4896,-1.474,-1.4584,-1.4441,-1.4299,-1.4306,-1.6393,-1.0025,-1.0221,-1.0394,-1.0476,-1.0405,-1.0302,-1.0269,-1.0166,-1.0068,-1.003,-1.0019,-1.0019,-1.0019,-1.0019,-1.0019,-1.0019,-1.0019,-1.0036,-1.0074,-1.015,-1.0248,-1.0373,-1.053,-1.0672,-1.0791,-1.0987,-1.115,-1.1264,-1.1384,-1.1455,-1.1455,-1.1455,-1.1455,-1.1455,-1.1455,-1.1455,-1.1455,-1.1455,-1.1455,-1.1455,-1.1455,-1.1455,-1.1455,-1.1455,-1.1455,-1.1455,-1.1455,-1.1455,-1.1455,-1.1455,-1.1455,-1.1455,-1.1455,-1.1455,-1.1455,-1.1455,-1.1455,-1.1455,-1.1455,-1.1449,-1.1449,-1.1449,-1.1449,-1.1449,-1.1455,-1.1449,-1.1444,-1.1438,-1.1976,-1.2337,-1.1605,-1.2942,-1.4323,-1.435,-1.4624,-1.4922,-1.4882,-1.5135,-1.5204,-1.5286,-1.5153,-1.5181,-1.5181,-1.5181,-1.5181,-1.5181,-1.5181,-1.5181,-1.5181,-1.5214,-1.5388,-1.6036,-1.6062,-1.6029,-1.6076,-1.6035,-1.5961,-1.5859,-1.5764,-1.5622,-1.5418,-1.5364,-1.5289,-1.5181,-1.514,-1.5045,-1.4896,-1.474,-1.4543,-1.4299,-1.4299,-1.6393,0.0,-1.0106,-1.0291,-1.0367,-1.0291,-1.0204,-1.0204,-1.0106,-1.0019,-1.0019,-1.0019,-1.0019,-1.0019,-1.0019,-1.0019,-1.0019,-1.0019,-1.0036,-1.0085,-1.0155,-1.0248,-1.0373,-1.0552,-1.0732,-1.09,-1.1031,-1.1166,-1.133,-1.1411,-1.1455,-1.1455,-1.1455,-1.1455,-1.1455,-1.1455,-1.1455,-1.1455,-1.1455,-1.1455,-1.1455,-1.1455,-1.1455,-1.1455,-1.1455,-1.1455,-1.1455,-1.1455,-1.1455,0.0,-1.1455,-1.1455,-1.1455,-1.1455,-1.1455,-1.1455,-1.1455,-1.1455,-1.1455,-1.1455,-1.1455,-1.1455,-1.1455,-1.1455,-1.1465,-1.1509,-1.1493,-1.1465,-1.1504,-1.1514,-1.152,-1.1552,-1.2362,-1.3362,-1.3412,-1.3852,-1.4139,-1.4088,-1.4692,-1.5293,-1.5174,-1.5187,-1.5187,-1.5181,-1.5181,-1.5181,-1.5181,-1.5181,-1.5181,-1.5181,-1.5254,-1.5442,-1.6043,-1.611,-1.6083,-1.6083,-1.6029,-1.5954,-1.5859,-1.575,-1.5601,-1.5418,-1.5357,-1.5282,-1.5181,-1.5181,-1.5113,-1.497,-1.4753,-1.4557,-1.438,-1.4326,-1.5873,0.0,0.0,-1.0351,-1.0356,-1.0275,-1.0188,-1.0188,0.0,0.0,-1.0019,-1.0019,-1.0019,-1.0019,-1.0019,-1.0019,-1.0019,-1.0019,-1.0063,-1.0188,-1.0215,-1.0275,-1.0394,-1.0514,-1.0677,-1.0911,-1.1041,-1.121,-1.1438,-1.1455,-1.1455,-1.1455,-1.1455,-1.1455,-1.1455,-1.1455,-1.1455,-1.1455,-1.1455,-1.1455,-1.1455,-1.1455,-1.1455,-1.1455,-1.1455,-1.1455,-1.1455,-1.1455,-1.1455,-1.1455,-1.1455,-1.1455,-1.1455,-1.1455,-1.1455,-1.1455,-1.1455,-1.1455,-1.1455,-1.1455,-1.146,-1.1471,-1.1476,-1.1482,-1.1504,-1.1618,-1.1563,-1.1493,-1.1432,-1.1464,-1.1491,-1.1582,-1.1614,-1.1646,-1.2124,-1.2157,-1.2195,-1.2118,-1.3688,-1.5033,-1.5013,-1.5013,-1.5194,-1.5187,-1.5181,-1.5181,-1.5181,-1.5181,-1.5187,-1.5194,-1.5261,-1.5442,-1.6057,-1.611,-1.6083,-1.6083,-1.6151,-1.6062,-1.5852,-1.5594,-1.5432,-1.5411,-1.5276,-1.5194,-1.5181,-1.5181,-1.5113,-1.497,-1.4672,-1.4523,-1.4509,-1.4367,-1.5352,0.0,0.0,-0.9987,-1.0085,-1.0085,-1.0063,0.0,0.0,0.0,0.0,0.0,-1.0019,-1.0019,-1.0019,-1.0019,-1.0019,-1.0019,-1.0063,-1.0188,-1.0356,-1.052,-1.0639,-1.0759,-1.0895,-1.1047,-1.1166,-1.1297,-1.1444,-1.1455,-1.1455,-1.1455,-1.1455,-1.1455,-1.1455,-1.1455,-1.1455,-1.1455,-1.1455,-1.1455,-1.1455,-1.1455,-1.1455,-1.1455,-1.1455,-1.1455,-1.1455,-1.1455,-1.1455,-1.1455,-1.1455,-1.1455,-1.1455,-1.1455,-1.1455,-1.1455,-1.1455,-1.1455,-1.1455,-1.1455,-1.1514,-1.1607,-1.1705,-1.1732,-1.1737,-1.1764,-1.1688,-1.1437,-1.1555,-1.1775,-1.1969,-1.1997,-1.2063,-1.2135,-1.2168,-1.2245,-1.2129,-1.215,-1.2539,-1.2922,-1.291,-1.4241,-1.5201,-1.5194,-1.5187,-1.5181,-1.5181,-1.5181,-1.5221,-1.5147,-1.5129,-1.5482,-1.5993,-1.6172,-1.6083,-1.6083,-1.6049,-1.6179,-1.6062,-1.5589,-1.5448,-1.5418,-1.5377,-1.5303,-1.5181,-1.5181,-1.5113,-1.497,-1.478,-1.4624,-1.4509,-1.4367,-1.5352,-0.9791,-0.9878,-0.9938,-1.0003,-1.0019,-1.0019,-1.0019,0.0,0.0,0.0,0.0,-1.0025,-1.003,-1.003,-1.0036,-1.0041,-0.9933,-1.0008,-1.028,-1.0405,-1.052,-1.0639,-1.0759,-1.0905,-1.1085,-1.1204,-1.1324,-1.1444,-1.1455,-1.1455,-1.1455,-1.1455,-1.1455,-1.1455,-1.1455,-1.1455,-1.1455,-1.1455,-1.1455,-1.1455,-1.1455,-1.1455,-1.1455,-1.1455,-1.1487,-1.1536,-1.1536,-1.1569,-1.1623,-1.1623,-1.1623,-1.1623,-1.1623,-1.1623,-1.1623,-1.1623,-1.1623,-1.1623,-1.1623,-1.1667,-1.1732,-1.1797,-1.1819,-1.183,-1.1879,-1.1851,-1.1625,-1.1879,-1.2085,-1.2287,-1.2157,-1.2218,-1.2262,-1.2262,-1.2123,-1.2172,-1.2167,-1.2167,-1.2161,-1.215,-1.3104,-1.4059,-1.5013,-1.5194,-1.5187,-1.5181,-1.5181,-1.5235,-1.5194,-1.5348,-1.5696,-1.6041,-1.6192,-1.6083,-1.6083,-1.6083,-1.6015,-1.6069,-1.5986,-1.5649,-1.5227,-1.5343,-1.5269,-1.5181,-1.5181,-1.5147,-1.5065,-1.4916,-1.4767,-1.4611,-1.4468,-1.4886,-0.9813,-0.996,-1.0047,-1.0025,-1.0019,-1.0019,-1.0019,0.0,0.0,0.0,0.0,0.0,-1.0047,-0.9578,-0.9261,-0.9276,-0.9228,-0.9507,-1.0098,-1.0281,-1.0487,-1.0601,-1.0721,-1.0884,-1.1107,-1.1232,-1.134,-1.1449,-1.1455,-1.1455,-1.1455,-1.1455,-1.1455,-1.1455,-1.1455,-1.1455,-1.1455,-1.1455,-1.1455,-1.1455,-1.1471,-1.1482,-1.1482,-1.1504,-1.1569,-1.1667,-1.1667,-1.1721,-1.1819,-1.1819,-1.1819,-1.1819,-1.1819,-1.1819,-1.1819,-1.1819,-1.1819,-1.1824,-1.1841,-1.1846,-1.1846,-1.1868,-1.1873,-1.1889,-1.1987,-1.2015,-1.2015,-1.2207,-1.2207,-1.2229,-1.2145,-1.2172,-1.2172,-1.2172,-1.2172,-1.2172,-1.2172,-1.2172,-1.2167,-1.2161,-1.2161,-1.2727,-1.4442,-1.5006,-1.5194,-1.5187,-1.5181,-1.5242,-1.5227,-1.576,-1.6105,-1.6076,-1.6008,-1.6083,-1.6083,-1.6083,-1.6029,-1.6096,-1.6154,-1.5794,-1.5221,-1.5262,-1.5181,-1.5181,-1.5181,-1.5181,-1.5181,-1.5038,-1.4903,-1.4767,-1.4597,-1.4448,-0.9682,-0.9798,-1.0008,-1.0047,-1.0019,-1.0019,-1.0019,0.0,0.0,0.0,0.0,0.0,0.0,-0.769,-0.5799,-0.5799,-0.5747,-0.6827,-0.9563,-1.0314,-1.0581,-1.0699,-1.0811,-1.1101,-1.1232,-1.1357,-1.1433,-1.1455,-1.1455,-1.1455,-1.1455,-1.1455,-1.1455,-1.1455,-1.1455,-1.1455,-1.1455,-1.1455,-1.1455,-1.1455,-1.1558,-1.1607,-1.1612,-1.1716,-1.1775,-1.1792,-1.1792,-1.1803,-1.1819,-1.1819,-1.1819,-1.1819,-1.1819,-1.1819,-1.1819,-1.1819,-1.1819,-1.1835,-1.1928,-1.1966,-1.1982,-1.2085,-1.2118,-1.2123,-1.214,-1.2145,-1.2145,-1.2145,-1.2145,-1.215,-1.2167,-1.2172,-1.2172,-1.2172,-1.2172,-1.2172,-1.2172,-1.2172,-1.2172,-1.2172,-1.2161,-1.2345,-1.2539,-1.4059,-1.5201,-1.5201,-1.5187,-1.5282,-1.5169,-1.5822,-1.6147,-1.6022,-1.6069,-1.6083,-1.6083,-1.6083,-1.6069,-1.6049,-1.6103,-1.5897,-1.5227,-1.5262,-1.5181,-1.5181,-1.5181,-1.5181,-1.5181,-1.5038,-1.4957,-1.493,-1.4645,-1.4502,-0.9376,-0.8548,-0.7201,-0.7201,-0.8707,-1.0078,-1.0078,0.0,0.0,0.0,0.0,0.0,-0.9615,-0.8697,-0.6529,-0.29,-0.2265,-0.2768,-0.4452,-0.6269,-0.8301,-1.033,-1.0784,-1.109,-1.127,-1.1389,-1.1455,-1.1455,-1.1455,-1.1455,-1.1455,-1.1455,-1.1455,-1.1455,-1.1455,-1.1455,-1.1455,-1.1455,-1.1487,-1.1552,-1.1612,-1.1672,-1.1737,-1.1792,-1.1851,-1.1911,-1.1911,-1.1949,-1.2009,-1.2009,-1.2009,-1.2009,-1.2009,-1.2009,-1.2009,-1.2009,-1.2009,-1.2015,-1.2069,-1.2085,-1.2096,-1.215,-1.2172,-1.2172,-1.2172,-1.2172,-1.2172,-1.2172,-1.2172,-1.2172,-1.2172,-1.2172,-1.2172,-1.2172,-1.2172,-1.2172,-1.2172,-1.2172,-1.2172,-1.2172,-1.2167,-1.2161,-1.2161,-1.2916,-1.387,-1.5013,-1.5194,-1.5107,-1.5202,-1.5642,-1.6154,-1.6049,-1.6083,-1.6083,-1.6083,-1.6083,-1.6049,-1.6165,-1.6021,-1.5835,-1.5221,-1.5262,-1.5181,-1.5181,-1.5181,-1.5181,-1.5181,-1.512,-1.5045,-1.497,-1.4828,-1.4672,-0.8809,-0.7986,-0.5739,-0.5181,0.0,-0.8889,-0.8774,0.0,0.0,0.0,0.0,0.0,-0.7441,-0.764,-0.5959,-0.0822,0.0,0.0,0.0,-0.2143,-0.4799,-0.7608,-0.9067,-1.0061,-1.1143,-1.1417,-1.146,-1.1455,-1.1455,-1.1455,-1.1455,-1.1455,-1.1455,-1.1455,-1.1455,-1.1455,-1.1455,-1.1482,-1.1542,-1.1634,-1.1667,-1.1743,-1.1862,-1.1889,-1.1949,-1.2031,-1.2031,-1.2085,-1.2172,-1.2172,-1.2172,-1.2172,-1.2172,-1.2172,-1.2172,-1.2172,-1.2172,-1.2172,-1.2172,-1.2172,-1.2172,-1.2172,-1.2172,-1.2172,-1.2172,-1.2172,-1.2172,-1.2172,-1.2172,-1.2172,-1.2172,-1.2172,-1.2172,-1.2172,-1.2172,-1.2172,-1.2172,-1.2172,-1.2172,-1.2172,-1.2172,-1.2167,-1.2161,-1.2161,-1.2727,-1.4247,-1.4818,-1.5113,-1.5208,-1.5642,-1.6154,-1.6049,-1.6083,-1.6083,-1.6083,-1.6083,-1.6035,-1.6117,-1.6168,-1.5822,-1.5274,-1.5127,-1.5221,-1.5181,-1.5181,-1.5181,-1.5181,-1.5181,-1.5126,-1.5018,-1.4984,-1.4841,-0.8171,-0.9837,-0.8836,-0.574,-0.5229,0.0,-0.5327,-0.5311,0.0,-0.943,0.0,0.0,-0.176,-0.0799,-0.0482,-0.0,0.0,0.0,0.0,-0.0169,-0.0513,-0.0691,-0.3666,-0.7241,-1.1094,-1.1476,-1.1471,-1.1455,-1.1455,-1.1455,-1.1455,-1.1455,-1.1455,-1.1455,-1.1455,-1.1455,-1.1455,-1.1569,-1.1629,-1.1639,-1.1754,-1.1868,-1.1982,-1.2096,-1.215,-1.2161,-1.2161,-1.2161,-1.2172,-1.2172,-1.2172,-1.2172,-1.2172,-1.2172,-1.2172,-1.2172,-1.2172,-1.2172,-1.2172,-1.2172,-1.2172,-1.2172,-1.2172,-1.2172,-1.2172,-1.2172,-1.2172,-1.2172,-1.2172,-1.2172,-1.2172,-1.2172,-1.2172,-1.2172,-1.2172,-1.2172,-1.2172,-1.2172,-1.2172,-1.2172,-1.2172,-1.2172,-1.2172,-1.2161,-1.2156,-1.2345,-1.4059,-1.512,-1.5222,-1.5649,-1.6154,-1.6049,-1.6083,-1.6083,-1.6083,-1.6083,-1.6076,-1.6069,-1.6124,-1.5778,-1.5228,-1.5274,-1.5133,-1.5187,-1.5181,-1.5181,-1.5181,-1.5181,-1.5174,-1.5167,-1.5031,-1.4957,-0.3021,-0.6825,-0.8763,-0.3326,0.0,0.0,0.0,0.0,-0.2288,-0.3451,-0.3783,0.0,-0.0486,0.0,0.0,0.0,0.0,0.0,0.0,0.0,0.0,0.0,-0.1231,-0.2653,-0.4112,-0.8599,-1.1482,-1.1471,-1.146,-1.1455,-1.1455,-1.1455,-1.1455,-1.1455,-1.1455,-1.1455,-1.1455,-1.1574,-1.1672,-1.1754,-1.1868,-1.1987,-1.2102,-1.215,-1.2172,-1.2172,-1.2172,-1.2172,-1.2172,-1.2172,-1.2172,-1.2172,-1.2172,-1.2172,-1.2172,-1.2172,-1.2172,-1.2172,-1.2172,-1.2172,-1.2172,-1.2172,-1.2172,-1.2172,-1.2172,-1.2172,-1.2172,-1.2172,-1.2172,-1.2172,-1.2172,-1.2172,-1.2172,-1.2172,-1.2172,-1.2172,-1.2172,-1.2172,-1.2172,-1.2172,-1.2172,-1.2172,-1.2172,-1.2167,-1.2167,-1.2161,-1.2916,-1.3774,-1.5022,-1.5655,-1.6161,-1.6056,-1.6083,-1.6083,-1.6083,-1.6083,-1.6083,-1.6083,-1.6138,-1.5993,-1.5842,-1.5493,-1.5147,-1.5187,-1.5181,-1.5181,-1.5181,-1.5181,-1.5181,-1.5181,-1.5126,-1.5059,0.0,-0.3396,-0.5704,0.0,0.0,0.0,0.0,0.0,0.0,0.0,0.0,0.0,0.0,0.0,0.0,0.0,0.0,0.0,0.0,0.0,0.0,0.0,0.0,0.0,0.0,-0.4832,-0.8956,-1.1303,-1.1471,-1.146,-1.1455,-1.1455,-1.1455,-1.1455,-1.1455,-1.1471,-1.1514,-1.1634,-1.1754,-1.1873,-1.1993,-1.2091,-1.2172,-1.2172,-1.2172,-1.2172,-1.2172,-1.2172,-1.2172,-1.2172,-1.2172,-1.2172,-1.2172,-1.2172,-1.2172,-1.2172,-1.2172,-1.2172,-1.2172,-1.2172,-1.2172,-1.2172,-1.2172,-1.2172,-1.2172,-1.2172,-1.2172,-1.2172,-1.2172,-1.2172,-1.2172,-1.2172,-1.2172,-1.2172,-1.2172,-1.2172,-1.2172,-1.2172,-1.2172,-1.2172,-1.2172,-1.2172,-1.2172,-1.2172,-1.2167,-1.2161,-1.2161,-1.2623,-1.4036,-1.5261,-1.6168,-1.6056,-1.6083,-1.6083,-1.6083,-1.6083,-1.6083,-1.6083,-1.6186,-1.6041,-1.605,-1.554,-1.5194,-1.5187,-1.5181,-1.5181,-1.5181,-1.5181,-1.5181,-1.5181,-1.5181,-1.5133,0.0,0.0,0.0,0.0,0.0,0.0,0.0,0.0,0.0,0.0,0.0,0.0,0.0,0.0,0.0,0.0,0.0,0.0,0.0,0.0,0.0,0.0,0.0,0.0,0.0,0.0,-0.3222,-1.0758,-1.1482,-1.1476,-1.1455,-1.1455,-1.1455,-1.1455,-1.1455,-1.1514,-1.1634,-1.1759,-1.1873,-1.1987,-1.2112,-1.2172,-1.2172,-1.2172,-1.2172,-1.2172,-1.2172,-1.2172,-1.2172,-1.2172,-1.2172,-1.2172,-1.2172,-1.2172,-1.2172,-1.2172,-1.2172,-1.2172,-1.2172,-1.2172,-1.2172,-1.2172,-1.2172,-1.2172,-1.2172,-1.2172,-1.2172,-1.2172,-1.2172,-1.2172,-1.2172,-1.2172,-1.2172,-1.2172,-1.2172,-1.2172,-1.2172,-1.2172,-1.2172,-1.2172,-1.2172,-1.2172,-1.2172,-1.2172,-1.2172,-1.2172,-1.2167,-1.2237,-1.2267,-1.4473,-1.6168,-1.6056,-1.6083,-1.6083,-1.6083,-1.6083,-1.6083,-1.6083,-1.6083,-1.6151,-1.6057,-1.5442,-1.5294,-1.5187,-1.5181,-1.5181,-1.5181,-1.5181,-1.5181,-1.5181,-1.5181,-1.5181,0.0,0.0,0.0,0.0,0.0,0.0,0.0,0.0,0.0,0.0,0.0,0.0,0.0,0.0,0.0,0.0,0.0,0.0,0.0,0.0,0.0,0.0,0.0,0.0,0.0,0.0,-0.0895,-0.3222,-0.8417,-1.1482,-1.1476,-1.146,-1.1455,-1.1455,-1.1455,-1.1514,-1.1634,-1.1759,-1.1873,-1.1987,-1.2112,-1.2172,-1.2172,-1.2172,-1.2172,-1.2172,-1.2172,-1.2172,-1.2172,-1.2172,-1.2172,-1.2172,-1.2172,-1.2172,-1.2172,-1.2172,-1.2172,-1.2172,-1.2172,-1.2172,-1.2172,-1.2172,-1.2172,-1.2172,-1.2172,-1.2172,-1.2172,-1.2172,-1.2172,-1.2172,-1.2172,-1.2172,-1.2172,-1.2172,-1.2172,-1.2172,-1.2172,-1.2172,-1.2172,-1.2172,-1.2172,-1.2172,-1.2172,-1.2172,-1.2172,-1.2172,-1.2243,-1.2769,-1.4794,-1.571,-1.6199,-1.6076,-1.6083,-1.6083,-1.6083,-1.6083,-1.6083,-1.6083,-1.6083,-1.6151,-1.6057,-1.5442,-1.5294,-1.5187,-1.5181,-1.5181,-1.5181,-1.5181,-1.5181,-1.5181,-1.5181,-1.5181,0.0,0.0,0.0,0.0,0.0,0.0,0.0,0.0,0.0,0.0,0.0,0.0,0.0,0.0,0.0,0.0,0.0,0.0,0.0,0.0,0.0,0.0,0.0,0.0,0.0,0.0,0.0,0.0,-0.4295,-0.8242,-1.1314,-1.1482,-1.1471,-1.1465,-1.1514,-1.1596,-1.171,-1.1824,-1.1944,-1.2063,-1.2134,-1.2172,-1.2172,-1.2172,-1.2172,-1.2172,-1.2172,-1.2172,-1.2172,-1.2172,-1.2172,-1.2172,-1.2172,-1.2172,-1.2172,-1.2172,-1.2172,-1.2172,-1.2172,-1.2172,-1.2172,-1.2172,-1.2172,-1.2172,-1.2172,-1.2172,-1.2172,-1.2172,-1.2172,-1.2172,-1.2172,-1.2172,-1.2172,-1.2172,-1.2172,-1.2172,-1.2172,-1.2172,-1.2172,-1.2172,-1.2172,-1.2172,-1.2172,-1.2172,-1.2172,-1.2172,-1.2314,-1.3074,-1.4668,-1.5612,-1.6096,-1.609,-1.6083,-1.6083,-1.6083,-1.6083,-1.6083,-1.6083,-1.6083,-1.6172,-1.6133,-1.5475,-1.5321,-1.5276,-1.5215,-1.5181,-1.5181,-1.5181,-1.5181,-1.5181,-1.5181,-1.5181,0.0,0.016,0.0322,0.0165,0.0166,0.0166,0.0168,0.0168,0.0168,0.0,0.0,0.0,0.0168,0.0168,0.0168,0.0,0.0,0.0,0.0,0.0,0.0,0.0,0.0,0.0,0.0,0.0,0.0,0.0,0.0,-0.3045,-1.0059,-1.0784,-1.0957,-1.0942,-1.1421,-1.1716,-1.1819,-1.1933,-1.2053,-1.2172,-1.2172,-1.2172,-1.2172,-1.2172,-1.2172,-1.2172,-1.2172,-1.2172,-1.2172,-1.2172,-1.2172,-1.2172,-1.2172,-1.2172,-1.2172,-1.2172,-1.2172,-1.2172,-1.2172,-1.2172,-1.2172,-1.2172,-1.2172,-1.2172,-1.2172,-1.2172,-1.2172,-1.2172,-1.2172,-1.2172,-1.2172,-1.2172,-1.2172,-1.2172,-1.2172,-1.2172,-1.2172,-1.2172,-1.2172,-1.2172,-1.2172,-1.2172,-1.2172,-1.2172,-1.2178,-1.2199,-1.2576,-1.2954,-1.2891,-1.4607,-1.5897,-1.6096,-1.609,-1.6083,-1.6083,-1.6083,-1.6083,-1.6083,-1.6083,-1.6022,-1.6083,-1.5522,-1.5368,-1.5418,-1.5262,-1.5181,-1.5181,-1.5181,-1.5181,-1.5181,-1.5181,-1.5181,0.0,0.0973,0.214,0.215,0.1499,0.1007,0.1009,0.1009,0.0842,0.0168,0.0,0.0505,0.1853,0.219,0.1689,0.017,0.0,0.0,0.0,0.0,0.0,0.0,0.0,0.0,0.0,0.0,0.0,0.0,0.0,-0.0717,-0.2328,-0.5373,-0.6984,-0.6981,-0.996,-1.1721,-1.1841,-1.1938,-1.2053,-1.2172,-1.2172,-1.2172,-1.2172,-1.2172,-1.2172,-1.2172,-1.2172,-1.2172,-1.2172,-1.2172,-1.2172,-1.2172,-1.2172,-1.2172,-1.2172,-1.2172,-1.2172,-1.2172,-1.2172,-1.2172,-1.2172,-1.2172,-1.2172,-1.2172,-1.2172,-1.2172,-1.2172,-1.2172,-1.2172,-1.2172,-1.2172,-1.2172,-1.2172,-1.2172,-1.2172,-1.2172,-1.2172,-1.2172,-1.2172,-1.2172,-1.2172,-1.2172,-1.2172,-1.2172,-1.2237,-1.2229,-1.2698,-1.2803,-1.2808,-1.3245,-1.4265,-1.5897,-1.609,-1.6083,-1.6083,-1.6083,-1.6083,-1.6083,-1.6083,-1.6069,-1.6035,-1.5778,-1.5567,-1.5418,-1.5262,-1.5181,-1.5181,-1.5181,-1.5181,-1.5181,-1.5181,-1.5181,0.064,0.1628,0.2635,0.2664,0.2346,0.2018,0.2018,0.2018,0.1851,0.1346,0.101,0.0842,0.1852,0.2368,0.238,0.1538,0.052,0.0,0.0,0.0,0.0,0.0,0.0,0.0,0.0,0.0,0.0,0.0,0.0,0.0,0.0,-0.1971,-0.3052,-0.2885,-0.4919,-0.7922,-1.1758,-1.2053,-1.2129,-1.2183,-1.2183,-1.2178,-1.2172,-1.2172,-1.2172,-1.2172,-1.2172,-1.2172,-1.2172,-1.2172,-1.2172,-1.2172,-1.2172,-1.2172,-1.2172,-1.2172,-1.2172,-1.2172,-1.2172,-1.2172,-1.2172,-1.2172,-1.2172,-1.2172,-1.2172,-1.2172,-1.2172,-1.2172,-1.2172,-1.2172,-1.2172,-1.2172,-1.2172,-1.2172,-1.2172,-1.2172,-1.2172,-1.2172,-1.2172,-1.2172,-1.2172,-1.2172,-1.2172,-1.2221,-1.2128,-1.2115,-1.2585,-1.288,-1.2857,-1.2868,-1.3672,-1.5904,-1.6096,-1.609,-1.6083,-1.6083,-1.6083,-1.6083,-1.6083,-1.6083,-1.6083,-1.5798,-1.5601,-1.552,-1.5296,-1.5181,-1.5181,-1.5181,-1.5181,-1.5181,-1.5181,-1.5181,0.1448,0.2116,0.2626,0.2679,0.2692,0.2692,0.2692,0.2692,0.2692,0.2692,0.2018,0.1514,0.1514,0.2208,0.274,0.2744,0.157,0.0354,0.0,0.0,0.0,0.0,0.0,0.0,0.0,0.0,0.0,0.0,0.0,0.0,0.0,0.0,0.0,0.0,0.0,-0.3529,-1.0727,-1.1018,-1.1062,-1.1237,-1.1815,-1.2188,-1.2172,-1.2172,-1.2172,-1.2172,-1.2172,-1.2172,-1.2172,-1.2172,-1.2172,-1.2172,-1.2172,-1.2172,-1.2172,-1.2172,-1.2172,-1.2172,-1.2172,-1.2172,-1.2172,-1.2172,-1.2172,-1.2172,-1.2172,-1.2172,-1.2172,-1.2172,-1.2172,-1.2172,-1.2172,-1.2172,-1.2172,-1.2172,-1.2172,-1.2172,-1.2172,-1.2172,-1.2172,-1.2172,-1.2172,-1.2172,-1.2172,-1.227,-1.2203,-1.232,-1.2634,-1.2952,-1.2873,-1.2879,-1.3684,-1.5911,-1.6103,-1.6096,-1.6083,-1.6083,-1.6083,-1.6083,-1.6083,-1.6083,-1.6083,-1.5798,-1.5649,-1.5676,-1.535,-1.5194,-1.5221,-1.5221,-1.5221,-1.5221,-1.5221,-1.5208,0.2395,0.244,0.2649,0.2684,0.2692,0.2692,0.2692,0.2692,0.2692,0.2692,0.2524,0.2524,0.2524,0.2717,0.2747,0.2773,0.263,0.1773,0.0179,0.0,0.0,0.0,0.0,0.0,0.0,0.0,0.0,0.0,0.0,0.0,0.0,0.0,0.0,0.0,0.0,-0.2229,-0.6764,-0.6822,-0.6847,-0.7037,-1.0474,-1.2188,-1.2172,-1.2172,-1.2172,-1.2172,-1.2172,-1.2172,-1.2172,-1.2172,-1.2172,-1.2172,-1.2172,-1.2172,-1.2172,-1.2172,-1.2172,-1.2172,-1.2172,-1.2172,-1.2172,-1.2172,-1.2172,-1.2172,-1.2172,-1.2172,-1.2172,-1.2172,-1.2172,-1.2172,-1.2172,-1.2172,-1.2172,-1.2172,-1.2172,-1.2172,-1.2172,-1.2172,-1.2172,-1.2172,-1.2172,-1.2172,-1.2172,-1.227,-1.2395,-1.2714,-1.283,-1.2952,-1.2873,-1.2879,-1.3684,-1.5911,-1.6103,-1.6096,-1.6083,-1.6083,-1.6083,-1.6083,-1.6083,-1.6083,-1.6083,-1.5798,-1.5696,-1.5825,-1.5404,-1.5248,-1.5377,-1.5377,-1.5377,-1.5377,-1.5377,-1.5309,0.2407,0.2616,0.2654,0.2684,0.2692,0.2692,0.2692,0.2692,0.2692,0.2692,0.2692,0.2692,0.2692,0.2731,0.2767,0.2781,0.2293,0.1786,0.0897,0.0359,0.0,0.0,0.0,0.0,0.0,0.0,0.0,0.0,0.0,0.0,0.0,0.0,0.0,0.0,0.0,-0.0932,-0.2653,-0.2663,-0.2665,-0.2851,-0.9134,-1.2194,-1.2188,-1.2178,-1.2172,-1.2172,-1.2172,-1.2172,-1.2172,-1.2172,-1.2172,-1.2172,-1.2172,-1.2172,-1.2172,-1.2172,-1.2172,-1.2172,-1.2172,-1.2172,-1.2172,-1.2172,-1.2172,-1.2172,-1.2172,-1.2172,-1.2172,-1.2172,-1.2172,-1.2172,-1.2172,-1.2172,-1.2172,-1.2172,-1.2172,-1.2172,-1.2172,-1.2172,-1.2172,-1.2172,-1.2172,-1.2172,-1.2172,-1.2138,-1.2278,-1.292,-1.2891,-1.283,-1.2879,-1.2884,-1.3284,-1.4289,-1.5093,-1.5492,-1.5678,-1.5884,-1.6083,-1.6083,-1.6083,-1.6083,-1.6083,-1.5872,-1.5791,-1.5852,-1.5493,-1.5384,-1.554,-1.554,-1.554,-1.554,-1.5452,-1.5371,0.2412,0.2609,0.2634,0.2672,0.2682,0.2683,0.2691,0.2692,0.2692,0.2692,0.2692,0.2695,0.2702,0.2747,0.2785,0.2793,0.2306,0.1616,0.1077,0.0359,0.0,0.0,0.0,0.0,0.0,0.0,0.0,0.0,0.0,0.0,0.0,0.0,0.0,0.0,0.0,0.0,0.0,0.0,0.0,-0.0,-0.7226,-1.1237,-1.2199,-1.2178,-1.2172,-1.2172,-1.2172,-1.2172,-1.2172,-1.2172,-1.2172,-1.2172,-1.2172,-1.2172,-1.2172,-1.2172,-1.2172,-1.2172,-1.2172,-1.2172,-1.2172,-1.2172,-1.2172,-1.2172,-1.2172,-1.2172,-1.2172,-1.2172,-1.2172,-1.2172,-1.2172,-1.2172,-1.2172,-1.2172,-1.2172,-1.2172,-1.2172,-1.2172,-1.2172,-1.2172,-1.2172,-1.2183,-1.221,-1.2197,-1.2347,-1.2775,-1.2957,-1.289,-1.289,-1.289,-1.2884,-1.2873,-1.4083,-1.4887,-1.528,-1.5678,-1.5884,-1.6083,-1.6083,-1.6083,-1.6083,-1.5934,-1.5872,-1.5913,-1.5655,-1.5581,-1.5689,-1.5689,-1.5689,-1.5689,-1.554,-1.5445,0.2553,0.2563,0.2578,0.2635,0.2649,0.2657,0.2686,0.2692,0.2692,0.2692,0.2692,0.2701,0.2731,0.2762,0.2792,0.2822,0.2853,0.2156,0.0359,0.0,0.0,0.0,0.0,0.0,0.0,0.0,0.0,0.0,0.0,0.0,0.0,0.0,0.0,0.0,0.0,0.0,0.0,0.0,0.0,-0.0,-0.4373,-0.8372,-1.2199,-1.2178,-1.2172,-1.2172,-1.2172,-1.2172,-1.2172,-1.2172,-1.2172,-1.2172,-1.2172,-1.2172,-1.2172,-1.2172,-1.2172,-1.2172,-1.2172,-1.2172,-1.2172,-1.2172,-1.2172,-1.2172,-1.2172,-1.2172,-1.2172,-1.2172,-1.2172,-1.2172,-1.2172,-1.2172,-1.2172,-1.2172,-1.2172,-1.2172,-1.2172,-1.2172,-1.2172,-1.2172,-1.2172,-1.2205,-1.2128,-1.2251,-1.2374,-1.288,-1.2808,-1.289,-1.289,-1.289,-1.2884,-1.2873,-1.3684,-1.4289,-1.528,-1.528,-1.5479,-1.6083,-1.6083,-1.6083,-1.6083,-1.5934,-1.592,-1.6069,-1.5913,-1.5832,-1.5845,-1.5845,-1.5845,-1.5839,-1.5696,-1.5547,0.2552,0.256,0.257,0.2608,0.2632,0.265,0.2661,0.2679,0.2692,0.2692,0.2692,0.2707,0.2758,0.2776,0.2793,0.2823,0.2855,0.2515,0.1077,0.0359,0.0,0.0,0.0,0.0,0.0,0.0,0.0,0.0,0.0,0.0,0.0,0.0,0.0,0.0,0.0,0.0,0.0,0.0,0.0,-0.0,-0.1522,-0.571,-1.2232,-1.2205,-1.2188,-1.2188,-1.2178,-1.2172,-1.2172,-1.2172,-1.2172,-1.2172,-1.2172,-1.2172,-1.2172,-1.2172,-1.2172,-1.2172,-1.2172,-1.2172,-1.2172,-1.2172,-1.2172,-1.2172,-1.2172,-1.2172,-1.2172,-1.2172,-1.2172,-1.2172,-1.2172,-1.2172,-1.2172,-1.2172,-1.2172,-1.2172,-1.2172,-1.2172,-1.2172,-1.2172,-1.2172,-1.221,-1.2138,-1.2455,-1.277,-1.2891,-1.2808,-1.289,-1.289,-1.289,-1.2884,-1.2884,-1.349,-1.3889,-1.4289,-1.4881,-1.5479,-1.5479,-1.5877,-1.6083,-1.6083,-1.6029,-1.6029,-1.6083,-1.6029,-1.6001,-1.6001,-1.6001,-1.6001,-1.5995,-1.5845,-1.5696,0.254,0.2544,0.2551,0.2581,0.2602,0.2623,0.2642,0.2662,0.268,0.269,0.2692,0.2712,0.2772,0.2784,0.2796,0.2837,0.286,0.2694,0.1976,0.1077,0.0359,0.0,0.0,0.0,0.0,0.0,0.0,0.0,0.0,0.0,0.0,0.0,0.0,0.0,0.0,0.0,0.0,0.0,0.0,0.0,0.0,-0.2855,-0.8204,-0.9526,-1.0858,-1.2199,-1.2188,-1.2178,-1.2172,-1.2172,-1.2172,-1.2172,-1.2172,-1.2172,-1.2172,-1.2172,-1.2172,-1.2172,-1.2172,-1.2172,-1.2172,-1.2172,-1.2172,-1.2172,-1.2172,-1.2172,-1.2172,-1.2172,-1.2172,-1.2172,-1.2172,-1.2172,-1.2172,-1.2172,-1.2172,-1.2172,-1.2172,-1.2172,-1.2172,-1.2172,-1.2205,-1.227,-1.2197,-1.2515,-1.2836,-1.2952,-1.2835,-1.289,-1.289,-1.289,-1.289,-1.289,-1.329,-1.349,-1.369,-1.4482,-1.5081,-1.528,-1.5884,-1.6083,-1.6083,-1.6083,-1.6083,-1.6083,-1.6083,-1.6083,-1.6083,-1.6083,-1.6083,-1.6076,-1.5927,-1.575,0.0,0.0,0.0,0.2551,0.2559,0.2575,0.2631,0.2645,0.2654,0.2684,0.2691,0.271,0.2772,0.2784,0.2803,0.2864,0.2874,0.2874,0.2874,0.1976,0.1077,0.018,0.0,0.0,0.0,0.0,0.0,0.0,0.0,0.0,0.0,0.0,0.0,0.0,0.0,0.0,0.0,0.0,0.0,0.0,0.0,0.0,-0.019,-0.4181,-0.8178,-1.2199,-1.2199,-1.2188,-1.2172,-1.2172,-1.2172,-1.2172,-1.2172,-1.2172,-1.2172,-1.2172,-1.2172,-1.2172,-1.2172,-1.2172,-1.2172,-1.2172,-1.2172,-1.2172,-1.2172,-1.2172,-1.2172,-1.2172,-1.2172,-1.2172,-1.2172,-1.2172,-1.2172,-1.2172,-1.2172,-1.2172,-1.2172,-1.2172,-1.2172,-1.2172,-1.227,-1.2197,-1.2315,-1.2629,-1.2946,-1.2868,-1.289,-1.289,-1.289,-1.289,-1.289,-1.289,-1.289,-1.309,-1.369,-1.4083,-1.4676,-1.528,-1.5678,-1.6083,-1.6083,-1.6083,-1.6083,-1.6083,-1.6083,-1.6083,-1.6083,-1.6083,-1.6083,-1.6076,-1.5927,-1.5696,0.2514,0.0,0.0,0.0,0.0,0.0,0.2581,0.26,0.2623,0.2653,0.266,0.2684,0.2767,0.2784,0.2803,0.2864,0.2874,0.2874,0.2874,0.2694,0.2335,0.2156,0.0898,0.0,0.0,0.0,0.0,0.0,0.0,0.0,0.0,0.0,0.0,0.0,0.0,0.0,0.0,0.0,0.0,0.0,0.0,0.0,-0.0,-0.1142,-0.552,-1.2237,-1.221,-1.2194,-1.2188,-1.2178,-1.2172,-1.2172,-1.2172,-1.2172,-1.2172,-1.2172,-1.2172,-1.2172,-1.2172,-1.2172,-1.2172,-1.2172,-1.2172,-1.2172,-1.2172,-1.2172,-1.2172,-1.2172,-1.2172,-1.2172,-1.2172,-1.2172,-1.2172,-1.2172,-1.2172,-1.2172,-1.2172,-1.2172,-1.2172,-1.2172,-1.227,-1.239,-1.2714,-1.283,-1.2946,-1.2868,-1.289,-1.289,-1.289,-1.289,-1.289,-1.289,-1.289,-1.289,-1.309,-1.3684,-1.4083,-1.4676,-1.528,-1.5678,-1.6083,-1.6083,-1.6083,-1.6083,-1.6083,-1.6083,-1.6083,-1.6083,-1.6083,-1.6076,-1.5927,-1.575,0.0,0.0,0.2514,0.2514,0.0,0.0,0.2571,0.259,0.2613,0.2657,0.2665,0.269,0.2769,0.2784,0.2803,0.2864,0.2874,0.2874,0.2874,0.2874,0.2874,0.2874,0.1616,0.0359,0.0,0.0,0.0,0.0,0.0,0.0,0.0,0.0,0.0,0.0,0.0,0.0,0.0,0.0,0.0,0.0,0.0,0.0,0.0,0.0,-0.2666,-0.7246,-1.0687,-1.221,-1.2199,-1.2194,-1.2183,-1.2172,-1.2172,-1.2172,-1.2172,-1.2172,-1.2172,-1.2172,-1.2172,-1.2172,-1.2172,-1.2172,-1.2172,-1.2172,-1.2172,-1.2172,-1.2172,-1.2172,-1.2172,-1.2172,-1.2172,-1.2172,-1.2172,-1.2172,-1.2172,-1.2172,-1.2172,-1.221,-1.2248,-1.2248,-1.2154,-1.2272,-1.2786,-1.2902,-1.2808,-1.2879,-1.289,-1.289,-1.289,-1.289,-1.289,-1.289,-1.289,-1.289,-1.289,-1.349,-1.3889,-1.4083,-1.4682,-1.528,-1.5678,-1.5678,-1.5884,-1.6083,-1.6083,-1.6083,-1.6083,-1.6083,-1.6083,-1.6076,-1.5927,-1.5811,0.0,0.0,0.0,0.2514,0.2514,0.0,0.2579,0.2592,0.2608,0.2667,0.2677,0.2698,0.2761,0.2773,0.2793,0.2855,0.2867,0.287,0.2874,0.2874,0.2874,0.2874,0.2156,0.1077,0.018,0.0,0.0,0.0,0.0,0.0,0.0,0.0,0.0,0.0,0.0,0.0,0.0,0.0,0.0,0.0,0.0,0.0,0.0,0.0,0.0,-0.0381,-0.763,-1.1272,-1.2205,-1.2221,-1.2205,-1.2172,-1.2172,-1.2172,-1.2172,-1.2172,-1.2172,-1.2172,-1.2172,-1.2172,-1.2172,-1.2172,-1.2172,-1.2172,-1.2172,-1.2172,-1.2172,-1.2172,-1.2172,-1.2172,-1.2172,-1.2172,-1.2172,-1.2172,-1.2172,-1.2178,-1.2188,-1.2275,-1.2165,-1.2192,-1.2283,-1.239,-1.2886,-1.2808,-1.289,-1.289,-1.289,-1.289,-1.289,-1.289,-1.289,-1.289,-1.289,-1.289,-1.289,-1.329,-1.369,-1.369,-1.4083,-1.4682,-1.528,-1.528,-1.5479,-1.6083,-1.6083,-1.6083,-1.6083,-1.6083,-1.6083,-1.6076,-1.594,-1.5866,0.2521,0.2514,0.2514,0.2514,0.2514,0.0,0.2529,0.2532,0.2541,0.2578,0.2586,0.2611,0.2695,0.271,0.2731,0.2791,0.2822,0.2846,0.2871,0.2874,0.2874,0.2874,0.2694,0.1975,0.018,0.0,0.0,0.0,0.0,0.0,0.0,0.0,0.0,0.0,0.0,0.0,0.0,0.0,0.0,0.0,0.0,0.0,0.0,0.0,0.0,-0.0,-0.1714,-0.6096,-1.2243,-1.2232,-1.2205,-1.2172,-1.2188,-1.2183,-1.2172,-1.2188,-1.2183,-1.2172,-1.2188,-1.2183,-1.2172,-1.2172,-1.2172,-1.2172,-1.2172,-1.2172,-1.2172,-1.2172,-1.2172,-1.2172,-1.2172,-1.2172,-1.2172,-1.2172,-1.2172,-1.2199,-1.2292,-1.2144,-1.2213,-1.2602,-1.2852,-1.288,-1.2902,-1.2808,-1.289,-1.289,-1.289,-1.289,-1.289,-1.289,-1.289,-1.289,-1.289,-1.289,-1.289,-1.309,-1.329,-1.369,-1.3889,-1.4283,-1.528,-1.528,-1.5479,-1.6083,-1.6083,-1.6083,-1.6083,-1.6083,-1.6083,-1.6083,-1.6049,-1.5967,0.2522,0.2514,0.2514,0.2514,0.2514,0.0,0.0,0.2537,0.2545,0.2575,0.2593,0.2622,0.2682,0.2705,0.2731,0.2776,0.2808,0.2829,0.2829,0.2855,0.2874,0.2874,0.2874,0.2335,0.0898,0.0359,0.0,0.0,0.0,0.0,0.0,0.0,0.0,0.0,0.0,0.0,0.0,0.0,0.0,0.0,0.0,0.0,0.0,0.0,0.0,0.0,0.0,-0.2285,-0.6479,-1.0521,-1.1077,-0.9315,-1.1436,-1.2205,-1.2199,-1.221,-1.1237,-1.0266,-1.181,-1.2188,-1.2172,-1.2172,-1.2172,-1.2172,-1.2172,-1.2172,-1.2172,-1.2172,-1.2172,-1.2172,-1.2172,-1.2172,-1.2172,-1.2172,-1.2172,-1.2205,-1.2133,-1.2401,-1.2692,-1.2869,-1.2957,-1.2996,-1.2996,-1.2846,-1.289,-1.289,-1.289,-1.289,-1.289,-1.289,-1.289,-1.289,-1.289,-1.289,-1.289,-1.289,-1.309,-1.329,-1.329,-1.369,-1.4482,-1.4482,-1.4881,-1.5678,-1.5884,-1.6083,-1.6083,-1.6083,-1.6083,-1.6083,-1.6083,-1.6042,0.2523,0.2514,0.2514,0.2514,0.2514,0.2521,0.0,0.0,0.0,0.2587,0.2613,0.2641,0.2677,0.2703,0.2728,0.2752,0.2788,0.28,0.277,0.2818,0.2856,0.2856,0.2867,0.2512,0.1432,0.0537,0.0,0.0,0.0,0.0,0.0,0.0,0.0,0.0,0.0,0.0,0.0,0.0,0.0,0.0,0.0,0.0,0.0,0.0,0.0,0.0,0.0,0.0,-0.0571,-0.7074,-0.8409,-0.628,-0.8956,-1.0298,-1.1067,-1.1847,-1.0483,-0.855,-1.1237,-1.2188,-1.2172,-1.2172,-1.2172,-1.2172,-1.2172,-1.2172,-1.2172,-1.2172,-1.2172,-1.2172,-1.2172,-1.2172,-1.2172,-1.2172,-1.2188,-1.2237,-1.2165,-1.2482,-1.2803,-1.2919,-1.2819,-1.289,-1.289,-1.289,-1.289,-1.289,-1.289,-1.289,-1.289,-1.289,-1.289,-1.289,-1.289,-1.289,-1.289,-1.289,-1.289,-1.289,-1.289,-1.309,-1.369,-1.3889,-1.4283,-1.528,-1.5678,-1.6083,-1.6083,-1.6083,-1.6083,-1.6083,-1.6083,-1.6083,0.2529,0.2514,0.2514,0.2514,0.2514,0.2515,0.2519,0.0,0.2527,0.2559,0.0,0.2586,0.2642,0.0,0.0,0.2662,0.271,0.2737,0.2707,0.2755,0.2793,0.2793,0.2841,0.2505,0.1418,0.0531,0.0,0.0,0.0,0.0,0.0,0.0,0.0,0.0,0.0,0.0,0.0,0.0,0.0,0.0,0.0,0.0,0.0,0.0,0.0,0.0,0.0,0.0,-0.0,-0.0954,-0.3246,-0.573,-0.2666,-0.3613,-0.723,-1.0892,-1.0493,-0.855,-1.1252,-1.2199,-1.2172,-1.2172,-1.2172,-1.2172,-1.2172,-1.2172,-1.2172,-1.2172,-1.2172,-1.2172,-1.2172,-1.2172,-1.2172,-1.2172,-1.2254,-1.2171,-1.2288,-1.2607,-1.2924,-1.2846,-1.2879,-1.289,-1.289,-1.289,-1.289,-1.289,-1.289,-1.289,-1.289,-1.289,-1.289,-1.289,-1.289,-1.289,-1.289,-1.289,-1.289,-1.289,-1.289,-1.309,-1.369,-1.4083,-1.4676,-1.528,-1.528,-1.5678,-1.6083,-1.6083,-1.6083,-1.6083,-1.6083,-1.6083,0.4252,0.3942,0.3798,0.2675,0.2527,0.2541,0.2541,0.2541,0.2549,0.2578,0.0,0.0,0.0,0.0,0.0,0.0,0.2709,0.2728,0.2697,0.2744,0.2784,0.2784,0.2806,0.2294,0.0707,0.0177,0.0,0.0,0.0,0.0,0.0,0.0,0.0,0.0,0.0,0.0,0.0,0.0,0.0,0.0,0.0,0.0,0.0,0.0,0.0,0.0,0.0,0.0,0.0,0.0,-0.0954,-0.2482,-0.0763,-0.1143,-0.2858,-0.4577,-0.7439,-1.0687,-1.1852,-1.2227,-1.2199,-1.2188,-1.2178,-1.2172,-1.2172,-1.2172,-1.2172,-1.2172,-1.2172,-1.2172,-1.2172,-1.2172,-1.2188,-1.2259,-1.2122,-1.2208,-1.2591,-1.2672,-1.2941,-1.2863,-1.289,-1.289,-1.289,-1.289,-1.289,-1.289,-1.289,-1.289,-1.289,-1.289,-1.289,-1.289,-1.289,-1.289,-1.289,-1.289,-1.289,-1.289,-1.289,-1.309,-1.329,-1.3684,-1.4083,-1.4283,-1.4881,-1.5479,-1.5678,-1.5884,-1.6083,-1.6083,-1.6083,-1.6083,0.6161,0.5701,0.5566,0.4247,0.3644,0.3356,0.3356,0.2885,0.2579,0.2608,0.2631,0.0,0.0,0.0,0.269,0.2682,0.0,0.2714,0.2684,0.2725,0.2758,0.2758,0.2766,0.2087,0.0527,0.0175,0.0,0.0,0.0,0.0,0.0,0.0,0.0,0.0,0.0,0.0,0.0,0.0,0.0,0.0,0.0,0.0,0.0,0.0,0.0,0.0,0.0,0.0,0.0,0.0,0.0,0.0,0.0,0.0,0.0,0.0,-0.3815,-0.8972,-1.0126,-1.0502,-1.0683,-1.1826,-1.2194,-1.2178,-1.2178,-1.2178,-1.2172,-1.2172,-1.2172,-1.2172,-1.2172,-1.2194,-1.2243,-1.2138,-1.2208,-1.2498,-1.2869,-1.293,-1.2979,-1.2873,-1.289,-1.289,-1.289,-1.289,-1.289,-1.289,-1.289,-1.289,-1.289,-1.289,-1.289,-1.289,-1.289,-1.289,-1.289,-1.289,-1.289,-1.289,-1.289,-1.289,-1.289,-1.329,-1.349,-1.369,-1.4482,-1.5081,-1.528,-1.5678,-1.5884,-1.6083,-1.6083,-1.6083,0.7684,0.764,0.7623,0.7381,0.6165,0.4944,0.4944,0.3705,0.2609,0.2639,0.2646,0.2656,0.2686,0.2691,0.2683,0.0,0.2673,0.0,0.0,0.2676,0.2695,0.2695,0.2721,0.2407,0.1391,0.0517,0.0,0.0,0.0,0.0,0.0,0.0,0.0,0.0,0.0,0.0,0.0,0.0,0.0,0.0,0.0,0.0,0.0,0.0,0.0,0.0,0.0,0.0,0.0,0.0,0.0,0.0,0.0,0.0,0.0,0.0,-0.0191,-0.0951,-0.4952,-0.6283,-0.7037,-1.0872,-1.221,-1.2199,-1.2199,-1.2183,-1.2172,-1.2172,-1.2172,-1.2172,-1.2172,-1.2259,-1.2154,-1.216,-1.2526,-1.2897,-1.2902,-1.2996,-1.2884,-1.2884,-1.289,-1.289,-1.289,-1.289,-1.289,-1.289,-1.289,-1.289,-1.289,-1.289,-1.289,-1.289,-1.289,-1.289,-1.289,-1.289,-1.289,-1.289,-1.289,-1.289,-1.289,-1.289,-1.309,-1.369,-1.369,-1.4283,-1.528,-1.528,-1.5678,-1.6083,-1.6083,-1.6083,0.9838,0.9552,0.9254,0.8193,0.7436,0.7011,0.7011,0.573,0.445,0.4498,0.351,0.268,0.2691,0.2692,0.2688,0.2679,0.2686,0.2688,0.0,0.2686,0.2692,0.2692,0.272,0.2399,0.1376,0.0518,0.0,0.0,0.0,0.0,0.0,0.0,0.0,0.0,0.0,0.0,0.0,0.0,0.0,0.0,0.0,0.0,0.0,0.0,0.0,0.0,0.0,0.0,0.0,0.0,0.0,0.0,0.0,0.0,0.0,0.0,0.0,-0.0191,-0.1526,-0.2095,-0.2281,-0.3615,-0.6464,-0.9888,-1.1621,-1.2188,-1.2172,-1.2172,-1.2227,-1.2292,-1.2292,-1.2187,-1.2294,-1.2569,-1.2847,-1.293,-1.2808,-1.2857,-1.289,-1.289,-1.289,-1.289,-1.289,-1.289,-1.289,-1.289,-1.289,-1.289,-1.289,-1.289,-1.289,-1.289,-1.289,-1.289,-1.289,-1.289,-1.289,-1.289,-1.289,-1.289,-1.289,-1.289,-1.309,-1.309,-1.349,-1.3889,-1.4289,-1.4881,-1.5479,-1.5479,-1.5884,-1.6083,1.1739,1.1498,1.1236,1.013,0.9395,0.8999,0.8962,0.7655,0.6186,0.5535,0.4535,0.3532,0.2861,0.2692,0.2692,0.2692,0.2692,0.2692,0.0,0.2692,0.2692,0.2692,0.271,0.2385,0.1368,0.0515,0.0,0.0,0.0,0.0,0.0,0.0,0.0,0.0,0.0,0.0,0.0,0.0,0.0,0.0,0.0,0.0,0.0,0.0,0.0,0.0,0.0,0.0,0.0,0.0,0.0,0.0,0.0,0.0,0.0,0.0,0.0,0.0,0.0,0.0,0.0,0.0,-0.2282,-0.6079,-1.0868,-1.2205,-1.2199,-1.2237,-1.2112,-1.2176,-1.2406,-1.2504,-1.2613,-1.2886,-1.2941,-1.299,-1.2873,-1.289,-1.289,-1.289,-1.289,-1.289,-1.289,-1.289,-1.289,-1.289,-1.289,-1.289,-1.289,-1.289,-1.289,-1.289,-1.289,-1.289,-1.289,-1.289,-1.289,-1.289,-1.289,-1.289,-1.289,-1.289,-1.2868,-1.2825,-1.3267,-1.3467,-1.362,-1.4464,-1.4881,-1.528,-1.5678,-1.5884]}]]